[[{"header":{"parameterUnit":"m.s-1","parameterCategory":1,"la1":31.0,"la2":29.5877,"lo1":-88.7671,"lo2":-86.6584,"dy":0.0162,"dx":0.0185,"nx":115,"ny":88,"refTime":"2023-10-29T00:00:00:Z","depth":0,"parameterNumber":2,"parameterNumberName":"U-component_of_WINDS"},"data":[0.0,0.0,0.0,0.0,0.0,0.0,0.0,0.0,0.0,0.0,0.0,0.0,0.0,0.0,0.0,0.0,0.0,0.0,0.0,0.0,0.0,0.0,0.0,0.0,0.0,0.0,0.0,0.0,0.0,0.0,0.0,0.0,0.0,0.0,0.0,0.0,0.0,0.0,0.0,0.0,0.0,0.0,0.0,0.0,0.0,0.0,0.0,0.0,0.0,0.0,0.0,0.0,0.0,0.0,0.0,0.0,0.0,0.0,0.0,0.0,0.0,0.0,0.0,0.0,0.0,0.0,0.0,0.0,0.0,0.0,0.0,0.0,0.0,0.0,0.0,0.0,0.0,0.0,0.0,0.0,0.0,0.0,0.0,0.0,0.0,0.0,0.0,0.0,0.0,0.0,0.0,0.0,0.0,0.0,0.0,0.0,0.0,0.0,0.0,0.0,0.0,0.0,0.0,0.0,0.0,0.0,0.0,0.0,0.0,0.0,0.0,0.0,0.0,0.0,0.0,0.0,0.0,0.0,0.0,0.0,0.0,0.0,0.0,0.0,0.0,0.0,0.0,0.0,0.0,0.0,0.0,0.0,0.0,0.0,0.0,0.0,0.0,0.0,0.0,0.0,0.0,0.0,0.0,0.0,0.0,0.0,0.0,0.0,0.0,0.0,0.0,0.0,0.0,0.0,0.0,0.0,0.0,0.0,0.0,0.0,0.0,0.0,0.0,0.0,0.0,0.0,0.0,0.0,0.0,0.0,0.0,0.0,0.0,0.0,0.0,0.0,0.0,0.0,0.0,0.0,0.0,0.0,0.0,0.0,0.0,0.0,0.0,0.0,0.0,0.0,0.0,0.0,0.0,0.0,0.0,0.0,0.0,0.0,0.0,0.0,0.0,0.0,0.0,0.0,0.0,0.0,0.0,0.0,0.0,0.0,0.0,0.0,0.0,0.0,0.0,0.0,0.0,0.0,0.0,0.0,0.0,0.0,0.0,0.0,0.0,0.0,0.0,0.0,0.0,0.0,0.0,0.0,0.0,0.0,0.0,0.0,0.0,0.0,0.0,0.0,0.0,0.0,0.0,0.0,0.0,0.0,0.0,0.0,0.0,0.0,0.0,0.0,0.0,0.0,0.0,0.0,0.0,0.0,0.0,0.0,0.0,0.0,0.0,0.0,0.0,0.0,0.0,0.0,0.0,0.0,0.0,0.0,0.0,0.0,0.0,0.0,0.0,0.0,0.0,0.0,0.0,0.0,0.0,0.0,0.0,0.0,0.0,0.0,0.0,0.0,0.0,0.0,0.0,0.0,0.0,0.0,0.0,0.0,0.0,0.0,0.0,0.0,0.0,0.0,0.0,0.0,0.0,0.0,0.0,0.0,0.0,0.0,0.0,0.0,0.0,0.0,0.0,0.0,0.0,0.0,0.0,0.0,0.0,0.0,0.0,0.0,0.0,0.0,0.0,0.0,0.0,0.0,0.0,0.0,0.0,0.0,0.0,0.0,0.0,0.0,0.0,0.0,0.0,0.0,0.0,0.0,0.0,0.0,0.0,0.0,0.0,0.0,0.0,0.0,0.0,0.0,0.0,0.0,0.0,0.0,0.0,0.0,0.0,0.0,0.0,0.0,0.0,0.0,0.0,0.0,0.0,0.0,0.0,0.0,0.0,0.0,0.0,0.0,0.0,0.0,0.0,0.0,0.0,0.0,0.0,0.0,0.0,0.0,0.0,0.0,0.0,0.0,0.0,0.0,0.0,0.0,0.0,0.0,0.0,0.0,0.0,0.0,0.0,0.0,0.0,0.0,0.0,0.0,0.0,0.0,0.0,0.0,0.0,0.0,0.0,0.0,0.0,0.0,0.0,0.0,0.0,0.0,0.0,0.0,0.0,0.0,0.0,0.0,0.0,0.0,0.0,0.0,0.0,0.0,0.0,0.0,0.0,0.0,0.0,0.0,0.0,0.0,0.0,0.0,0.0,0.0,0.0,0.0,0.0,0.0,0.0,0.0,0.0,0.0,0.0,0.0,0.0,0.0,0.0,0.0,0.0,0.0,0.0,0.0,0.0,0.0,0.0,0.0,0.0,0.0,0.0,0.0,0.0,0.0,0.0,0.0,0.0,0.0,0.0,0.0,0.0,0.0,0.0,0.0,0.0,0.0,0.0,0.0,0.0,0.0,0.0,0.0,0.0,0.0,0.0,0.0,0.0,0.0,0.0,0.0,0.0,0.0,0.0,0.0,0.0,0.0,0.0,0.0,0.0,0.0,0.0,0.0,0.0,0.0,0.0,0.0,0.0,0.0,0.0,0.0,0.0,0.0,0.0,0.0,0.0,0.0,0.0,0.0,0.0,0.0,0.0,0.0,0.0,0.0,0.0,0.0,0.0,0.0,0.0,0.0,0.0,0.0,0.0,0.0,0.0,0.0,0.0,0.0,0.0,0.0,0.0,0.0,0.0,0.0,0.0,0.0,0.0,0.0,0.0,0.0,0.0,0.0,0.0,0.0,0.0,0.0,0.0,0.0,0.0,0.0,0.0,0.0,0.0,0.0,0.0,0.0,0.0,0.0,0.0,0.0,0.0,0.0,0.0,0.0,0.0,0.0,0.0,0.0,0.0,0.0,0.0,0.0,0.0,0.0,0.0,0.0,0.0,0.0,0.0,0.0,0.0,0.0,0.0,0.0,0.0,0.0,0.0,0.0,0.0,0.0,0.0,0.0,0.0,0.0,0.0,0.0,0.0,0.0,0.0,0.0,0.0,0.0,0.0,0.0,0.0,0.0,0.0,0.0,0.0,0.0,0.0,0.0,0.0,0.0,0.0,0.0,0.0,0.0,0.0,0.0,0.0,0.0,0.0,0.0,0.0,0.0,0.0,0.0,0.0,0.0,0.0,0.0,0.0,0.0,0.0,0.0,0.0,0.0,0.0,0.0,0.0,0.0,0.0,0.0,0.0,0.0,0.0,0.0,0.0,0.0,0.0,0.0,0.0,0.0,0.0,0.0,0.0,0.0,0.0,0.0,0.0,0.0,0.0,0.0,0.0,0.0,0.0,0.0,0.0,0.0,0.0,0.0,0.0,0.0,0.0,0.0,0.0,0.0,0.0,0.0,0.0,0.0,0.0,0.0,0.0,0.0,0.0,0.0,0.0,0.0,0.0,0.0,0.0,0.0,0.0,0.0,0.0,0.0,0.0,0.0,0.0,0.0,0.0,0.0,0.0,0.0,0.0,0.0,0.0,0.0,0.0,0.0,0.0,0.0,0.0,0.0,0.0,0.0,0.0,0.0,0.0,0.0,0.0,0.0,0.0,0.0,0.0,0.0,0.0,0.0,0.0,0.0,0.0,0.0,0.0,0.0,0.0,0.0,0.0,0.0,0.0,0.0,0.0,0.0,0.0,0.0,0.0,0.0,0.0,0.0,0.0,0.0,0.0,0.0,0.0,0.0,0.0,0.0,0.0,0.0,0.0,0.0,0.0,0.0,0.0,0.0,0.0,0.0,0.0,0.0,0.0,0.0,0.0,0.0,0.0,0.0,0.0,0.0,0.0,0.0,0.0,0.0,0.0,0.0,0.0,0.0,0.0,0.0,0.0,0.0,0.0,0.0,0.0,0.0,0.0,0.0,0.0,0.0,0.0,0.0,0.0,0.0,0.0,0.0,0.0,0.0,0.0,0.0,0.0,0.0,0.0,0.0,0.0,0.0,0.0,0.0,0.0,0.0,0.0,0.0,0.0,0.0,0.0,0.0,0.0,0.0,0.0,0.0,0.0,0.0,0.0,0.0,0.0,0.0,0.0,0.0,0.0,0.0,0.0,0.0,0.0,0.0,0.0,0.0,0.0,0.0,0.0,0.0,0.0,0.0,0.0,0.0,0.0,0.0,0.0,0.0,0.0,0.0,0.0,0.0,0.0,0.0,0.0,0.0,0.0,0.0,0.0,0.0,0.0,0.0,0.0,0.0,0.0,0.0,0.0,0.0,0.0,0.0,0.0,0.0,0.0,0.0,0.0,0.0,0.0,0.0,0.0,0.0,0.0,0.0,0.0,0.0,0.0,0.0,0.0,0.0,0.0,0.0,0.0,0.0,0.0,0.0,0.0,0.0,0.0,0.0,0.0,0.0,0.0,0.0,0.0,0.0,0.0,0.0,0.0,0.0,0.0,0.0,0.0,0.0,0.0,0.0,0.0,0.0,0.0,0.0,0.0,0.0,0.0,0.0,0.0,0.0,0.0,0.0,0.0,0.0,0.0,0.0,0.0,0.0,0.0,0.0,0.0,0.0,0.0,0.0,1.561,0.0,0.0,0.0,0.0,0.0,0.0,0.0,0.0,0.0,0.0,0.0,0.0,0.0,0.0,0.0,0.0,0.0,0.0,0.0,0.0,0.0,0.0,0.0,0.0,0.0,0.0,0.0,0.0,0.0,0.0,0.0,0.0,0.0,0.0,0.0,0.0,0.0,0.0,0.0,0.0,0.0,0.0,0.0,0.0,0.0,0.0,0.0,0.0,0.0,0.0,0.0,0.0,0.0,0.0,0.0,0.0,0.0,0.0,0.0,0.0,0.0,0.0,0.0,0.0,0.0,0.0,0.0,0.0,0.0,0.0,0.0,0.0,0.0,0.0,0.0,0.0,0.0,0.0,0.0,0.0,0.0,0.0,0.0,0.0,0.0,0.0,0.0,0.0,0.0,0.0,0.0,0.0,0.0,0.0,0.0,0.0,0.0,0.0,0.0,0.0,0.0,0.0,0.0,0.0,0.0,0.0,0.0,0.0,0.0,0.0,1.737,1.7229,1.7098,1.6931,1.6667,0.0,0.0,0.0,0.0,0.0,0.0,0.0,0.0,0.0,0.0,0.0,0.0,0.0,0.0,0.0,0.0,0.0,0.0,0.0,0.0,0.0,0.0,0.0,0.0,0.0,0.0,0.0,0.0,0.0,0.0,0.0,0.0,0.0,0.0,0.0,0.0,0.0,0.0,0.0,0.0,0.0,0.0,0.0,0.0,0.0,0.0,0.0,0.0,0.0,0.0,0.0,0.0,0.0,0.0,0.0,0.0,0.0,0.0,0.0,0.0,0.0,0.0,0.0,0.0,0.0,0.0,0.0,0.0,0.0,0.0,0.0,0.0,0.0,0.0,0.0,0.0,0.0,0.0,0.0,0.0,0.0,0.0,0.0,0.0,0.0,0.0,0.0,0.0,0.0,0.0,0.0,0.0,0.0,0.0,0.0,0.0,0.0,0.0,0.0,0.0,0.0,0.0,0.0,0.0,0.0,0.0,0.0,0.0,0.0,0.0,0.0,0.0,1.7641,1.752,1.7412,0.0,0.0,0.0,0.0,0.0,0.0,0.0,0.0,0.0,0.0,0.0,0.0,0.0,0.0,0.0,0.0,0.0,0.0,0.0,0.0,0.0,0.0,0.0,0.0,0.0,0.0,0.0,0.0,0.0,0.0,0.0,0.0,0.0,0.0,0.0,0.0,0.0,0.0,0.0,0.0,0.0,0.0,0.0,0.0,0.0,0.0,0.0,0.0,0.0,0.0,0.0,0.0,0.0,0.0,0.0,0.0,0.0,0.0,0.0,0.0,0.0,0.0,0.0,0.0,0.0,0.0,0.0,0.0,0.0,0.0,0.0,0.0,0.0,0.0,0.0,0.0,0.0,0.0,0.0,0.0,0.0,0.0,0.0,0.0,0.0,0.0,0.0,0.0,0.0,0.0,0.0,0.0,0.0,0.0,0.0,0.0,0.0,0.0,0.0,0.0,0.0,0.0,0.0,0.0,0.0,0.0,0.0,0.0,0.0,0.0,1.8284,1.8158,1.8133,0.0,1.7411,0.0,0.0,0.0,0.0,0.0,0.0,0.0,0.0,0.0,0.0,0.0,0.0,0.0,0.0,0.0,0.0,0.0,0.0,0.0,0.0,0.0,0.0,0.0,0.0,0.0,0.0,0.0,0.0,0.0,0.0,0.0,0.0,0.0,0.0,0.0,0.0,0.0,0.0,0.0,0.0,0.0,0.0,0.0,0.0,0.0,0.0,0.0,0.0,0.0,0.0,0.0,0.0,0.0,0.0,0.0,0.0,0.0,0.0,0.0,0.0,0.0,0.0,0.0,0.0,0.0,0.0,0.0,0.0,0.0,0.0,0.0,0.0,0.0,0.0,0.0,0.0,0.0,0.0,0.0,0.0,0.0,0.0,0.0,0.0,0.0,0.0,0.0,0.0,0.0,0.0,0.0,0.0,0.0,0.0,0.0,0.0,0.0,0.0,0.0,0.0,0.0,0.0,0.0,0.0,0.0,0.0,0.0,0.0,0.0,0.0,1.8803,1.8662,1.8675,1.8422,0.0,0.0,0.0,0.0,0.0,0.0,0.0,0.0,0.0,0.0,0.0,0.0,0.0,0.0,0.0,0.0,0.0,0.0,0.0,0.0,0.0,0.0,0.0,0.0,0.0,0.0,0.0,0.0,0.0,0.0,0.0,0.0,0.0,0.0,0.0,0.0,0.0,0.0,0.0,0.0,0.0,0.0,0.0,0.0,0.0,0.0,0.0,0.0,0.0,0.0,0.0,0.0,0.0,0.0,0.0,0.0,0.0,0.0,0.0,0.0,0.0,0.0,0.0,0.0,0.0,0.0,0.0,0.0,0.0,0.0,0.0,0.0,0.0,0.0,0.0,0.0,0.0,0.0,0.0,0.0,0.0,0.0,0.0,0.0,0.0,0.0,0.0,0.0,0.0,0.0,0.0,0.0,0.0,0.0,0.0,0.0,0.0,0.0,0.0,0.0,0.0,0.0,0.0,0.0,0.0,0.0,0.0,0.0,0.0,0.0,1.9133,1.9382,1.9445,1.9301,1.9023,1.8651,0.0,0.0,0.0,0.0,0.0,0.0,0.0,0.0,0.0,0.0,0.0,0.0,0.0,0.0,0.0,0.0,0.0,0.0,0.0,0.0,0.0,0.0,0.0,0.0,0.0,0.0,0.0,0.0,0.0,0.0,0.0,0.0,0.0,0.0,0.0,0.0,0.0,0.0,0.0,0.0,0.0,0.0,0.0,0.0,0.0,0.0,0.0,0.0,0.0,0.0,0.0,0.0,0.0,0.0,0.0,0.0,0.0,0.0,0.0,0.0,0.0,0.0,0.0,0.0,0.0,0.0,0.0,0.0,0.0,0.0,0.0,0.0,0.0,0.0,0.0,0.0,0.0,0.0,0.0,0.0,0.0,0.0,0.0,0.0,0.0,0.0,0.0,0.0,0.0,0.0,0.0,0.0,0.0,0.0,0.0,0.0,0.0,0.0,0.0,0.0,0.0,0.0,0.0,0.0,0.0,0.0,0.0,0.0,1.916,1.9561,1.9999,2.049,2.0047,1.9758,0.0,0.0,0.0,0.0,0.0,0.0,0.0,0.0,0.0,0.0,0.0,0.0,0.0,0.0,0.0,0.0,0.0,0.0,0.0,0.0,0.0,0.0,0.0,0.0,0.0,0.0,0.0,0.0,0.0,0.0,0.0,0.0,0.0,0.0,0.0,0.0,0.0,0.0,0.0,0.0,0.0,0.0,0.0,0.0,0.0,0.0,0.0,0.0,0.0,0.0,0.0,0.0,0.0,0.0,0.0,0.0,0.0,0.0,0.0,0.0,0.0,0.0,0.0,0.0,0.0,0.0,0.0,0.0,0.0,0.0,0.0,0.0,0.0,0.0,0.0,0.0,0.0,0.0,0.0,0.0,0.0,0.0,0.0,0.0,0.0,0.0,0.0,0.0,0.0,0.0,0.0,0.0,0.0,0.0,0.0,0.0,0.0,0.0,0.0,0.0,0.0,0.0,0.0,0.0,0.0,0.0,0.0,0.0,0.0,1.9103,1.9545,2.0033,2.0548,2.0095,1.982,0.0,0.0,0.0,0.0,0.0,0.0,0.0,0.0,0.0,0.0,0.0,0.0,0.0,0.0,0.0,0.0,0.0,0.0,0.0,0.0,0.0,0.0,0.0,0.0,0.0,0.0,0.0,0.0,0.0,0.0,0.0,0.0,0.0,0.0,0.0,0.0,0.0,0.0,0.0,0.0,0.0,0.0,0.0,0.0,0.0,0.0,0.0,0.0,0.0,0.0,0.0,0.0,0.0,0.0,0.0,0.0,0.0,0.0,0.0,0.0,0.0,0.0,0.0,0.0,0.0,0.0,0.0,0.0,0.0,0.0,0.0,0.0,0.0,0.0,0.0,0.0,0.0,0.0,0.0,0.0,0.0,0.0,0.0,0.0,0.0,0.0,0.0,0.0,0.0,0.0,0.0,0.0,0.0,0.0,0.0,0.0,0.0,0.0,0.0,0.0,0.0,0.0,0.0,0.0,0.0,0.0,0.0,0.0,0.0,1.9504,0.0,2.0576,2.1052,2.0601,2.024,0.0,0.0,0.0,0.0,0.0,0.0,0.0,0.0,0.0,0.0,0.0,0.0,0.0,0.0,0.0,0.0,0.0,0.0,0.0,0.0,0.0,0.0,0.0,0.0,0.0,0.0,0.0,0.0,0.0,0.0,0.0,0.0,0.0,0.0,0.0,0.0,0.0,0.0,0.0,0.0,0.0,0.0,0.0,0.0,0.0,0.0,0.0,0.0,0.0,0.0,0.0,0.0,0.0,0.0,0.0,0.0,0.0,0.0,0.0,0.0,0.0,0.0,0.0,0.0,0.0,0.0,0.0,0.0,0.0,0.0,0.0,0.0,0.0,0.0,0.0,0.0,0.0,0.0,0.0,0.0,0.0,0.0,0.0,0.0,0.0,0.0,0.0,0.0,0.0,0.0,0.0,0.0,0.0,0.0,0.0,0.0,0.0,0.0,0.0,0.0,0.0,0.0,0.0,0.0,0.0,0.0,0.0,0.0,1.9685,2.0586,2.11,2.1596,2.2149,2.162,2.11,0.0,0.0,0.0,0.0,0.0,0.0,0.0,0.0,0.0,0.0,0.0,0.0,0.0,0.0,0.0,0.0,0.0,0.0,0.0,0.0,0.0,0.0,0.0,0.0,0.0,0.0,0.0,0.0,0.0,0.0,0.0,0.0,0.0,0.0,0.0,0.0,0.0,0.0,0.0,0.0,0.0,0.0,0.0,0.0,0.0,0.0,0.0,0.0,0.0,0.0,0.0,0.0,0.0,0.0,0.0,0.0,0.0,0.0,0.0,0.0,0.0,0.0,0.0,0.0,0.0,0.0,0.0,0.0,0.0,0.0,0.0,0.0,0.0,0.0,0.0,0.0,0.0,0.0,0.0,0.0,0.0,0.0,0.0,0.0,0.0,0.0,0.0,0.0,0.0,0.0,0.0,0.0,0.0,0.0,0.0,0.0,0.0,0.0,0.0,0.0,0.0,0.0,0.0,0.0,0.0,0.0,0.0,0.0,0.0,2.1125,2.1308,2.1644,2.2149,2.1692,2.1332,0.0,0.0,0.0,0.0,0.0,0.0,0.0,0.0,0.0,0.0,0.0,0.0,0.0,0.0,0.0,0.0,0.0,0.0,0.0,0.0,0.0,0.0,0.0,0.0,0.0,0.0,0.0,0.0,0.0,0.0,0.0,0.0,0.0,0.0,0.0,0.0,0.0,0.0,0.0,0.0,0.0,0.0,0.0,0.0,0.0,0.0,0.0,0.0,0.0,0.0,0.0,0.0,0.0,0.0,0.0,0.0,0.0,0.0,0.0,0.0,0.0,0.0,0.0,0.0,0.0,0.0,0.0,0.0,0.0,0.0,0.0,0.0,0.0,0.0,0.0,0.0,0.0,0.0,0.0,0.0,0.0,0.0,0.0,0.0,0.0,0.0,0.0,0.0,0.0,0.0,0.0,0.0,0.0,0.0,0.0,0.0,0.0,0.0,0.0,0.0,0.0,0.0,0.0,0.0,0.0,0.0,0.0,0.0,0.0,2.227,2.2117,2.2261,2.2791,2.2285,2.1909,2.1677,0.0,0.0,0.0,0.0,0.0,0.0,0.0,0.0,0.0,0.0,0.0,0.0,0.0,0.0,0.0,0.0,0.0,0.0,0.0,0.0,0.0,0.0,0.0,0.0,0.0,0.0,0.0,0.0,0.0,0.0,0.0,0.0,0.0,0.0,0.0,0.0,0.0,0.0,0.0,0.0,0.0,0.0,0.0,0.0,0.0,0.0,0.0,0.0,0.0,0.0,0.0,0.0,0.0,0.0,0.0,0.0,0.0,0.0,0.0,0.0,0.0,0.0,0.0,0.0,0.0,0.0,0.0,0.0,0.0,0.0,0.0,0.0,0.0,0.0,0.0,0.0,0.0,0.0,0.0,0.0,0.0,0.0,0.0,0.0,0.0,0.0,0.0,0.0,0.0,0.0,0.0,0.0,0.0,0.0,0.0,0.0,0.0,0.0,0.0,0.0,0.0,0.0,0.0,0.0,0.0,0.0,0.0,0.0,2.389,2.3392,2.3344,2.377,2.3312,2.2791,0.0,0.0,0.0,0.0,0.0,0.0,0.0,0.0,0.0,0.0,0.0,0.0,0.0,0.0,0.0,0.0,0.0,0.0,0.0,0.0,0.0,0.0,0.0,0.0,0.0,0.0,0.0,0.0,0.0,0.0,0.0,0.0,0.0,0.0,0.0,0.0,0.0,0.0,0.0,0.0,0.0,0.0,0.0,0.0,0.0,0.0,0.0,0.0,0.0,0.0,0.0,0.0,0.0,0.0,0.0,0.0,0.0,0.0,0.0,0.0,0.0,0.0,0.0,0.0,0.0,0.0,0.0,0.0,0.0,0.0,0.0,0.0,0.0,0.0,0.0,0.0,0.0,0.0,0.0,0.0,0.0,0.0,0.0,0.0,0.0,0.0,0.0,0.0,0.0,0.0,0.0,0.0,0.0,0.0,0.0,0.0,0.0,0.0,0.0,0.0,0.0,0.0,0.0,0.0,0.0,0.0,0.0,0.0,0.0,2.486,2.4771,2.4427,2.3842,2.3673,2.336,0.0,0.0,0.0,0.0,0.0,0.0,0.0,0.0,0.0,0.0,0.0,0.0,0.0,0.0,0.0,0.0,0.0,0.0,0.0,0.0,0.0,0.0,0.0,0.0,0.0,0.0,0.0,0.0,0.0,0.0,0.0,0.0,0.0,0.0,0.0,0.0,0.0,0.0,0.0,0.0,0.0,0.0,0.0,0.0,0.0,0.0,0.0,0.0,0.0,0.0,0.0,0.0,0.0,0.0,0.0,0.0,0.0,0.0,0.0,0.0,0.0,0.0,0.0,0.0,0.0,0.0,0.0,0.0,0.0,0.0,0.0,0.0,0.0,0.0,0.0,0.0,0.0,0.0,0.0,0.0,0.0,0.0,0.0,0.0,0.0,0.0,0.0,0.0,0.0,0.0,0.0,0.0,0.0,0.0,0.0,0.0,0.0,0.0,0.0,0.0,0.0,0.0,0.0,0.0,0.0,0.0,0.0,0.0,2.4506,2.5612,2.5859,2.5709,2.5125,2.4668,2.4186,0.0,0.0,0.0,0.0,0.0,0.0,0.0,0.0,0.0,0.0,0.0,0.0,0.0,0.0,0.0,0.0,0.0,0.0,0.0,0.0,0.0,0.0,0.0,0.0,0.0,0.0,0.0,0.0,0.0,0.0,0.0,0.0,0.0,0.0,0.0,0.0,0.0,0.0,0.0,0.0,0.0,0.0,0.0,0.0,0.0,0.0,0.0,0.0,0.0,0.0,0.0,0.0,0.0,0.0,0.0,0.0,0.0,0.0,0.0,0.0,0.0,0.0,0.0,0.0,0.0,0.0,0.0,0.0,0.0,0.0,0.0,0.0,0.0,0.0,0.0,0.0,0.0,0.0,0.0,0.0,0.0,0.0,0.0,0.0,0.0,0.0,0.0,0.0,0.0,0.0,0.0,0.0,0.0,0.0,0.0,0.0,0.0,0.0,0.0,0.0,0.0,0.0,0.0,0.0,0.0,0.0,0.0,0.0,2.5588,2.6166,2.6724,2.697,2.6964,2.5955,2.5114,0.0,0.0,0.0,0.0,0.0,0.0,0.0,0.0,0.0,0.0,0.0,0.0,0.0,0.0,0.0,0.0,0.0,0.0,0.0,0.0,0.0,0.0,0.0,0.0,0.0,0.0,0.0,0.0,0.0,0.0,0.0,0.0,0.0,0.0,0.0,0.0,0.0,0.0,0.0,0.0,0.0,0.0,0.0,0.0,0.0,0.0,0.0,0.0,0.0,0.0,0.0,0.0,0.0,0.0,0.0,0.0,0.0,0.0,0.0,0.0,0.0,0.0,0.0,0.0,0.0,0.0,0.0,0.0,0.0,0.0,0.0,0.0,0.0,0.0,0.0,0.0,0.0,0.0,0.0,0.0,0.0,0.0,0.0,0.0,0.0,0.0,0.0,0.0,0.0,0.0,0.0,0.0,0.0,0.0,0.0,0.0,0.0,0.0,0.0,0.0,0.0,0.0,0.0,0.0,0.0,0.0,0.0,0.0,2.5763,2.6705,2.7253,2.7541,2.7541,2.6502,2.5685,0.0,0.0,0.0,0.0,0.0,0.0,0.0,0.0,0.0,0.0,0.0,0.0,0.0,0.0,0.0,0.0,0.0,0.0,0.0,0.0,0.0,0.0,0.0,0.0,0.0,0.0,0.0,0.0,0.0,0.0,0.0,0.0,0.0,0.0,0.0,0.0,0.0,0.0,0.0,0.0,0.0,0.0,0.0,0.0,0.0,0.0,0.0,0.0,2.3788,0.0,0.0,0.0,0.0,0.0,0.0,0.0,0.0,0.0,0.0,0.0,0.0,0.0,0.0,0.0,0.0,0.0,0.0,0.0,0.0,0.0,0.0,0.0,0.0,0.0,0.0,0.0,0.0,0.0,0.0,0.0,0.0,0.0,0.0,0.0,0.0,0.0,0.0,0.0,0.0,0.0,0.0,0.0,0.0,0.0,0.0,0.0,0.0,0.0,0.0,0.0,0.0,0.0,0.0,0.0,0.0,0.0,0.0,0.0,2.646,2.7253,2.7806,2.807,2.8046,2.7036,2.6219,0.0,0.0,0.0,0.0,0.0,0.0,0.0,0.0,0.0,0.0,0.0,0.0,0.0,0.0,0.0,0.0,0.0,0.0,0.0,0.0,0.0,0.0,0.0,0.0,0.0,0.0,0.0,0.0,0.0,0.0,0.0,0.0,0.0,0.0,0.0,0.0,0.0,0.0,0.0,0.0,0.0,0.0,0.0,0.0,0.0,0.0,0.0,0.0,0.0,0.0,0.0,0.0,0.0,0.0,0.0,0.0,0.0,0.0,0.0,0.0,0.0,0.0,0.0,0.0,0.0,0.0,0.0,0.0,0.0,0.0,0.0,0.0,0.0,0.0,0.0,0.0,0.0,0.0,0.0,0.0,0.0,0.0,0.0,0.0,0.0,0.0,0.0,0.0,0.0,0.0,0.0,0.0,0.0,0.0,0.0,0.0,0.0,0.0,0.0,0.0,0.0,0.0,0.0,0.0,0.0,0.0,0.0,2.6364,2.7181,2.7685,2.8214,2.8522,2.8478,2.7469,2.6681,2.6214,0.0,0.0,0.0,0.0,0.0,0.0,0.0,0.0,0.0,0.0,0.0,0.0,0.0,0.0,0.0,0.0,0.0,0.0,0.0,0.0,0.0,0.0,0.0,0.0,0.0,0.0,0.0,0.0,0.0,0.0,0.0,0.0,0.0,0.0,0.0,0.0,0.0,0.0,2.2515,2.3691,0.0,0.0,0.0,0.0,0.0,0.0,0.0,0.0,2.4761,0.0,0.0,0.0,0.0,0.0,0.0,0.0,0.0,0.0,0.0,0.0,0.0,0.0,0.0,0.0,0.0,0.0,0.0,0.0,0.0,0.0,0.0,0.0,0.0,0.0,0.0,0.0,0.0,0.0,0.0,0.0,0.0,0.0,0.0,0.0,0.0,0.0,0.0,0.0,0.0,0.0,0.0,0.0,0.0,0.0,0.0,0.0,0.0,0.0,0.0,0.0,0.0,0.0,0.0,0.0,0.0,2.5282,2.6345,2.7181,2.7685,2.8234,2.8522,2.8474,2.745,2.6849,2.67,0.0,0.0,0.0,0.0,0.0,0.0,0.0,0.0,0.0,0.0,0.0,0.0,0.0,0.0,0.0,0.0,0.0,0.0,0.0,0.0,0.0,0.0,0.0,0.0,0.0,0.0,0.0,0.0,0.0,0.0,0.0,0.0,0.0,0.0,0.0,0.0,0.0,0.0,0.0,2.4285,2.506,0.0,0.0,0.0,0.0,0.0,0.0,0.0,0.0,2.4247,0.0,0.0,0.0,0.0,0.0,0.0,0.0,0.0,0.0,0.0,0.0,0.0,0.0,0.0,0.0,0.0,0.0,0.0,0.0,0.0,0.0,0.0,0.0,0.0,0.0,0.0,0.0,0.0,0.0,0.0,0.0,0.0,0.0,0.0,0.0,0.0,0.0,0.0,0.0,0.0,0.0,0.0,0.0,0.0,0.0,0.0,0.0,0.0,0.0,0.0,0.0,0.0,0.0,0.0,0.0,2.6051,2.6652,2.7282,2.807,2.8358,2.8522,2.8498,2.7733,2.7186,0.0,0.0,0.0,0.0,0.0,0.0,0.0,0.0,0.0,0.0,0.0,0.0,0.0,0.0,0.0,0.0,0.0,0.0,0.0,0.0,0.0,0.0,0.0,0.0,0.0,0.0,0.0,0.0,0.0,0.0,0.0,0.0,0.0,0.0,0.0,0.0,0.0,0.0,0.0,0.0,2.4963,2.5552,2.6227,0.0,0.0,0.0,0.0,0.0,0.0,2.5893,2.5384,0.0,0.0,0.0,0.0,0.0,0.0,0.0,0.0,0.0,0.0,0.0,0.0,0.0,0.0,0.0,0.0,0.0,0.0,0.0,0.0,0.0,0.0,0.0,0.0,0.0,0.0,0.0,0.0,0.0,0.0,0.0,0.0,0.0,0.0,0.0,0.0,0.0,0.0,0.0,0.0,0.0,0.0,0.0,0.0,0.0,0.0,0.0,0.0,0.0,0.0,0.0,0.0,0.0,0.0,0.0,2.6825,2.6994,2.7589,2.8599,2.8647,2.8667,2.8667,2.8142,2.7565,0.0,0.0,0.0,0.0,0.0,0.0,0.0,0.0,0.0,0.0,0.0,0.0,0.0,0.0,0.0,0.0,0.0,0.0,0.0,0.0,0.0,0.0,0.0,0.0,0.0,0.0,0.0,0.0,0.0,0.0,0.0,0.0,0.0,0.0,0.0,0.0,0.0,0.0,0.0,0.0,0.0,2.601,2.6884,2.6928,0.0,0.0,0.0,0.0,2.7378,2.7017,0.0,0.0,0.0,0.0,0.0,0.0,0.0,0.0,0.0,0.0,0.0,0.0,0.0,0.0,0.0,0.0,0.0,0.0,0.0,0.0,0.0,0.0,0.0,0.0,0.0,0.0,0.0,0.0,0.0,0.0,0.0,0.0,0.0,0.0,0.0,0.0,0.0,0.0,0.0,0.0,0.0,0.0,0.0,0.0,0.0,0.0,0.0,0.0,0.0,0.0,0.0,0.0,0.0,0.0,0.0,0.0,2.6849,2.7373,2.8118,2.9148,2.9196,2.922,2.9196,2.8671,2.7926,0.0,0.0,0.0,0.0,0.0,0.0,0.0,0.0,0.0,0.0,0.0,0.0,0.0,0.0,0.0,0.0,0.0,0.0,0.0,0.0,0.0,0.0,0.0,0.0,0.0,0.0,0.0,0.0,0.0,0.0,0.0,0.0,0.0,0.0,0.0,0.0,0.0,0.0,0.0,0.0,0.0,2.6278,2.6916,2.7249,2.736,0.0,0.0,2.7173,2.701,2.6925,0.0,0.0,0.0,0.0,0.0,0.0,0.0,0.0,0.0,0.0,0.0,0.0,0.0,0.0,0.0,0.0,0.0,0.0,0.0,0.0,0.0,0.0,0.0,0.0,0.0,0.0,0.0,0.0,0.0,0.0,0.0,0.0,0.0,0.0,0.0,0.0,0.0,0.0,0.0,0.0,0.0,0.0,0.0,0.0,0.0,0.0,0.0,0.0,0.0,0.0,0.0,0.0,0.0,0.0,0.0,2.5595,2.6873,2.7733,2.8526,2.9268,2.9581,2.9749,2.9749,2.9244,2.843,0.0,0.0,0.0,0.0,0.0,0.0,0.0,0.0,0.0,0.0,0.0,0.0,0.0,0.0,0.0,0.0,0.0,0.0,0.0,0.0,0.0,0.0,0.0,0.0,0.0,0.0,0.0,0.0,0.0,0.0,0.0,0.0,0.0,0.0,0.0,0.0,0.0,0.0,0.0,0.0,0.0,0.0,2.7471,2.7851,0.0,0.0,0.0,2.8815,2.8715,0.0,0.0,0.0,0.0,0.0,0.0,0.0,0.0,0.0,0.0,0.0,0.0,0.0,0.0,0.0,0.0,0.0,0.0,0.0,0.0,0.0,0.0,0.0,0.0,0.0,0.0,0.0,0.0,0.0,0.0,0.0,0.0,0.0,0.0,0.0,0.0,0.0,0.0,0.0,0.0,0.0,0.0,0.0,0.0,0.0,0.0,0.0,0.0,0.0,0.0,0.0,0.0,0.0,0.0,0.0,0.0,0.0,2.7301,2.8214,2.9027,2.9677,3.0086,3.0299,3.0299,2.9773,0.0,0.0,0.0,0.0,0.0,0.0,0.0,0.0,0.0,0.0,0.0,0.0,0.0,0.0,0.0,0.0,0.0,0.0,0.0,0.0,0.0,0.0,0.0,0.0,0.0,0.0,0.0,2.1571,0.0,0.0,0.0,0.0,0.0,0.0,0.0,0.0,0.0,0.0,0.0,0.0,0.0,0.0,2.7457,2.811,2.8593,2.9051,0.0,0.0,3.0086,3.0086,2.9436,2.8907,0.0,0.0,0.0,0.0,0.0,0.0,0.0,0.0,0.0,0.0,0.0,0.0,0.0,0.0,0.0,0.0,0.0,0.0,0.0,0.0,0.0,0.0,0.0,0.0,0.0,0.0,0.0,0.0,0.0,0.0,0.0,0.0,0.0,0.0,0.0,0.0,0.0,0.0,0.0,0.0,0.0,0.0,0.0,0.0,0.0,0.0,0.0,0.0,0.0,0.0,0.0,0.0,0.0,0.0,2.6815,2.8354,2.8955,2.9749,3.0756,3.0829,3.0853,3.0829,3.0323,2.9532,0.0,0.0,0.0,0.0,0.0,0.0,0.0,0.0,0.0,0.0,0.0,0.0,0.0,0.0,0.0,0.0,0.0,0.0,0.0,0.0,0.0,0.0,0.0,0.0,0.0,0.0,0.0,0.0,0.0,0.0,0.0,0.0,0.0,0.0,0.0,0.0,0.0,0.0,0.0,0.0,0.0,2.8674,2.8752,2.9463,3.001,0.0,3.0083,3.0086,3.011,3.0037,2.9986,3.001,0.0,0.0,0.0,0.0,0.0,0.0,0.0,0.0,0.0,0.0,0.0,0.0,0.0,0.0,0.0,0.0,0.0,0.0,0.0,0.0,0.0,0.0,0.0,0.0,0.0,0.0,0.0,0.0,0.0,0.0,0.0,0.0,0.0,0.0,0.0,0.0,0.0,0.0,0.0,0.0,0.0,0.0,0.0,0.0,0.0,0.0,0.0,0.0,0.0,0.0,0.0,0.0,0.0,2.7541,2.8498,3.001,3.0973,3.1382,3.2032,3.2224,3.1889,3.1358,3.0419,0.0,0.0,0.0,0.0,0.0,0.0,0.0,0.0,0.0,0.0,0.0,0.0,0.0,0.0,0.0,0.0,0.0,0.0,0.0,0.0,0.0,0.0,0.0,0.0,0.0,0.0,0.0,0.0,2.4054,2.4442,2.4322,0.0,0.0,0.0,0.0,0.0,0.0,0.0,0.0,0.0,0.0,2.9104,2.9991,3.0655,0.0,0.0,3.1841,3.208,3.208,3.1394,3.083,3.083,2.9867,0.0,0.0,0.0,0.0,0.0,0.0,0.0,0.0,0.0,0.0,0.0,0.0,0.0,0.0,0.0,0.0,0.0,0.0,0.0,0.0,0.0,0.0,0.0,0.0,0.0,0.0,0.0,0.0,0.0,0.0,0.0,0.0,0.0,0.0,0.0,0.0,0.0,0.0,0.0,0.0,0.0,0.0,0.0,0.0,0.0,0.0,0.0,0.0,0.0,0.0,0.0,0.0,2.8378,2.922,3.0853,3.1886,3.2199,3.2922,3.3116,3.2731,3.2056,3.1165,0.0,0.0,0.0,0.0,0.0,0.0,0.0,0.0,0.0,0.0,0.0,0.0,0.0,0.0,0.0,0.0,0.0,0.0,0.0,0.0,0.0,0.0,0.0,0.0,0.0,0.0,0.0,0.0,2.4668,2.4954,2.4938,0.0,0.0,0.0,0.0,0.0,0.0,0.0,0.0,0.0,0.0,2.9911,3.0865,3.1542,3.2072,3.2454,3.2812,3.3075,3.3051,3.2269,3.1658,3.1634,0.0,0.0,0.0,0.0,0.0,0.0,0.0,0.0,0.0,0.0,0.0,0.0,0.0,0.0,0.0,0.0,0.0,0.0,0.0,0.0,0.0,0.0,0.0,0.0,0.0,0.0,0.0,0.0,0.0,0.0,2.2522,0.0,0.0,0.0,0.0,0.0,0.0,0.0,0.0,0.0,0.0,0.0,0.0,0.0,0.0,0.0,0.0,0.0,0.0,0.0,0.0,0.0,0.0,2.9268,3.0829,3.143,3.2224,3.3212,3.3284,3.3308,3.326,3.2273,3.1695,3.1621,0.0,0.0,0.0,0.0,0.0,0.0,0.0,0.0,0.0,0.0,0.0,0.0,0.0,0.0,0.0,0.0,0.0,0.0,0.0,0.0,0.0,0.0,0.0,0.0,0.0,0.0,2.4816,2.5112,2.5466,0.0,0.0,0.0,0.0,0.0,0.0,0.0,0.0,0.0,0.0,3.0217,3.1247,3.1318,3.1991,3.2512,3.2559,3.2583,3.2559,3.2582,3.2535,3.2489,0.0,0.0,0.0,0.0,0.0,0.0,0.0,0.0,0.0,0.0,0.0,0.0,0.0,0.0,0.0,0.0,0.0,0.0,0.0,0.0,0.0,0.0,0.0,0.0,0.0,0.0,0.0,2.6253,2.5965,0.0,0.0,0.0,0.0,0.0,0.0,0.0,0.0,0.0,0.0,0.0,2.7708,2.7593,0.0,0.0,0.0,0.0,0.0,0.0,0.0,0.0,0.0,0.0,0.0,0.0,3.0179,3.1406,3.2635,3.3405,3.3766,3.4102,3.4102,3.3766,3.3405,3.2755,3.1719,0.0,0.0,0.0,0.0,0.0,0.0,0.0,0.0,0.0,0.0,0.0,0.0,0.0,0.0,0.0,0.0,0.0,0.0,0.0,0.0,0.0,0.0,0.0,0.0,0.0,2.5393,0.0,0.0,0.0,0.0,0.0,0.0,0.0,0.0,0.0,0.0,0.0,2.9654,3.0369,3.1109,3.1945,3.296,3.3191,3.3463,0.0,0.0,0.0,0.0,0.0,0.0,0.0,0.0,0.0,0.0,0.0,0.0,0.0,0.0,3.0221,2.9308,2.8967,2.8877,2.8991,0.0,0.0,0.0,0.0,0.0,0.0,0.0,0.0,0.0,0.0,0.0,0.0,0.0,0.0,2.8009,0.0,2.7062,0.0,0.0,0.0,0.0,0.0,0.0,0.0,0.0,2.8198,2.8677,2.9524,2.9594,2.9625,0.0,2.9625,2.8903,0.0,0.0,0.0,0.0,0.0,0.0,0.0,0.0,3.119,3.2248,3.3405,3.4198,3.4559,3.4727,3.4727,3.4534,3.4174,3.3357,3.2008,3.0759,2.9797,0.0,0.0,0.0,0.0,0.0,0.0,0.0,0.0,0.0,0.0,0.0,0.0,0.0,0.0,0.0,0.0,0.0,0.0,0.0,0.0,0.0,0.0,0.0,2.63,0.0,0.0,0.0,0.0,0.0,0.0,0.0,0.0,0.0,2.9001,2.9629,3.0501,3.1564,3.1996,3.2648,3.3811,0.0,0.0,0.0,0.0,0.0,0.0,0.0,3.3324,3.3324,3.2901,3.2594,3.2491,3.2106,3.1793,3.161,0.0,0.0,3.0299,3.0111,3.0111,3.0015,2.9991,2.9919,2.963,2.9998,3.0358,0.0,0.0,0.0,0.0,0.0,0.0,0.0,0.0,2.9777,2.9361,0.0,2.8114,0.0,0.0,0.0,0.0,0.0,2.7876,0.0,0.0,3.0001,3.0446,3.0997,3.1478,3.1765,3.1743,3.1719,3.1717,3.1597,2.9629,0.0,0.0,0.0,0.0,0.0,0.0,3.2273,3.3331,3.3838,3.4583,3.5544,3.5135,3.5087,3.552,3.4583,3.3573,3.2611,3.2032,3.1238,3.0182,2.9172,0.0,0.0,0.0,0.0,0.0,0.0,0.0,0.0,0.0,0.0,0.0,0.0,0.0,0.0,0.0,0.0,0.0,0.0,0.0,0.0,2.6906,0.0,0.0,0.0,0.0,0.0,0.0,0.0,0.0,0.0,0.0,2.9587,3.0333,3.1339,3.2324,0.0,0.0,0.0,0.0,3.3781,3.3506,3.3431,3.3346,3.3073,3.3046,3.3046,3.3024,0.0,0.0,3.269,3.2154,3.1799,3.1751,3.1574,3.1398,3.1538,3.146,3.1347,3.112,3.1043,3.103,3.0813,3.1079,3.136,3.1576,0.0,0.0,0.0,0.0,3.1489,3.1779,3.1632,3.1568,3.1427,3.1209,3.0253,0.0,0.0,0.0,0.0,0.0,0.0,3.0287,3.1619,3.1767,3.2082,3.2587,3.2778,3.285,3.285,3.285,3.285,3.2826,3.2226,3.1551,3.0826,0.0,0.0,0.0,0.0,3.3332,3.4342,3.4871,3.5472,3.617,3.6026,3.5833,3.5617,3.4943,3.427,3.3597,3.3092,3.2345,3.1308,3.097,0.0,0.0,0.0,0.0,0.0,0.0,0.0,0.0,0.0,0.0,0.0,0.0,0.0,0.0,0.0,0.0,0.0,0.0,0.0,2.7353,2.7907,2.8269,0.0,0.0,0.0,0.0,0.0,0.0,0.0,0.0,0.0,3.153,3.2094,3.2773,0.0,0.0,3.378,3.4088,3.3967,3.3841,3.3938,3.3813,0.0,3.3253,3.369,3.3968,3.3629,3.3862,3.3872,3.3323,3.3119,3.2916,3.2741,3.2644,3.2601,3.2576,3.1906,3.138,3.1291,3.1467,3.1587,3.1354,3.1628,3.1956,3.3865,3.2985,3.2593,3.2197,3.1917,3.2668,3.2926,3.2814,3.2747,3.2702,3.2654,3.178,3.1436,3.1387,3.049,0.0,0.0,0.0,3.1673,3.2827,3.3213,3.3597,3.3909,3.4318,3.4535,3.4535,3.4511,3.4535,3.4511,3.4535,3.4198,3.3548,0.0,0.0,3.3404,3.3741,3.439,3.54,3.5761,3.6194,3.6699,3.6699,3.6459,3.5904,3.54,3.4967,3.4631,3.3958,3.3284,3.2658,3.2032,3.1117,0.0,0.0,0.0,0.0,0.0,0.0,0.0,0.0,0.0,0.0,0.0,2.5065,2.5483,0.0,0.0,0.0,2.7353,2.7999,2.863,2.9042,0.0,0.0,0.0,0.0,0.0,0.0,0.0,3.1442,3.1914,3.2444,3.3027,3.3313,3.3611,3.4113,3.4007,3.3962,3.4285,0.0,3.3798,3.3836,3.3747,3.3579,3.3284,3.3628,3.3859,3.3561,3.3726,3.3763,3.3225,3.3035,3.2855,3.2583,3.2391,3.233,3.23,3.1712,3.142,3.1897,3.2195,3.2321,3.214,3.2217,3.2303,3.6122,3.5521,3.3993,3.3344,3.3346,3.3678,3.3828,3.3804,3.3618,3.3572,3.3501,3.2971,3.2731,3.2659,3.2176,0.0,3.2755,3.2755,3.3044,3.3573,3.4511,3.4919,3.4991,3.593,3.6411,3.6386,3.6411,3.6411,3.6386,3.6361,3.6385,3.6288,3.4438,3.3958,3.4895,3.4919,3.5424,3.6459,3.6459,3.6723,3.7252,3.7276,3.7012,3.6483,3.6002,3.5688,3.5593,3.4631,3.4078,3.3958,3.2635,3.1837,3.1647,0.0,0.0,0.0,0.0,0.0,0.0,0.0,0.0,0.0,0.0,0.0,0.0,0.0,0.0,0.0,2.8984,0.0,2.9849,3.0349,0.0,0.0,0.0,3.1041,3.1087,3.1425,3.1891,3.2389,0.0,0.0,3.4031,3.3934,3.4005,3.4519,3.4169,3.3987,3.441,3.4082,3.3684,3.3329,3.337,3.3316,3.2975,3.3025,3.3095,3.3115,3.3095,3.2984,3.2681,3.2377,3.2021,3.1815,3.1439,3.1273,3.1224,3.1297,3.1574,3.2753,3.2955,3.2955,3.2855,3.2673,3.2459,3.6338,3.617,3.5764,3.5379,3.5041,3.5523,3.5716,3.5716,3.569,3.5665,3.5617,3.5112,3.4631,3.4246,3.4102,3.4366,3.4847,3.4871,3.516,3.5665,3.5905,3.6001,3.6025,3.629,3.6411,3.6411,3.6411,3.6411,3.6411,3.6207,3.6105,3.6081,3.54,3.5383,3.6001,3.6026,3.6362,3.6988,3.7012,3.7276,3.7757,3.7832,3.7541,3.7012,3.6892,3.6435,3.5616,3.5376,3.4847,3.403,3.3645,3.2923,3.1765,3.1214,0.0,0.0,0.0,0.0,0.0,0.0,0.0,0.0,0.0,2.7405,2.7627,0.0,2.9097,0.0,3.0702,3.1367,3.1239,3.1712,0.0,0.0,3.1988,3.2184,3.2529,3.2501,3.2557,3.2836,3.3105,3.3361,3.3688,3.3792,3.3989,3.4452,3.4332,3.4168,3.4127,3.4039,3.3683,3.3023,3.2907,3.271,3.2266,3.2347,3.263,3.291,3.2949,3.2843,3.2497,3.2371,3.2308,3.2232,3.215,3.2106,3.2074,3.2087,3.215,3.2478,3.2342,3.208,3.2099,3.2298,3.2434,3.7829,3.7829,3.7803,3.7515,3.6986,3.6579,3.6411,3.6411,3.6411,3.6411,3.6386,3.6098,3.5784,3.552,3.5496,3.5664,3.5954,3.5928,3.6122,3.6411,3.6651,3.6747,3.6771,3.6988,3.7108,3.7108,3.7002,3.695,3.6924,3.664,3.6483,3.6483,3.6349,3.6428,3.6692,3.6504,3.6725,3.7381,3.7488,3.7711,3.7976,3.8,3.7856,3.7567,3.7326,3.6819,3.6002,3.5712,3.5208,3.4414,3.4126,3.3621,3.2779,3.2274,3.1575,0.0,0.0,0.0,0.0,0.0,0.0,0.0,0.0,0.0,0.0,0.0,3.0353,3.0769,3.1894,3.2441,3.2065,3.2691,3.3002,3.2758,3.2783,3.2913,3.3059,3.3209,3.3285,3.3294,3.3591,3.3819,3.3778,3.3739,3.3806,3.415,3.4125,3.401,3.3813,3.3597,3.3234,3.2796,3.2618,3.2471,3.2112,3.2207,3.2409,3.2619,3.2676,3.2581,3.223,3.2166,3.219,3.2198,3.2222,3.2278,3.2446,3.2483,3.2483,3.2464,3.2315,3.2239,3.2307,3.2526,3.2711,3.9609,3.9609,3.9609,3.9317,3.8788,3.7421,3.6747,3.6603,3.6603,3.6603,3.6603,3.6552,3.6552,3.6552,3.6501,3.6475,3.6475,3.6475,3.6501,3.6525,3.6954,3.7196,3.7196,3.7652,3.7868,3.7868,3.7649,3.7542,3.7542,3.7197,3.7039,3.7062,3.7082,3.7102,3.7052,3.6728,3.6864,3.7542,3.7759,3.7868,3.7868,3.7892,3.7868,3.787,3.7436,3.6932,3.6429,3.5901,3.5349,3.4821,3.4294,3.3983,3.3887,3.3072,3.2352,0.0,3.1366,0.0,0.0,0.0,0.0,0.0,0.0,0.0,0.0,3.1385,3.1731,3.1949,3.2839,3.318,3.2639,3.3338,3.3656,3.3257,3.336,3.3375,3.3215,3.367,3.3898,3.3671,3.4043,3.42,3.3994,3.3686,3.3548,3.3728,3.3717,3.3576,3.3367,3.3067,3.284,3.2634,3.2428,3.2205,3.2192,3.23,3.2356,3.2356,3.2418,3.2316,3.2083,3.2018,3.2014,3.2081,3.2107,3.2217,3.2533,3.257,3.257,3.2566,3.2636,3.2711,3.2857,3.2903,3.3036,3.9609,3.9609,3.9609,3.9537,3.9441,3.9128,3.8503,3.7711,3.7711,3.7711,3.7685,3.7472,3.7366,3.734,3.7077,3.6971,3.6971,3.6971,3.6971,3.6971,3.7065,3.7136,3.7112,3.7207,3.7277,3.7254,3.7224,3.7197,3.7197,3.6928,3.6793,3.6766,3.6938,3.7036,3.7036,0.0,0.0,0.0,3.7251,3.7254,3.7254,3.7254,3.7254,3.7277,3.7183,0.0,3.6407,3.5913,3.5345,3.4825,3.4329,0.0,0.0,0.0,0.0,0.0,0.0,0.0,0.0,0.0,0.0,0.0,3.2795,3.2771,3.1686,3.2748,3.3469,3.3507,3.4058,3.4197,3.3675,3.3522,3.3546,3.3648,3.378,3.3907,3.4033,3.4025,3.3988,3.395,3.3621,3.3527,3.3761,3.3547,3.3389,3.3422,3.3238,3.2966,3.2681,3.2971,3.2922,3.2213,3.1859,3.1621,3.157,3.1898,3.2152,3.2106,3.2364,3.2497,3.2464,3.2431,3.2449,3.2478,3.2496,3.2496,3.2606,3.2606,3.2609,3.2606,3.2829,3.3007,3.2736,3.27,3.2688,4.0379,0.0,4.0379,4.0234,0.0,3.9994,3.9454,3.855,3.8737,3.8686,3.8523,3.8247,3.8134,3.8111,3.7691,3.7492,3.7519,3.7492,3.7492,3.7492,3.7774,3.7892,3.7892,3.7892,3.7892,3.7892,3.7703,3.7566,3.7428,3.7123,3.6924,3.6762,3.6844,3.6895,3.6895,3.7173,3.7404,3.7621,3.7809,3.7892,3.7892,3.7633,3.7492,3.7469,0.0,0.0,0.0,0.0,0.0,0.0,0.0,0.0,0.0,0.0,0.0,3.3662,3.3639,3.3473,3.3094,3.3133,3.315,3.3052,3.3618,3.3733,3.3222,3.392,3.4224,3.3931,3.4249,3.428,3.3901,3.3972,3.4062,3.4065,3.4019,3.4054,3.4131,3.3994,3.3901,3.3881,3.3527,3.3367,3.3565,3.3168,3.287,3.2892,3.2772,3.2593,3.2488,3.2535,3.2446,3.2009,3.1819,3.1763,3.1964,3.2129,3.2294,3.2331,3.2459,3.2588,3.2606,3.2606,3.2661,3.2811,3.2746,3.2666,3.2884,3.2802,3.2647,3.2665,3.2827,3.2918,3.2701,3.2802,3.2973,4.1196,4.1196,4.1196,4.0903,4.0462,4.0438,4.0029,3.9295,0.0,0.0,0.0,3.8746,3.8606,3.8559,3.811,3.7871,3.7871,3.7871,3.7871,3.7895,3.8283,3.8437,3.8437,3.8409,3.8381,3.8353,3.8076,3.7849,3.7599,3.7337,3.708,3.6822,3.6889,3.6949,3.6981,3.6952,3.727,3.8017,3.8253,3.8358,3.833,3.7845,3.7593,3.7566,3.7076,3.6633,3.6237,3.6147,3.5888,3.5442,3.5326,3.5305,3.5305,3.5279,3.5093,3.4671,3.4625,3.4363,3.3719,3.381,3.3853,3.3714,3.3858,3.4162,3.4637,3.4637,3.4468,3.4142,3.4223,3.4213,3.4025,3.4331,3.4488,3.427,3.4084,3.3946,3.3957,3.3832,3.3726,3.3673,3.3403,3.3267,3.3294,3.2868,3.2541,3.2534,3.2609,3.2485,3.2488,3.2311,3.2171,3.2136,3.2111,3.2221,3.2496,3.2561,3.2579,3.2564,3.2603,3.2606,3.2606,3.264,3.2752,3.2993,3.2824,3.2778,3.3066,3.2893,3.2737,3.279,3.2808,3.2843,3.2896,3.309,3.3265,4.1196,4.1196,4.1196,4.1004,4.0645,4.0645,4.0424,3.9998,3.9179,3.8802,3.8723,3.8414,3.8273,3.8273,3.7955,3.7819,3.7819,3.7819,3.7819,0.0,3.7599,3.7503,3.7503,3.7223,3.708,3.708,3.7023,3.6994,3.6937,3.6879,3.6828,3.686,3.7253,3.7561,3.7695,3.7448,3.7388,3.7515,3.7218,3.708,3.7057,3.6613,3.6342,3.6319,3.5919,3.5621,3.5558,3.5102,3.4832,3.4737,3.4381,3.4155,3.4155,3.4178,3.4084,3.4039,3.4016,3.3967,3.3851,3.3866,3.3958,3.4097,3.4127,3.4279,3.4603,3.4414,3.4471,3.4925,3.4751,3.4683,3.4802,3.4395,3.4096,3.4049,3.3911,3.3831,3.3821,3.3596,3.3446,3.3434,3.2905,3.272,3.3005,3.2965,3.287,3.2955,3.2894,3.2854,3.2644,3.2526,3.2508,3.2496,3.2514,3.2533,3.2597,3.2595,3.2589,3.2591,3.2655,3.2661,3.2678,3.2678,3.2732,3.2769,3.2752,3.2718,3.2807,3.2754,3.2808,3.3056,3.3127,3.3215,3.3409,3.3389,3.33,4.1343,4.1319,4.0859,4.0595,4.0421,4.0275,4.01,3.9931,3.9291,3.911,3.9249,3.8937,3.877,3.877,3.8206,3.7976,3.7976,3.7774,3.7694,3.7688,3.7866,3.7913,3.7862,3.7715,3.7656,3.7656,3.748,3.731,3.7133,3.6956,3.6748,3.6622,3.6839,3.6997,3.7071,3.692,3.6859,3.6859,3.7027,3.7133,3.7133,3.664,3.6243,3.5978,3.5684,3.5391,3.5174,3.5089,3.5037,3.5037,3.4835,3.4724,3.4701,3.4724,3.4642,3.4507,3.4507,3.4403,3.4218,3.4296,3.431,3.4248,3.4508,3.461,3.4531,3.4491,3.4665,3.502,3.462,3.4362,3.4446,3.4129,3.3881,3.3881,3.3706,3.3593,3.3559,3.3338,3.3194,3.3181,3.2952,3.2866,3.3035,3.2908,3.2799,3.2803,3.2854,3.2765,3.2614,3.2643,3.2663,3.2634,3.2614,3.2621,3.2631,3.2639,3.266,3.266,3.2682,3.2701,3.2684,3.2684,3.2684,3.2684,3.2685,3.2685,3.2702,3.27,3.2767,3.2888,3.2975,3.3044,3.3146,3.3228,3.3228,4.1567,4.149,4.0852,4.0517,4.0405,4.0041,3.9817,3.9729,3.9354,3.9279,3.9449,3.9279,3.9167,3.9115,3.8455,3.8179,3.815,3.7893,3.7775,3.782,3.806,3.8178,3.8148,3.8028,3.7961,3.7931,3.769,3.7426,3.7162,3.692,3.6615,3.63,3.6208,3.6147,3.6034,3.5972,3.5963,3.5993,3.6462,3.6889,3.7162,3.6676,3.6242,3.5873,3.5627,3.5325,3.5025,3.5206,3.5318,3.5318,3.529,3.5318,3.5318,3.529,3.5206,3.5031,3.5003,3.4868,3.4558,3.4604,3.4502,3.4167,3.4454,3.4568,3.4363,3.4446,3.4596,3.4728,3.4286,3.3998,3.4072,3.3852,3.3704,3.3693,3.3477,3.3301,3.3276,3.314,3.303,3.3035,3.3034,3.2988,3.3066,3.2902,3.279,3.2801,3.2695,3.2618,3.2637,3.2663,3.2681,3.2536,3.2567,3.264,3.2701,3.2614,3.2526,3.2561,3.2491,3.2386,3.2404,3.2474,3.2562,3.2544,3.2629,3.2677,3.2675,3.2667,3.2728,3.2885,3.2919,3.2934,3.3071,3.3295,3.3292,4.1781,4.1781,4.1627,4.1476,4.1057,4.0391,3.9907,3.959,3.9076,3.8716,3.8634,3.8745,3.8841,3.8812,3.8522,3.835,3.832,3.8343,3.8291,3.8171,3.7714,3.7517,3.7456,3.6911,3.6575,3.6606,3.6575,3.6545,3.6484,3.6423,3.627,3.5942,3.5634,3.5325,3.5046,3.4766,3.461,3.4579,3.4641,3.5263,3.6401,3.6015,3.5759,3.5695,3.5277,3.5051,3.4944,3.5037,3.5045,3.5016,3.5024,3.5024,3.5024,3.5045,3.5016,3.4965,3.4965,3.484,3.4526,3.453,3.4235,3.3662,3.3694,3.3779,3.3842,3.3872,3.4004,3.4146,3.3994,3.3952,3.4273,3.3811,3.3442,3.3469,3.3226,3.3036,3.306,3.3068,3.3099,3.3099,3.2892,3.2768,3.3117,3.3088,3.3132,3.3093,3.2784,3.2594,3.2577,3.2596,3.2491,3.2298,3.2421,3.2648,3.2596,3.2368,3.2193,3.2158,3.1929,3.1858,3.1927,3.2098,3.218,3.2394,3.2526,3.273,3.2747,3.2689,3.2844,3.3135,3.3237,3.3306,3.3576,3.3679,3.3597,4.1969,4.1945,4.1421,4.1015,4.0663,4.0357,4.0045,3.9685,3.9505,3.9301,3.9201,3.8934,3.8714,3.8537,3.8238,3.7998,3.7818,3.7629,3.7396,3.7214,3.6941,3.6798,3.6789,3.6545,3.63,3.6086,3.5932,3.5716,3.551,3.5294,3.5139,3.5015,3.4859,3.4735,3.461,3.4454,3.4392,3.4392,3.4392,3.4673,3.5118,3.5016,3.482,3.4603,3.4548,3.439,3.4161,3.4289,3.4407,3.4407,3.4407,3.4407,3.4407,3.4407,3.4298,3.414,3.3962,3.3813,3.3664,3.391,3.3983,3.366,3.3923,3.3899,3.3613,3.357,3.3556,3.3489,3.3521,3.3717,3.4049,3.3565,3.3264,3.3448,3.3227,3.3058,3.3077,3.3118,3.3157,3.3142,3.3243,3.3255,3.3231,3.3026,3.2924,3.2893,3.2596,3.2368,3.2333,3.221,3.1999,3.1876,3.1947,3.2035,3.207,3.1912,3.1841,3.1805,3.1871,3.1885,3.1953,3.221,3.245,3.245,3.2792,3.3052,3.3069,3.3237,3.3405,3.358,3.3614,3.3665,3.3782,3.3799,3.3713,4.2109,4.1907,4.1219,4.0779,4.0539,4.0403,4.0172,3.986,3.9632,3.9472,3.9316,3.8775,3.8404,3.8191,3.7841,3.7562,3.7297,3.6945,3.6575,3.627,3.6178,3.6086,3.5972,3.588,3.5747,3.5479,3.5232,3.4984,3.4766,3.4548,3.436,3.4298,3.4267,3.4173,3.4016,3.3985,3.3953,3.3859,3.3859,3.3859,3.3859,3.3859,3.3908,3.395,3.4156,3.4085,3.376,3.4002,3.4102,3.4102,3.4123,3.4123,3.4123,3.4123,3.4002,3.377,3.3548,3.3386,3.3204,3.3503,3.3621,3.3486,3.38,3.3816,3.3422,3.3392,3.336,3.3253,3.3289,3.3476,3.374,3.3361,3.3185,3.3435,3.3229,3.3122,3.314,3.3274,3.336,3.3276,3.3424,3.3539,3.3191,3.2789,3.2544,3.2474,3.2228,3.1965,3.1964,3.1857,3.1783,3.1766,3.1835,3.1869,3.1783,3.1783,3.1766,3.1937,3.2141,3.2278,3.2277,3.2604,3.2844,3.2895,3.324,3.3391,3.3426,3.3628,3.3765,3.3799,3.3799,3.3782,3.3799,3.3799,3.3799,4.2102,4.1793,4.1441,4.1213,4.1181,4.071,4.0319,3.9939,3.9236,3.8702,3.8462,3.805,3.7859,3.7858,3.7369,3.7135,3.7071,3.6678,3.6293,3.5954,3.5655,3.5283,3.4953,3.4641,3.4506,3.4638,3.4575,3.4472,3.4401,3.4381,3.4235,3.3922,3.3859,3.3576,3.3102,3.3038,3.2835,3.2676,3.2645,3.2549,3.2549,3.2549,3.3165,3.4113,3.4352,3.4249,3.426,3.4342,3.4322,3.4342,3.4271,3.4322,3.4342,3.4322,3.424,3.426,3.426,3.3999,3.3466,3.341,3.3197,3.2715,3.3007,3.3106,3.3125,3.3325,3.3506,3.3553,3.3246,3.3279,3.3572,3.3321,3.3121,3.3215,3.3228,3.3209,3.3193,3.347,3.3588,3.3329,3.3242,3.3122,3.2789,3.2403,3.221,3.2157,3.1893,3.1698,3.182,3.1919,3.2037,3.2176,3.233,3.2501,3.221,3.2107,3.2261,3.2398,3.2484,3.2692,3.2792,3.2946,3.3155,3.3343,3.3528,3.3662,3.3748,3.3782,3.3799,3.3799,3.3799,3.3799,3.3799,3.3799,3.3799,4.1604,4.1454,4.1348,4.1057,4.0647,4.0416,4.006,3.9509,3.9207,3.898,3.8764,3.8297,3.8056,3.8035,3.7068,3.6761,3.6875,3.6718,3.6339,3.5811,3.5651,3.5524,3.5428,3.53,3.4979,3.4626,3.4593,3.423,3.3559,3.3508,3.3309,3.2982,3.2943,3.2804,3.2613,3.2581,3.2517,3.2422,3.2422,3.2422,3.2409,3.2422,3.2676,3.307,3.3102,3.3102,3.3102,3.3102,3.3102,3.3133,3.3102,3.3102,3.3102,3.3121,3.3102,3.3102,3.3102,3.3122,3.3149,3.3155,3.3159,3.3198,3.3284,3.3261,3.3148,3.3213,3.33,3.3341,3.3262,3.332,3.3539,3.3394,3.3271,3.3511,3.3574,3.344,3.3357,3.3397,3.333,3.2981,3.2701,3.2562,3.2631,3.2364,3.2236,3.2407,3.2369,3.228,3.2315,3.2415,3.2484,3.2501,3.2623,3.276,3.2912,3.2621,3.2552,3.2689,3.2809,3.3035,3.3172,3.3357,3.3546,3.3546,3.3748,3.3782,3.3782,3.3799,3.3799,3.3761,3.3761,3.374,3.3799,3.3733,3.3736,4.0993,4.0928,4.0712,4.0355,3.9986,3.9953,3.9691,3.9177,3.8967,3.8868,3.8735,3.8171,3.7837,3.7729,3.6977,3.6541,3.6534,3.6464,3.6139,3.5588,3.5438,3.5308,3.521,3.51,3.4786,3.4411,3.4346,3.3929,3.3274,3.317,3.3019,3.2825,3.2806,3.2722,3.2658,3.2625,3.2593,3.2496,3.2463,3.2463,3.2463,3.2463,3.2463,3.2463,3.2463,3.2461,3.2428,3.2503,3.2579,3.2598,3.2711,3.2755,3.2806,3.2787,3.2787,3.2787,3.2806,3.2836,3.2983,3.3021,3.3087,3.3236,3.3404,3.3326,3.3159,3.3237,3.3357,3.3374,3.3294,3.3388,3.3481,3.3284,3.3231,3.3519,3.3643,3.3504,3.3174,3.3247,3.3161,3.295,3.263,3.2503,3.2604,3.244,3.2452,3.2655,3.2672,3.2672,3.2689,3.2846,3.2915,3.2932,3.3015,3.3112,3.3137,3.2943,3.2989,3.3129,3.3075,3.3283,3.3368,3.3624,3.3744,3.3761,3.3799,3.3799,3.3799,3.3799,3.3723,3.3647,3.3551,3.3475,3.3504,3.3546,3.3631,4.0279,4.0214,3.9527,3.9276,3.921,3.9231,3.9198,3.8967,3.8437,3.8191,3.8071,3.7415,3.7112,3.7079,3.6884,3.66,3.6051,3.5785,3.5565,3.5218,3.4936,3.464,3.4396,3.4136,3.3956,3.3804,3.3662,3.3643,3.3525,3.3506,3.3487,3.3501,3.3393,3.3171,3.3084,3.2958,3.2881,3.2663,3.2578,3.2581,3.2588,3.2563,3.2578,3.2581,3.2581,3.2547,3.2439,3.2741,3.2898,3.2987,3.3256,3.3553,3.3411,3.3411,3.3482,3.3411,3.3482,3.3369,3.3155,3.3088,3.2974,3.2939,3.3043,3.3298,3.3266,3.3505,3.3672,3.3552,3.338,3.3295,3.3261,3.3052,3.2929,3.3209,3.3332,3.3211,3.2967,3.3074,3.3285,3.317,3.2861,3.2728,3.2726,3.2726,3.2741,3.2809,3.2826,3.2844,3.2895,3.3063,3.3237,3.3286,3.3239,3.3166,3.3171,3.318,3.3407,3.3541,3.3436,3.3453,3.3343,3.3441,3.3403,3.3441,3.342,3.3458,3.342,3.342,3.3365,3.3289,3.3247,3.3271,3.3307,3.3359,3.3476,3.9538,3.9506,3.9308,3.8934,3.8536,3.8503,3.8217,3.775,3.7536,3.7415,3.7348,3.689,3.6573,3.6321,3.6118,3.5743,3.526,3.5162,3.51,3.496,3.4858,3.4757,3.4674,3.4558,3.4354,3.4134,3.3842,3.3592,3.337,3.3332,3.3169,3.2962,3.2925,3.2855,3.2825,3.2755,3.2688,3.2606,3.2606,3.2606,3.2606,3.2606,3.2606,3.2606,3.2606,3.2574,3.2555,3.2681,3.2703,3.2736,3.2833,3.2907,3.294,3.2907,3.2888,3.2888,3.2888,3.3021,3.316,3.3197,3.324,3.3376,3.3525,3.3477,3.3288,3.3362,3.3348,3.3121,3.2964,3.2965,3.3215,3.3216,3.3145,3.3286,3.3286,3.3269,3.3124,3.2993,3.2916,3.2874,3.2762,3.2829,3.3052,3.312,3.3169,3.3337,3.3388,3.3388,3.3402,3.3194,3.3217,3.3251,3.3158,3.3023,3.2871,3.274,3.2871,3.3023,3.3099,3.3213,3.3175,3.3137,3.3099,3.3099,3.3099,3.3099,3.3061,3.3073,3.3052,3.3042,3.3027,3.3045,3.3133,3.323,3.3375,3.8735,3.8615,3.8482,3.8183,3.7803,3.7803,3.7536,3.7112,3.6944,3.6809,3.664,3.6302,3.5928,3.5606,3.5367,3.5059,3.4749,3.4715,3.4646,3.4543,3.4681,3.4715,3.4681,3.4543,3.4405,3.4198,3.3921,3.3688,3.3415,3.3431,3.3303,3.3083,3.3046,3.3065,3.3046,3.3046,3.3046,3.3046,3.3065,3.3046,3.3046,3.3046,3.3046,3.3046,3.3046,3.3046,3.3046,3.3046,3.2973,3.29,3.2955,3.3046,3.3046,3.3065,3.3046,3.3046,3.3065,3.3193,3.3379,3.345,3.3438,3.3588,3.3608,3.3434,3.3156,3.3069,3.3,3.2967,3.2791,3.2861,3.3196,3.314,3.3157,3.3279,3.33,3.3297,3.3266,3.3096,3.3035,3.312,3.3152,3.3237,3.3391,3.3494,3.3488,3.3596,3.3572,3.3458,3.3365,3.3104,3.3044,3.2968,3.2871,3.2681,3.2452,3.2337,3.2299,3.2413,3.249,3.2681,3.2778,3.2778,3.2778,3.2778,3.2778,3.2833,3.2795,3.2917,3.2962,3.289,3.2828,3.2989,3.3099,3.315,3.3314,3.7965,3.763,3.7328,3.7287,3.7219,3.7145,3.7078,3.6937,3.6539,3.62,3.5913,3.5641,3.5264,3.4956,3.4887,3.4681,3.4405,3.4336,3.4163,3.399,3.4128,3.4301,3.4301,3.4094,3.3921,3.3851,3.3817,3.3798,3.3743,3.3762,3.3782,3.3707,3.3688,3.378,3.3688,3.3745,3.3725,3.3688,3.3725,3.3725,3.3725,3.3762,3.3743,3.3743,3.3725,3.3707,3.3688,3.3688,3.3544,3.3324,3.3541,3.3688,3.378,3.3798,3.3725,3.3688,3.378,3.3709,3.3745,3.3639,3.3537,3.3295,3.3297,3.314,3.2825,3.2861,3.2932,3.3091,3.2876,3.2871,3.3112,3.3053,3.2988,3.328,3.3383,3.3383,3.3349,3.3343,3.3409,3.359,3.3744,3.3706,3.3579,3.3596,3.3462,3.3272,3.3175,3.3023,3.2833,3.2702,3.2588,3.2512,3.2452,3.2222,3.1993,3.1955,3.1916,3.1916,3.1993,3.2146,3.2283,3.2321,3.2337,3.2359,3.2468,3.249,3.255,3.261,3.2673,3.2647,3.2694,3.289,3.3042,3.3178,3.3323,3.7968,3.8188,3.8085,3.7912,3.754,3.7001,3.6568,3.6307,3.5654,3.5425,3.5181,3.5093,3.4909,3.4543,3.4527,3.4336,3.4043,3.3955,3.3782,3.3487,3.3522,3.3747,3.3886,3.3851,3.3782,3.3782,3.3747,3.3817,3.3817,3.3747,3.3782,3.3817,3.3782,3.3782,3.3817,3.3782,3.3817,3.3817,3.3817,3.3817,3.3817,3.3817,3.3817,3.3817,3.3817,3.3817,3.3817,3.3817,3.3745,3.3654,3.3743,3.3817,3.3817,3.3817,3.3817,3.3782,3.38,3.3678,3.3487,3.3436,3.3296,3.2947,3.3144,3.3127,3.2754,3.2981,3.3012,3.2935,3.2753,3.2872,3.318,3.3192,3.3306,3.3597,3.3566,3.3566,3.3631,3.3662,3.3621,3.3424,3.3348,3.3251,3.3061,3.2985,3.2947,3.2795,3.274,3.2702,3.2435,3.2244,3.2146,3.2031,3.1916,3.1741,3.1587,3.1587,3.1549,3.151,3.1571,3.1609,3.1725,3.1725,3.1686,3.1702,3.1936,3.2029,3.2091,3.2145,3.2187,3.2506,3.277,3.3065,3.3121,3.3217,3.336,3.7574,3.7637,3.7516,3.7305,3.7054,3.6611,3.6304,3.6036,3.5635,3.5312,3.5207,3.5207,3.4997,3.4663,3.4461,3.4178,3.3845,3.3681,3.3365,3.3086,3.3051,3.3156,3.3295,3.333,3.333,3.333,3.3365,3.333,3.333,3.333,3.333,3.3365,3.3504,3.3573,3.3608,3.3747,3.3817,3.3817,3.3817,3.3817,3.3817,3.3817,3.3817,3.3817,3.3817,3.3817,3.3817,3.3817,3.3817,3.3817,3.3817,3.3817,3.3817,3.3817,3.3747,3.3626,3.3719,3.3653,3.3408,3.3392,3.334,3.3055,3.3178,3.3068,3.2832,3.2914,3.2943,3.2986,3.2966,3.3135,3.3409,3.3382,3.3258,3.3222,3.3289,3.3365,3.3534,3.3348,3.3213,3.3006,3.293,3.2892,3.2626,3.2588,3.249,3.2413,3.2375,3.2222,3.2069,3.1878,3.1763,3.1686,3.1648,3.1549,3.151,3.1472,3.1472,3.1433,3.1395,3.1395,3.1395,3.1395,3.1449,3.1481,3.1538,3.1681,3.1903,3.2158,3.2539,3.2834,3.3024,3.3183,3.3279,3.3279,3.3454,3.6974,3.6729,3.6411,3.6232,3.6287,3.6159,3.6121,3.6085,3.592,3.5704,3.549,3.551,3.5203,3.4937,3.4499,3.4229,3.3856,3.3569,3.316,3.2843,3.2649,3.2561,3.2596,3.2771,3.2824,3.2806,3.2701,3.2736,3.2806,3.2771,3.2701,3.2841,3.3121,3.3209,3.3295,3.3539,3.3712,3.3712,3.3782,3.3817,3.3817,3.3817,3.3817,3.3817,3.3817,3.3817,3.38,3.3802,3.3804,3.382,3.3818,3.3818,3.3818,3.382,3.3666,3.353,3.3641,3.3661,3.3411,3.3498,3.3547,3.3221,3.32,3.316,3.2922,3.2934,3.3032,3.3194,3.3286,3.3327,3.3381,3.3293,3.3028,3.2795,3.2626,3.2702,3.2892,3.2778,3.2588,3.2528,3.2566,3.2528,3.249,3.2452,3.2337,3.1993,3.1955,3.184,3.1725,3.1609,3.1533,3.151,3.1472,3.1433,3.1433,3.1433,3.1433,3.1395,3.1395,3.1395,3.1395,3.1395,3.1443,3.1506,3.1665,3.1903,3.2173,3.2475,3.2849,3.3072,3.3263,3.3406,3.3501,3.3454,3.3533,3.7034,3.7247,3.7137,3.7101,3.7026,3.647,3.6194,3.6139,3.5534,3.5316,3.5153,3.5153,3.4956,3.4577,3.4451,3.4163,3.3838,3.3624,3.3356,3.2701,3.2068,3.1876,3.2017,3.2439,3.2667,3.2649,3.2666,3.2684,3.2684,3.2596,3.2684,3.2666,3.2736,3.2824,3.2876,3.3191,3.3418,3.3452,3.3643,3.3747,3.3782,3.3782,3.3782,3.38,3.3818,3.38,3.382,3.383,3.3799,3.3815,3.3792,3.3809,3.3798,3.3817,3.3731,3.3679,3.3713,3.3675,3.3404,3.3382,3.3271,3.3012,3.3162,3.3263,3.3243,3.3371,3.3375,3.3305,3.3209,3.3095,3.2914,3.2778,3.2626,3.2473,3.2299,3.2146,3.2261,3.2435,3.2413,3.2222,3.2108,3.2031,3.1725,3.1763,3.1648,3.1533,3.1533,3.151,3.1472,3.1395,3.1395,3.1395,3.1395,3.1395,3.1202,3.1164,3.1071,3.1134,3.1188,3.1259,3.1259,3.1476,3.1533,3.1667,3.184,3.2126,3.2475,3.2714,3.3072,3.3279,3.3438,3.3485,3.3533,3.3533,3.3533,3.692,3.7107,3.6923,3.6849,3.6775,3.6404,3.6201,3.6128,3.576,3.5541,3.5504,3.5358,3.5175,3.4937,3.4556,3.4174,3.3792,3.3416,3.306,3.2671,3.2284,3.2143,3.2162,3.2396,3.2577,3.2263,3.2175,3.2175,3.2175,3.2228,3.214,3.221,3.2351,3.2403,3.2474,3.2824,3.2981,3.3016,3.3191,3.3365,3.3504,3.3573,3.3701,3.3705,3.3689,3.3638,3.3802,3.3822,3.3822,3.3822,3.3821,3.3821,3.3822,3.3804,3.3749,3.3619,3.3738,3.3625,3.3386,3.3431,3.344,3.3203,3.3276,3.3215,3.3191,3.3281,3.3142,3.2968,3.2892,3.274,3.2375,3.2337,3.2261,3.2031,3.184,3.1664,3.1549,3.1763,3.1955,3.1763,3.1725,3.1625,3.1472,3.1318,3.1341,3.1379,3.1417,3.1395,3.1433,3.1395,3.1395,3.1395,3.1395,3.1318,3.1087,3.0894,3.0647,3.0686,3.0771,3.0872,3.0918,3.1246,3.1645,3.1858,3.2063,3.2475,3.2833,3.3072,3.3231,3.339,3.3501,3.3517,3.3533,3.3533,3.3533,3.6608,3.6608,3.6331,3.6201,3.6201,3.6182,3.6219,3.6201,3.6126,3.5942,3.6015,3.568,3.5348,3.5217,3.4707,3.4213,3.3774,3.3238,3.2902,3.2831,3.2657,3.2589,3.2606,3.2591,3.2474,3.1817,3.1923,3.1923,3.1923,3.1783,3.2027,3.1888,3.2084,3.2313,3.2332,3.2579,3.2879,3.295,3.3056,3.3179,3.3408,3.3443,3.3587,3.3678,3.3625,3.3589,3.3748,3.3799,3.3815,3.3815,3.3832,3.383,3.3813,3.3779,3.3722,3.3409,3.3685,3.3658,3.3503,3.3559,3.3655,3.3685,3.331,3.3104,3.3028,3.2838,3.2664,3.2528,3.2413,3.2168,3.1878,3.1763,3.1571,3.1302,3.1187,3.1048,3.0856,3.101,3.1148,3.1187,3.111,3.0994,3.1033,3.0956,3.111,3.1187,3.1225,3.1225,3.1225,3.1225,3.111,3.0994,3.0917,3.1035,3.0872,3.0802,3.0522,3.0543,3.0572,3.0633,3.0779,3.1216,3.1713,3.2071,3.2388,3.2729,3.3047,3.3279,3.3406,3.3517,3.3533,3.3533,3.3533,3.3533,3.3533,3.5797,3.5815,3.6072,3.6201,3.6201,3.6201,3.6163,3.6126,3.5829,3.568,3.5642,3.5269,3.4912,3.4652,3.4539,3.4186,3.3764,3.3377,3.3206,3.3155,3.2966,3.2792,3.2809,3.2826,3.2655,3.2589,3.252,3.252,3.2469,3.2537,3.2364,3.2486,3.2505,3.256,3.2652,3.2973,3.3066,3.3067,3.3247,3.3463,3.3553,3.3606,3.3696,3.3784,3.3657,3.3691,3.3779,3.3825,3.3835,3.3815,3.3814,3.3822,3.3791,3.3789,3.3715,3.3719,3.3689,3.3665,3.3587,3.3411,3.3365,3.3196,3.293,3.2702,3.2664,3.255,3.2261,3.1993,3.1725,3.1417,3.1048,3.1048,3.0801,3.0492,3.04,3.0322,3.0284,3.0284,3.0361,3.0338,3.0338,3.0415,3.0531,3.0608,3.0593,3.0631,3.0631,3.0593,3.0593,3.0516,3.04,3.0322,3.0245,3.046,3.0604,3.0626,3.0515,3.0608,3.069,3.0735,3.0951,3.1355,3.1745,3.2013,3.2422,3.2829,3.3132,3.329,3.3363,3.3353,3.3394,3.3492,3.3533,3.3533,3.3533,3.5284,3.5321,3.5705,3.5907,3.5907,3.5905,3.5903,3.5829,3.5493,3.5306,3.5157,3.4875,3.4574,3.4403,3.4177,3.3988,3.3806,3.3683,3.3563,3.3494,3.3374,3.3289,3.3254,3.3254,3.3289,3.3289,3.3272,3.3015,3.276,3.2655,3.2707,3.2672,3.2672,3.2672,3.2709,3.2874,3.3016,3.3089,3.3181,3.3381,3.3526,3.3563,3.3633,3.3718,3.3641,3.3637,3.3789,3.3836,3.3825,3.3822,3.3809,3.382,3.373,3.3624,3.3576,3.371,3.3592,3.3479,3.3441,3.3137,3.2892,3.2871,3.2512,3.2283,3.2146,3.1916,3.1533,3.1132,3.0917,3.0647,3.0454,3.0431,3.0338,3.0168,3.0052,2.9935,2.9834,2.9795,2.9679,2.9586,2.9858,3.0052,3.0168,3.0206,3.0129,3.009,3.0052,3.0052,3.0013,2.9935,2.9819,2.9847,2.9829,3.0051,3.0206,3.0216,3.0226,3.0394,3.0528,3.0613,3.0758,3.0951,3.1373,3.172,3.2207,3.2494,3.2776,3.2803,3.2983,3.3189,3.3312,3.341,3.3492,3.3533,3.3533,3.4863,3.4899,3.523,3.5394,3.5376,3.5372,3.5367,3.5329,3.5027,3.4857,3.4819,3.4461,3.429,3.4177,3.3988,3.3799,3.3799,3.3782,3.3765,3.3765,3.373,3.3765,3.3668,3.3685,3.3579,3.3456,3.3528,3.3436,3.3135,3.3015,3.2946,3.2998,3.2946,3.2912,3.3,3.3086,3.2912,3.2912,3.2912,3.3113,3.3297,3.3405,3.3509,3.375,3.3541,3.3566,3.3792,3.3806,3.3823,3.3802,3.3706,3.3685,3.3592,3.3272,3.3234,3.3441,3.3234,3.312,3.2968,3.2719,3.249,3.2452,3.1993,3.1801,3.1571,3.1148,3.057,3.0168,3.0129,3.009,3.0013,2.9974,2.9897,2.9819,2.9741,2.9703,2.9368,2.9134,2.8925,2.9042,2.9431,2.9586,2.9586,2.9664,2.9586,2.9586,2.9547,2.9586,2.9547,2.9431,2.9359,2.9458,2.9518,2.9697,2.9782,2.9737,2.9731,2.9782,2.9953,3.0108,3.0221,3.0379,3.0756,3.1034,3.1313,3.1602,3.1952,3.2381,3.2587,3.2834,3.3107,3.3271,3.323,3.341,3.3533,3.4477,3.4478,3.4576,3.4649,3.4631,3.4608,3.4639,3.46,3.4456,3.4478,3.4389,3.4084,3.3878,3.3875,3.3875,3.3799,3.3799,3.3761,3.3723,3.3723,3.3685,3.3517,3.3327,3.3289,3.3289,3.3289,3.3289,3.3462,3.3409,3.3467,3.3611,3.3576,3.3525,3.3628,3.3528,3.3474,3.3662,3.3645,3.3628,3.3648,3.3724,3.3706,3.3758,3.3755,3.3734,3.3676,3.3706,3.3723,3.3723,3.3685,3.3403,3.3272,3.3196,3.2892,3.2702,3.2719,3.2719,3.2664,3.2604,3.2261,3.1993,3.184,3.1379,3.1048,3.0817,3.0531,3.0144,3.0129,3.0013,2.9741,2.947,2.9484,2.9368,2.9158,2.9003,2.8861,2.8588,2.8588,2.8353,2.8221,2.8495,2.873,2.8847,2.8964,2.9056,2.9042,2.9042,2.9042,2.9032,2.892,2.8923,2.9008,2.9188,2.9384,2.9614,2.9524,2.9363,2.934,2.9493,2.9647,2.9717,2.9829,2.9774,3.0067,3.043,3.0888,3.1372,3.1787,3.2133,3.2422,3.2654,3.2778,3.286,3.3107,3.341,3.3548,3.3795,3.3839,3.3822,3.3822,3.3834,3.381,3.3772,3.3561,3.3566,3.3719,3.3624,3.3631,3.3748,3.3799,3.3799,3.3761,3.3572,3.3479,3.3403,3.3251,3.3061,3.2892,3.2854,3.2854,3.2854,3.2871,3.2909,3.3213,3.3572,3.3799,3.3799,3.3799,3.3765,3.3799,3.3799,3.3799,3.3782,3.3782,3.3799,3.3799,3.3799,3.3799,3.3799,3.3799,3.3685,3.3517,3.3479,3.3327,3.3175,3.2909,3.2854,3.2778,3.2528,3.2261,3.2261,3.2031,3.2031,3.2146,3.1648,3.1433,3.1187,3.0763,3.0338,3.0121,2.9873,2.9484,2.9095,2.9095,2.89,2.8573,2.8417,2.8353,2.8275,2.8339,2.8157,2.8001,2.7961,2.7844,2.7712,2.7594,2.7869,2.8065,2.8104,2.8221,2.8339,2.8314,2.8275,2.8336,2.8318,2.8426,2.8575,2.8831,2.9086,2.9338,2.9452,2.9174,2.9119,2.9328,2.9397,2.9244,2.923,2.9272,2.9398,2.9788,3.029,3.079,3.1248,3.1662,3.1911,3.2159,3.2365,3.2572,3.2819,3.3107,3.2736,3.3017,3.3003,3.3021,3.2985,3.2995,3.3007,3.2952,3.2855,3.2897,3.3137,3.3275,3.3443,3.3628,3.3655,3.3609,3.3592,3.3234,3.3082,3.293,3.2778,3.2566,3.249,3.2452,3.2435,3.2452,3.2435,3.2566,3.2833,3.3137,3.3441,3.363,3.3592,3.3723,3.3799,3.3799,3.3799,3.3799,3.3799,3.3761,3.3647,3.363,3.3572,3.3534,3.3479,3.3365,3.3137,3.3044,3.2854,3.2719,3.2528,3.2452,3.2413,3.2069,3.1763,3.1648,3.1433,3.1302,3.1341,3.1071,3.0778,3.0508,3.0105,2.9601,2.9251,2.9134,2.89,2.8236,2.8236,2.8001,2.7712,2.7673,2.7751,2.7844,2.7805,2.7647,2.749,2.749,2.7333,2.7136,2.7057,2.7122,2.728,2.728,2.7398,2.7594,2.7608,2.7544,2.7671,2.7798,2.7983,2.8193,2.8428,2.8634,2.8799,2.895,2.881,2.874,2.895,2.8908,2.8613,2.8726,2.8894,2.9104,2.923,2.9439,2.983,3.054,3.1191,3.1289,3.1497,3.1994,3.2283,3.2572,3.2942,3.214,3.2175,3.2175,3.221,3.2192,3.2183,3.2212,3.2265,3.2537,3.2692,3.2812,3.3103,3.3237,3.3317,3.3292,3.3239,3.3234,3.2816,3.2681,3.2642,3.2604,3.2299,3.2146,3.2031,3.2031,3.2031,3.2031,3.2222,3.249,3.249,3.2892,3.3196,3.3196,3.3479,3.3609,3.3609,3.3609,3.3609,3.3609,3.3496,3.3327,3.3196,3.3099,3.2816,3.2702,3.2664,3.2642,3.2642,3.255,3.2452,3.2108,3.1955,3.1878,3.1533,3.1241,3.101,3.0933,3.0724,3.0492,3.0531,3.0492,3.0067,2.947,2.89,2.851,2.8001,2.7712,2.7712,2.7687,2.7594,2.7555,2.7594,2.7437,2.7412,2.7333,2.7215,2.7136,2.7057,2.69,2.6597,2.6584,2.6742,2.6781,2.6821,2.6978,2.7201,2.7268,2.7242,2.7374,2.7512,2.7635,2.7823,2.7994,2.814,2.8125,2.8094,2.7939,2.7854,2.7981,2.7897,2.7685,2.7981,2.8263,2.8473,2.8558,2.8697,2.895,2.9705,3.0248,3.0457,3.0832,3.1414,3.2035,3.2489,3.2901,3.1789,3.1806,3.1806,3.1806,3.1788,3.1801,3.1782,3.1799,3.1972,3.2141,3.2328,3.2741,3.2938,3.2919,3.2905,3.286,3.28,3.2413,3.2283,3.2146,3.1993,3.1801,3.1648,3.1648,3.1648,3.1648,3.1648,3.1664,3.1801,3.1955,3.2108,3.2413,3.2664,3.2854,3.3023,3.3137,3.3099,3.3099,3.3099,3.2985,3.2909,3.2816,3.274,3.2626,3.2588,3.2452,3.2299,3.2222,3.2069,3.184,3.151,3.1356,3.1264,3.0879,3.0608,3.0376,3.0376,3.0105,2.9795,2.9834,2.9679,2.9095,2.8666,2.8314,2.7922,2.7673,2.7437,2.7372,2.7254,2.7175,2.69,2.686,2.6821,2.686,2.686,2.6821,2.6781,2.6755,2.6676,2.6479,2.6439,2.6465,2.6465,2.6465,2.6623,2.6781,2.6848,2.6929,2.7108,2.7148,2.7237,2.7322,2.7528,2.7519,2.7503,2.7292,2.7093,2.7093,2.7093,2.7093,2.705,2.7093,2.7376,2.7601,2.7939,2.8192,2.8529,2.895,2.9453,3.0039,3.0499,3.0957,3.1621,3.2324,3.2819,3.1595,3.1595,3.1595,3.1595,3.1595,3.1595,3.1595,3.1595,3.1612,3.1625,3.1808,3.2166,3.2289,3.2231,3.2193,3.2222,3.2097,3.1853,3.1781,3.1692,3.1571,3.1433,3.1395,3.1433,3.1472,3.1395,3.1395,3.1433,3.1472,3.1433,3.1625,3.1878,3.2108,3.2299,3.2626,3.2588,3.2588,3.2588,3.2588,3.2473,3.249,3.2413,3.2299,3.2206,3.213,3.2069,3.1801,3.1686,3.151,3.1202,3.0894,3.0663,3.0454,3.0299,3.0067,2.995,2.9741,2.9547,2.9251,2.9071,2.8822,2.8314,2.7961,2.7726,2.753,2.7333,2.7018,2.69,2.6821,2.6716,2.64,2.6505,2.6505,2.6623,2.6584,2.6544,2.6544,2.6518,2.6479,2.64,2.64,2.6386,2.6307,2.6268,2.6307,2.6386,2.6347,2.6533,2.6772,2.6792,2.6713,2.6832,2.6977,2.6927,2.6825,2.6698,2.6613,2.6571,2.6571,2.6613,2.6613,2.6613,2.6923,2.7431,2.7728,2.777,2.8108,2.8613,2.9202,2.9788,3.029,3.0832,3.1414,3.2118,3.2628,3.1595,3.1595,3.1595,3.1595,3.1595,3.1595,3.1595,3.1559,3.1524,3.1381,3.1147,3.1431,3.1435,3.1188,3.1228,3.1337,3.1426,3.1167,3.1159,3.1328,3.144,3.1379,3.1395,3.1395,3.1395,3.1395,3.1395,3.1395,3.1395,3.1395,3.1472,3.1472,3.1648,3.1878,3.2512,3.255,3.2588,3.255,3.2512,3.2299,3.2069,3.1993,3.184,3.1686,3.1533,3.1456,3.1395,3.1071,3.0894,3.074,3.0376,3.0144,3.0105,3.0028,2.9795,2.9484,2.9119,2.8769,2.8353,2.8328,2.804,2.7726,2.7451,2.7189,2.6992,2.6755,2.6544,2.6544,2.6505,2.6479,2.64,2.64,2.64,2.64,2.64,2.64,2.64,2.64,2.64,2.64,2.64,2.6347,2.6228,2.6109,2.607,2.603,2.5951,2.608,2.6377,2.6352,2.6201,2.6394,2.652,2.6418,2.6316,2.6188,2.6146,2.6103,2.6103,2.6103,2.6188,2.6273,2.6711,2.7275,2.7431,2.7474,2.7812,2.8234,2.895,2.9621,3.029,3.0832,3.1414,3.1911,3.2463,3.1595,3.1595,3.1595,3.1595,3.1595,3.1595,3.1595,3.1524,3.1312,3.0975,3.0672,3.0769,3.0752,3.0644,3.0592,3.0631,3.0697,3.0996,3.1036,3.1083,3.1252,3.1363,3.1379,3.1379,3.1395,3.1395,3.1395,3.1395,3.1395,3.1395,3.1395,3.1395,3.1433,3.1549,3.1725,3.1801,3.1801,3.1801,3.1763,3.1725,3.1625,3.1609,3.1533,3.1395,3.1125,3.101,3.0971,3.057,3.0376,3.0299,2.9912,2.9718,2.964,2.9523,2.9134,2.8822,2.8471,2.8157,2.7687,2.7425,2.7386,2.7175,2.7057,2.6834,2.6637,2.6505,2.6426,2.64,2.64,2.64,2.64,2.64,2.64,2.64,2.64,2.64,2.64,2.64,2.64,2.64,2.64,2.6149,2.599,2.5634,2.5554,2.5475,2.5356,2.5664,2.6034,2.5846,2.5679,2.5927,2.6048,2.589,2.5817,2.5817,2.5775,2.5775,2.569,2.5647,2.5732,2.5945,2.6243,2.6668,2.6923,2.7177,2.7728,2.8276,2.881,2.9439,3.0067,3.0692,3.1274,3.1828,3.2339,3.1595,3.1559,3.1453,3.1383,3.1383,3.1383,3.1329,3.117,3.0904,3.0584,3.0299,3.0228,3.0128,3.0054,3.0026,3.0114,3.0156,3.0362,3.067,3.0733,3.1067,3.1179,3.1242,3.137,3.1379,3.1395,3.1395,3.1395,3.1395,3.1395,3.1395,3.1395,3.1395,3.1433,3.1456,3.1472,3.1472,3.1494,3.151,3.1472,3.1395,3.1318,3.1202,3.1048,3.0817,3.0547,3.0415,3.0183,2.9897,2.978,2.9562,2.9212,2.9056,2.8822,2.8471,2.8197,2.7844,2.749,2.7018,2.6821,2.6821,2.6781,2.6781,2.6663,2.6465,2.6426,2.6386,2.64,2.64,2.64,2.64,2.64,2.64,2.64,2.64,2.64,2.6386,2.6386,2.6347,2.6347,2.6109,2.5911,2.5634,2.5249,2.497,2.4851,2.4784,2.5216,2.5596,2.538,2.5317,2.5585,2.5732,2.5647,2.5562,2.5519,2.5476,2.5391,2.5391,2.5391,2.5433,2.5647,2.586,2.6146,2.6668,2.7177,2.7728,2.8318,2.8852,2.937,2.9914,3.054,3.115,3.1745,3.2298,3.1559,3.1524,3.1152,3.0975,3.0993,3.0939,3.0726,3.0406,3.0406,3.0192,2.9855,2.9855,2.9724,2.9421,2.9349,2.954,2.979,2.9849,3.0055,3.0378,3.0759,3.0893,3.1083,3.1274,3.1347,3.1395,3.1395,3.1395,3.1395,3.1395,3.1395,3.1395,3.1395,3.1395,3.1395,3.1318,3.1356,3.1356,3.1279,3.1279,3.1202,3.0933,3.0817,3.0624,3.0376,3.0144,2.9989,2.9718,2.9484,2.929,2.9056,2.8705,2.8431,2.8289,2.7961,2.7647,2.7254,2.686,2.6584,2.6505,2.6465,2.6505,2.6465,2.6386,2.6386,2.64,2.64,2.64,2.64,2.64,2.64,2.64,2.64,2.64,2.64,2.6386,2.6386,2.6347,2.6307,2.6149,2.5832,2.5514,2.5157,2.4771,2.4492,2.4412,2.4394,2.4652,2.4989,2.496,2.4997,2.5404,2.5476,2.5433,2.5391,2.5391,2.5391,2.5391,2.5391,2.5391,2.5391,2.5476,2.5848,2.6231,2.6668,2.7177,2.7854,2.8389,2.8908,2.9411,2.9872,3.0373,3.0942,3.1704,3.2257,3.101,3.0762,3.062,3.0548,3.0548,3.0318,3.014,3.0049,3.0033,2.9819,2.9477,2.9477,2.9441,2.9298,2.9298,2.9361,2.9504,2.9659,2.9817,3.0103,3.0489,3.0797,3.102,3.1211,3.1331,3.1395,3.1395,3.1395,3.1395,3.1395,3.1395,3.1395,3.1356,3.1356,3.1279,3.1125,3.1164,3.1202,3.1048,3.101,3.0856,3.0547,3.0376,3.0183,2.9912,2.9718,2.9562,2.929,2.9017,2.8627,2.8549,2.8275,2.783,2.7805,2.7594,2.7215,2.6821,2.6505,2.6426,2.64,2.64,2.64,2.64,2.64,2.6386,2.64,2.64,2.64,2.64,2.64,2.64,2.64,2.64,2.64,2.64,2.6386,2.6347,2.6188,2.6109,2.5713,2.5395,2.5037,2.4691,2.4372,2.4132,2.4012,2.4069,2.4312,2.453,2.4594,2.4854,2.5258,2.5391,2.5391,2.5391,2.5391,2.5391,2.5391,2.5433,2.5476,2.5519,2.569,2.5976,2.6401,2.6953,2.7461,2.801,2.8558,2.9118,2.9453,2.9914,3.0332,3.0832,3.1636,3.2257,3.062,3.0406,3.0264,3.0121,2.9942,2.9764,2.964,2.9676,2.964,2.9497,2.9334,2.9298,2.9298,2.9298,2.9298,2.9314,2.9329,2.9488,2.96,2.9743,3.0219,3.0442,3.0696,3.1052,3.1274,3.1315,3.1395,3.1395,3.1395,3.1395,3.1395,3.1395,3.1279,3.1164,3.1048,3.0778,3.0647,3.0686,3.0647,3.057,3.0338,3.0105,2.9912,2.9741,2.9446,2.9212,2.9056,2.8744,2.8471,2.8118,2.804,2.7805,2.7412,2.7215,2.7097,2.6755,2.6584,2.6426,2.64,2.64,2.64,2.64,2.64,2.64,2.64,2.64,2.64,2.64,2.64,2.64,2.64,2.64,2.64,2.64,2.64,2.64,2.6228,2.603,2.5673,2.5276,2.4931,2.4572,2.4212,2.396,2.38,2.384,2.3949,2.4195,2.4424,2.4576,2.4914,2.5294,2.5379,2.5391,2.5391,2.5433,2.5433,2.5519,2.569,2.5732,2.5732,2.603,2.6443,2.6868,2.7334,2.7841,2.8389,2.8824,2.9286,2.9663,3.0081,3.0624,3.1123,3.1677,3.2216,3.0335,3.0264,2.9997,2.964,2.9334,2.9334,2.9334,2.9298,2.9334,2.9298,2.9298,2.9298,2.9298,2.9298,2.9298,2.9298,2.9298,2.9361,2.9393,2.9329,2.979,3.0108,3.0442,3.0733,3.1131,3.13,3.1395,3.1395,3.1379,3.1318,3.1241,3.1318,3.0933,3.074,3.0663,3.0299,3.0144,3.0105,2.9989,2.9834,2.9912,2.9679,2.9383,2.929,2.8978,2.8627,2.8353,2.8157,2.804,2.7712,2.7516,2.7372,2.6978,2.6702,2.6505,2.6479,2.6426,2.6386,2.64,2.64,2.64,2.64,2.64,2.64,2.64,2.64,2.64,2.64,2.64,2.64,2.64,2.64,2.64,2.64,2.64,2.6307,2.6109,2.5713,2.5157,2.4771,2.4492,2.4172,2.4052,2.38,2.38,2.38,2.386,2.4053,2.4383,2.4601,2.4993,2.5337,2.5367,2.5433,2.5433,2.5476,2.5519,2.5647,2.5933,2.6103,2.6188,2.6583,2.7008,2.7474,2.7981,2.8318,2.8782,2.9244,2.9663,2.9998,3.0457,3.0998,3.1497,3.1967,3.2298,2.9835,2.9549,2.9477,2.9405,2.9298,2.9298,2.9298,2.9298,2.9298,2.9298,2.9298,2.9298,2.9298,2.9298,2.9298,2.9298,2.9298,2.9298,2.9298,2.9393,2.9631,2.9844,3.0277,3.0541,3.0976,3.1284,3.1395,3.1318,3.1225,3.1087,3.0948,3.0894,3.0508,3.026,3.0222,2.9834,2.9601,2.9523,2.9134,2.9173,2.9407,2.8939,2.8563,2.8471,2.8236,2.7986,2.7805,2.7765,2.753,2.7215,2.7175,2.69,2.6544,2.6465,2.6426,2.64,2.64,2.64,2.64,2.64,2.64,2.64,2.64,2.64,2.64,2.64,2.64,2.64,2.64,2.64,2.64,2.64,2.64,2.64,2.6386,2.6188,2.599,2.5316,2.4652,2.4332,2.4092,2.392,2.384,2.38,2.38,2.38,2.38,2.3969,2.4436,2.4714,2.513,2.5458,2.544,2.5433,2.5562,2.5732,2.5903,2.6073,2.6358,2.6528,2.6656,2.7135,2.7643,2.8192,2.8655,2.8908,2.9244,2.9705,3.0095,3.0415,3.0873,3.1455,3.1869,3.2339,3.253,2.9513,2.9298,2.9298,2.9298,2.9298,2.9298,2.9298,2.9298,2.9298,2.9298,2.9298,2.9298,2.9298,2.9298,2.9298,2.9298,2.9298,2.9298,2.9298,2.9377,2.9432,2.9613,2.9923,3.0212,3.0338,3.062,3.0777,3.0763,3.084,3.0647,3.0469,3.0431,3.0067,2.9795,2.9718,2.9329,2.8978,2.8939,2.8314,2.8314,2.8705,2.8236,2.8001,2.7869,2.7765,2.7516,2.7372,2.7333,2.7097,2.686,2.6755,2.6663,2.6465,2.6426,2.6386,2.64,2.64,2.64,2.64,2.64,2.64,2.64,2.64,2.64,2.64,2.64,2.64,2.64,2.64,2.64,2.64,2.64,2.64,2.64,2.632,2.6149,2.5634,2.501,2.4452,2.404,2.388,2.388,2.38,2.38,2.3812,2.3848,2.3848,2.432,2.4673,2.5065,2.5413,2.5718,2.5811,2.5945,2.6201,2.6328,2.6401,2.6613,2.6838,2.7122,2.7418,2.7812,2.8276,2.8697,2.9076,2.937,2.9705,3.0206,3.0582,3.0957,3.1414,3.1911,3.2339,3.2628,3.2819,2.9298,2.9298,2.9298,2.9298,2.9298,2.9298,2.9298,2.9298,2.9298,2.9298,2.9298,2.9298,2.9298,2.9298,2.9298,2.9262,2.919,2.9118,2.9154,2.9082,2.9062,2.9164,2.9314,2.9499,2.9805,2.9992,3.0176,3.0214,3.0245,3.0105,3.0028,2.995,2.964,2.9344,2.9095,2.8705,2.8275,2.8157,2.7844,2.7555,2.7555,2.7516,2.7516,2.7516,2.7437,2.724,2.7018,2.6874,2.6716,2.6597,2.6479,2.6426,2.6426,2.64,2.64,2.64,2.64,2.64,2.64,2.64,2.64,2.64,2.64,2.64,2.64,2.64,2.64,2.64,2.64,2.64,2.64,2.64,2.64,2.6347,2.6228,2.6109,2.5448,2.4851,2.4412,2.4,2.4,2.4,2.4,2.396,2.4009,2.4057,2.4308,2.478,2.5244,2.5621,2.5966,2.628,2.6503,2.6668,2.6753,2.6881,2.691,2.705,2.7304,2.777,2.8192,2.8487,2.8782,2.9076,2.9411,2.983,3.0248,3.0707,3.1081,3.144,3.1911,3.2324,3.253,3.286,3.3107,2.9298,2.9298,2.9298,2.9298,2.9298,2.9298,2.9298,2.9298,2.9298,2.9298,2.9262,2.9298,2.9298,2.9298,2.9298,2.9154,2.8815,2.8815,2.8563,2.8362,2.8491,2.8613,2.8759,2.8969,2.9526,2.9762,2.9928,3.0036,2.9741,2.9601,2.9562,2.9484,2.8822,2.8563,2.8431,2.804,2.7726,2.7608,2.7372,2.7097,2.7097,2.7136,2.7097,2.7018,2.6781,2.6663,2.6505,2.6518,2.6465,2.6426,2.64,2.64,2.64,2.64,2.64,2.64,2.64,2.64,2.64,2.64,2.64,2.64,2.64,2.64,2.64,2.64,2.64,2.64,2.64,2.64,2.64,2.64,2.6386,2.6268,2.6149,2.599,2.5594,2.5209,2.4851,2.4691,2.4691,2.4691,2.4731,2.4741,2.4881,2.4929,2.5091,2.5571,2.594,2.6296,2.6545,2.6883,2.7207,2.7008,2.6881,2.7262,2.7389,2.7516,2.777,2.8276,2.8697,2.9076,2.937,2.9579,2.9956,3.0373,3.079,3.1248,3.1621,3.1994,3.2365,3.2736,3.2901,3.3066,3.3271]},{"header":{"parameterUnit":"m.s-1","parameterCategory":1,"la1":31.0,"la2":29.5877,"lo1":-88.7671,"lo2":-86.6584,"dy":0.0162,"dx":0.0185,"nx":115,"ny":88,"refTime":"2023-10-29T00:00:00:Z","depth":0,"parameterNumber":3,"parameterNumberName":"V-component_of_WINDS"},"data":[0.0,0.0,0.0,0.0,0.0,0.0,0.0,0.0,0.0,0.0,0.0,0.0,0.0,0.0,0.0,0.0,0.0,0.0,0.0,0.0,0.0,0.0,0.0,0.0,0.0,0.0,0.0,0.0,0.0,0.0,0.0,0.0,0.0,0.0,0.0,0.0,0.0,0.0,0.0,0.0,0.0,0.0,0.0,0.0,0.0,0.0,0.0,0.0,0.0,0.0,0.0,0.0,0.0,0.0,0.0,0.0,0.0,0.0,0.0,0.0,0.0,0.0,0.0,0.0,0.0,0.0,0.0,0.0,0.0,0.0,0.0,0.0,0.0,0.0,0.0,0.0,0.0,0.0,0.0,0.0,0.0,0.0,0.0,0.0,0.0,0.0,0.0,0.0,0.0,0.0,0.0,0.0,0.0,0.0,0.0,0.0,0.0,0.0,0.0,0.0,0.0,0.0,0.0,0.0,0.0,0.0,0.0,0.0,0.0,0.0,0.0,0.0,0.0,0.0,0.0,0.0,0.0,0.0,0.0,0.0,0.0,0.0,0.0,0.0,0.0,0.0,0.0,0.0,0.0,0.0,0.0,0.0,0.0,0.0,0.0,0.0,0.0,0.0,0.0,0.0,0.0,0.0,0.0,0.0,0.0,0.0,0.0,0.0,0.0,0.0,0.0,0.0,0.0,0.0,0.0,0.0,0.0,0.0,0.0,0.0,0.0,0.0,0.0,0.0,0.0,0.0,0.0,0.0,0.0,0.0,0.0,0.0,0.0,0.0,0.0,0.0,0.0,0.0,0.0,0.0,0.0,0.0,0.0,0.0,0.0,0.0,0.0,0.0,0.0,0.0,0.0,0.0,0.0,0.0,0.0,0.0,0.0,0.0,0.0,0.0,0.0,0.0,0.0,0.0,0.0,0.0,0.0,0.0,0.0,0.0,0.0,0.0,0.0,0.0,0.0,0.0,0.0,0.0,0.0,0.0,0.0,0.0,0.0,0.0,0.0,0.0,0.0,0.0,0.0,0.0,0.0,0.0,0.0,0.0,0.0,0.0,0.0,0.0,0.0,0.0,0.0,0.0,0.0,0.0,0.0,0.0,0.0,0.0,0.0,0.0,0.0,0.0,0.0,0.0,0.0,0.0,0.0,0.0,0.0,0.0,0.0,0.0,0.0,0.0,0.0,0.0,0.0,0.0,0.0,0.0,0.0,0.0,0.0,0.0,0.0,0.0,0.0,0.0,0.0,0.0,0.0,0.0,0.0,0.0,0.0,0.0,0.0,0.0,0.0,0.0,0.0,0.0,0.0,0.0,0.0,0.0,0.0,0.0,0.0,0.0,0.0,0.0,0.0,0.0,0.0,0.0,0.0,0.0,0.0,0.0,0.0,0.0,0.0,0.0,0.0,0.0,0.0,0.0,0.0,0.0,0.0,0.0,0.0,0.0,0.0,0.0,0.0,0.0,0.0,0.0,0.0,0.0,0.0,0.0,0.0,0.0,0.0,0.0,0.0,0.0,0.0,0.0,0.0,0.0,0.0,0.0,0.0,0.0,0.0,0.0,0.0,0.0,0.0,0.0,0.0,0.0,0.0,0.0,0.0,0.0,0.0,0.0,0.0,0.0,0.0,0.0,0.0,0.0,0.0,0.0,0.0,0.0,0.0,0.0,0.0,0.0,0.0,0.0,0.0,0.0,0.0,0.0,0.0,0.0,0.0,0.0,0.0,0.0,0.0,0.0,0.0,0.0,0.0,0.0,0.0,0.0,0.0,0.0,0.0,0.0,0.0,0.0,0.0,0.0,0.0,0.0,0.0,0.0,0.0,0.0,0.0,0.0,0.0,0.0,0.0,0.0,0.0,0.0,0.0,0.0,0.0,0.0,0.0,0.0,0.0,0.0,0.0,0.0,0.0,0.0,0.0,0.0,0.0,0.0,0.0,0.0,0.0,0.0,0.0,0.0,0.0,0.0,0.0,0.0,0.0,0.0,0.0,0.0,0.0,0.0,0.0,0.0,0.0,0.0,0.0,0.0,0.0,0.0,0.0,0.0,0.0,0.0,0.0,0.0,0.0,0.0,0.0,0.0,0.0,0.0,0.0,0.0,0.0,0.0,0.0,0.0,0.0,0.0,0.0,0.0,0.0,0.0,0.0,0.0,0.0,0.0,0.0,0.0,0.0,0.0,0.0,0.0,0.0,0.0,0.0,0.0,0.0,0.0,0.0,0.0,0.0,0.0,0.0,0.0,0.0,0.0,0.0,0.0,0.0,0.0,0.0,0.0,0.0,0.0,0.0,0.0,0.0,0.0,0.0,0.0,0.0,0.0,0.0,0.0,0.0,0.0,0.0,0.0,0.0,0.0,0.0,0.0,0.0,0.0,0.0,0.0,0.0,0.0,0.0,0.0,0.0,0.0,0.0,0.0,0.0,0.0,0.0,0.0,0.0,0.0,0.0,0.0,0.0,0.0,0.0,0.0,0.0,0.0,0.0,0.0,0.0,0.0,0.0,0.0,0.0,0.0,0.0,0.0,0.0,0.0,0.0,0.0,0.0,0.0,0.0,0.0,0.0,0.0,0.0,0.0,0.0,0.0,0.0,0.0,0.0,0.0,0.0,0.0,0.0,0.0,0.0,0.0,0.0,0.0,0.0,0.0,0.0,0.0,0.0,0.0,0.0,0.0,0.0,0.0,0.0,0.0,0.0,0.0,0.0,0.0,0.0,0.0,0.0,0.0,0.0,0.0,0.0,0.0,0.0,0.0,0.0,0.0,0.0,0.0,0.0,0.0,0.0,0.0,0.0,0.0,0.0,0.0,0.0,0.0,0.0,0.0,0.0,0.0,0.0,0.0,0.0,0.0,0.0,0.0,0.0,0.0,0.0,0.0,0.0,0.0,0.0,0.0,0.0,0.0,0.0,0.0,0.0,0.0,0.0,0.0,0.0,0.0,0.0,0.0,0.0,0.0,0.0,0.0,0.0,0.0,0.0,0.0,0.0,0.0,0.0,0.0,0.0,0.0,0.0,0.0,0.0,0.0,0.0,0.0,0.0,0.0,0.0,0.0,0.0,0.0,0.0,0.0,0.0,0.0,0.0,0.0,0.0,0.0,0.0,0.0,0.0,0.0,0.0,0.0,0.0,0.0,0.0,0.0,0.0,0.0,0.0,0.0,0.0,0.0,0.0,0.0,0.0,0.0,0.0,0.0,0.0,0.0,0.0,0.0,0.0,0.0,0.0,0.0,0.0,0.0,0.0,0.0,0.0,0.0,0.0,0.0,0.0,0.0,0.0,0.0,0.0,0.0,0.0,0.0,0.0,0.0,0.0,0.0,0.0,0.0,0.0,0.0,0.0,0.0,0.0,0.0,0.0,0.0,0.0,0.0,0.0,0.0,0.0,0.0,0.0,0.0,0.0,0.0,0.0,0.0,0.0,0.0,0.0,0.0,0.0,0.0,0.0,0.0,0.0,0.0,0.0,0.0,0.0,0.0,0.0,0.0,0.0,0.0,0.0,0.0,0.0,0.0,0.0,0.0,0.0,0.0,0.0,0.0,0.0,0.0,0.0,0.0,0.0,0.0,0.0,0.0,0.0,0.0,0.0,0.0,0.0,0.0,0.0,0.0,0.0,0.0,0.0,0.0,0.0,0.0,0.0,0.0,0.0,0.0,0.0,0.0,0.0,0.0,0.0,0.0,0.0,0.0,0.0,0.0,0.0,0.0,0.0,0.0,0.0,0.0,0.0,0.0,0.0,0.0,0.0,0.0,0.0,0.0,0.0,0.0,0.0,0.0,0.0,0.0,0.0,0.0,0.0,0.0,0.0,0.0,0.0,0.0,0.0,0.0,0.0,0.0,0.0,0.0,0.0,0.0,0.0,0.0,0.0,0.0,0.0,0.0,0.0,0.0,0.0,0.0,0.0,0.0,0.0,0.0,0.0,0.0,0.0,0.0,0.0,0.0,0.0,0.0,0.0,0.0,0.0,0.0,0.0,0.0,0.0,0.0,0.0,0.0,0.0,0.0,0.0,0.0,0.0,0.0,0.0,0.0,0.0,0.0,0.0,0.0,0.0,0.0,0.0,0.0,0.0,0.0,0.0,0.0,0.0,0.0,0.0,0.0,0.0,0.0,0.0,0.0,0.0,0.0,0.0,0.0,0.0,0.0,0.0,0.0,0.0,0.0,0.0,0.0,0.0,0.0,0.0,0.0,0.0,0.0,0.0,0.0,0.0,0.0,0.0,0.0,0.0,0.0,0.0,0.0,0.0,0.0,0.0,0.0,0.0,0.0,0.0,0.0,2.0025,0.0,0.0,0.0,0.0,0.0,0.0,0.0,0.0,0.0,0.0,0.0,0.0,0.0,0.0,0.0,0.0,0.0,0.0,0.0,0.0,0.0,0.0,0.0,0.0,0.0,0.0,0.0,0.0,0.0,0.0,0.0,0.0,0.0,0.0,0.0,0.0,0.0,0.0,0.0,0.0,0.0,0.0,0.0,0.0,0.0,0.0,0.0,0.0,0.0,0.0,0.0,0.0,0.0,0.0,0.0,0.0,0.0,0.0,0.0,0.0,0.0,0.0,0.0,0.0,0.0,0.0,0.0,0.0,0.0,0.0,0.0,0.0,0.0,0.0,0.0,0.0,0.0,0.0,0.0,0.0,0.0,0.0,0.0,0.0,0.0,0.0,0.0,0.0,0.0,0.0,0.0,0.0,0.0,0.0,0.0,0.0,0.0,0.0,0.0,0.0,0.0,0.0,0.0,0.0,0.0,0.0,0.0,0.0,0.0,0.0,2.1571,2.1684,2.1787,2.172,2.1381,0.0,0.0,0.0,0.0,0.0,0.0,0.0,0.0,0.0,0.0,0.0,0.0,0.0,0.0,0.0,0.0,0.0,0.0,0.0,0.0,0.0,0.0,0.0,0.0,0.0,0.0,0.0,0.0,0.0,0.0,0.0,0.0,0.0,0.0,0.0,0.0,0.0,0.0,0.0,0.0,0.0,0.0,0.0,0.0,0.0,0.0,0.0,0.0,0.0,0.0,0.0,0.0,0.0,0.0,0.0,0.0,0.0,0.0,0.0,0.0,0.0,0.0,0.0,0.0,0.0,0.0,0.0,0.0,0.0,0.0,0.0,0.0,0.0,0.0,0.0,0.0,0.0,0.0,0.0,0.0,0.0,0.0,0.0,0.0,0.0,0.0,0.0,0.0,0.0,0.0,0.0,0.0,0.0,0.0,0.0,0.0,0.0,0.0,0.0,0.0,0.0,0.0,0.0,0.0,0.0,0.0,0.0,0.0,0.0,0.0,0.0,0.0,2.2503,2.2449,2.2286,0.0,0.0,0.0,0.0,0.0,0.0,0.0,0.0,0.0,0.0,0.0,0.0,0.0,0.0,0.0,0.0,0.0,0.0,0.0,0.0,0.0,0.0,0.0,0.0,0.0,0.0,0.0,0.0,0.0,0.0,0.0,0.0,0.0,0.0,0.0,0.0,0.0,0.0,0.0,0.0,0.0,0.0,0.0,0.0,0.0,0.0,0.0,0.0,0.0,0.0,0.0,0.0,0.0,0.0,0.0,0.0,0.0,0.0,0.0,0.0,0.0,0.0,0.0,0.0,0.0,0.0,0.0,0.0,0.0,0.0,0.0,0.0,0.0,0.0,0.0,0.0,0.0,0.0,0.0,0.0,0.0,0.0,0.0,0.0,0.0,0.0,0.0,0.0,0.0,0.0,0.0,0.0,0.0,0.0,0.0,0.0,0.0,0.0,0.0,0.0,0.0,0.0,0.0,0.0,0.0,0.0,0.0,0.0,0.0,0.0,2.3141,2.319,2.3209,0.0,2.2336,0.0,0.0,0.0,0.0,0.0,0.0,0.0,0.0,0.0,0.0,0.0,0.0,0.0,0.0,0.0,0.0,0.0,0.0,0.0,0.0,0.0,0.0,0.0,0.0,0.0,0.0,0.0,0.0,0.0,0.0,0.0,0.0,0.0,0.0,0.0,0.0,0.0,0.0,0.0,0.0,0.0,0.0,0.0,0.0,0.0,0.0,0.0,0.0,0.0,0.0,0.0,0.0,0.0,0.0,0.0,0.0,0.0,0.0,0.0,0.0,0.0,0.0,0.0,0.0,0.0,0.0,0.0,0.0,0.0,0.0,0.0,0.0,0.0,0.0,0.0,0.0,0.0,0.0,0.0,0.0,0.0,0.0,0.0,0.0,0.0,0.0,0.0,0.0,0.0,0.0,0.0,0.0,0.0,0.0,0.0,0.0,0.0,0.0,0.0,0.0,0.0,0.0,0.0,0.0,0.0,0.0,0.0,0.0,0.0,0.0,2.3825,2.3887,2.3876,2.3579,0.0,0.0,0.0,0.0,0.0,0.0,0.0,0.0,0.0,0.0,0.0,0.0,0.0,0.0,0.0,0.0,0.0,0.0,0.0,0.0,0.0,0.0,0.0,0.0,0.0,0.0,0.0,0.0,0.0,0.0,0.0,0.0,0.0,0.0,0.0,0.0,0.0,0.0,0.0,0.0,0.0,0.0,0.0,0.0,0.0,0.0,0.0,0.0,0.0,0.0,0.0,0.0,0.0,0.0,0.0,0.0,0.0,0.0,0.0,0.0,0.0,0.0,0.0,0.0,0.0,0.0,0.0,0.0,0.0,0.0,0.0,0.0,0.0,0.0,0.0,0.0,0.0,0.0,0.0,0.0,0.0,0.0,0.0,0.0,0.0,0.0,0.0,0.0,0.0,0.0,0.0,0.0,0.0,0.0,0.0,0.0,0.0,0.0,0.0,0.0,0.0,0.0,0.0,0.0,0.0,0.0,0.0,0.0,0.0,0.0,2.4162,2.4613,2.4861,2.4676,2.4348,2.3846,0.0,0.0,0.0,0.0,0.0,0.0,0.0,0.0,0.0,0.0,0.0,0.0,0.0,0.0,0.0,0.0,0.0,0.0,0.0,0.0,0.0,0.0,0.0,0.0,0.0,0.0,0.0,0.0,0.0,0.0,0.0,0.0,0.0,0.0,0.0,0.0,0.0,0.0,0.0,0.0,0.0,0.0,0.0,0.0,0.0,0.0,0.0,0.0,0.0,0.0,0.0,0.0,0.0,0.0,0.0,0.0,0.0,0.0,0.0,0.0,0.0,0.0,0.0,0.0,0.0,0.0,0.0,0.0,0.0,0.0,0.0,0.0,0.0,0.0,0.0,0.0,0.0,0.0,0.0,0.0,0.0,0.0,0.0,0.0,0.0,0.0,0.0,0.0,0.0,0.0,0.0,0.0,0.0,0.0,0.0,0.0,0.0,0.0,0.0,0.0,0.0,0.0,0.0,0.0,0.0,0.0,0.0,0.0,2.4141,2.4869,2.5569,2.6226,2.563,2.5261,0.0,0.0,0.0,0.0,0.0,0.0,0.0,0.0,0.0,0.0,0.0,0.0,0.0,0.0,0.0,0.0,0.0,0.0,0.0,0.0,0.0,0.0,0.0,0.0,0.0,0.0,0.0,0.0,0.0,0.0,0.0,0.0,0.0,0.0,0.0,0.0,0.0,0.0,0.0,0.0,0.0,0.0,0.0,0.0,0.0,0.0,0.0,0.0,0.0,0.0,0.0,0.0,0.0,0.0,0.0,0.0,0.0,0.0,0.0,0.0,0.0,0.0,0.0,0.0,0.0,0.0,0.0,0.0,0.0,0.0,0.0,0.0,0.0,0.0,0.0,0.0,0.0,0.0,0.0,0.0,0.0,0.0,0.0,0.0,0.0,0.0,0.0,0.0,0.0,0.0,0.0,0.0,0.0,0.0,0.0,0.0,0.0,0.0,0.0,0.0,0.0,0.0,0.0,0.0,0.0,0.0,0.0,0.0,0.0,2.4286,2.4932,2.5641,2.6329,2.5692,2.5312,0.0,0.0,0.0,0.0,0.0,0.0,0.0,0.0,0.0,0.0,0.0,0.0,0.0,0.0,0.0,0.0,0.0,0.0,0.0,0.0,0.0,0.0,0.0,0.0,0.0,0.0,0.0,0.0,0.0,0.0,0.0,0.0,0.0,0.0,0.0,0.0,0.0,0.0,0.0,0.0,0.0,0.0,0.0,0.0,0.0,0.0,0.0,0.0,0.0,0.0,0.0,0.0,0.0,0.0,0.0,0.0,0.0,0.0,0.0,0.0,0.0,0.0,0.0,0.0,0.0,0.0,0.0,0.0,0.0,0.0,0.0,0.0,0.0,0.0,0.0,0.0,0.0,0.0,0.0,0.0,0.0,0.0,0.0,0.0,0.0,0.0,0.0,0.0,0.0,0.0,0.0,0.0,0.0,0.0,0.0,0.0,0.0,0.0,0.0,0.0,0.0,0.0,0.0,0.0,0.0,0.0,0.0,0.0,0.0,2.4964,0.0,2.6307,2.6976,2.6338,2.5876,0.0,0.0,0.0,0.0,0.0,0.0,0.0,0.0,0.0,0.0,0.0,0.0,0.0,0.0,0.0,0.0,0.0,0.0,0.0,0.0,0.0,0.0,0.0,0.0,0.0,0.0,0.0,0.0,0.0,0.0,0.0,0.0,0.0,0.0,0.0,0.0,0.0,0.0,0.0,0.0,0.0,0.0,0.0,0.0,0.0,0.0,0.0,0.0,0.0,0.0,0.0,0.0,0.0,0.0,0.0,0.0,0.0,0.0,0.0,0.0,0.0,0.0,0.0,0.0,0.0,0.0,0.0,0.0,0.0,0.0,0.0,0.0,0.0,0.0,0.0,0.0,0.0,0.0,0.0,0.0,0.0,0.0,0.0,0.0,0.0,0.0,0.0,0.0,0.0,0.0,0.0,0.0,0.0,0.0,0.0,0.0,0.0,0.0,0.0,0.0,0.0,0.0,0.0,0.0,0.0,0.0,0.0,0.0,2.4971,2.6349,2.7038,2.7642,2.835,2.7673,2.7038,0.0,0.0,0.0,0.0,0.0,0.0,0.0,0.0,0.0,0.0,0.0,0.0,0.0,0.0,0.0,0.0,0.0,0.0,0.0,0.0,0.0,0.0,0.0,0.0,0.0,0.0,0.0,0.0,0.0,0.0,0.0,0.0,0.0,0.0,0.0,0.0,0.0,0.0,0.0,0.0,0.0,0.0,0.0,0.0,0.0,0.0,0.0,0.0,0.0,0.0,0.0,0.0,0.0,0.0,0.0,0.0,0.0,0.0,0.0,0.0,0.0,0.0,0.0,0.0,0.0,0.0,0.0,0.0,0.0,0.0,0.0,0.0,0.0,0.0,0.0,0.0,0.0,0.0,0.0,0.0,0.0,0.0,0.0,0.0,0.0,0.0,0.0,0.0,0.0,0.0,0.0,0.0,0.0,0.0,0.0,0.0,0.0,0.0,0.0,0.0,0.0,0.0,0.0,0.0,0.0,0.0,0.0,0.0,0.0,2.7069,2.7272,2.7703,2.835,2.7765,2.7303,0.0,0.0,0.0,0.0,0.0,0.0,0.0,0.0,0.0,0.0,0.0,0.0,0.0,0.0,0.0,0.0,0.0,0.0,0.0,0.0,0.0,0.0,0.0,0.0,0.0,0.0,0.0,0.0,0.0,0.0,0.0,0.0,0.0,0.0,0.0,0.0,0.0,0.0,0.0,0.0,0.0,0.0,0.0,0.0,0.0,0.0,0.0,0.0,0.0,0.0,0.0,0.0,0.0,0.0,0.0,0.0,0.0,0.0,0.0,0.0,0.0,0.0,0.0,0.0,0.0,0.0,0.0,0.0,0.0,0.0,0.0,0.0,0.0,0.0,0.0,0.0,0.0,0.0,0.0,0.0,0.0,0.0,0.0,0.0,0.0,0.0,0.0,0.0,0.0,0.0,0.0,0.0,0.0,0.0,0.0,0.0,0.0,0.0,0.0,0.0,0.0,0.0,0.0,0.0,0.0,0.0,0.0,0.0,0.0,2.8504,2.8276,2.8461,2.9138,2.8492,2.8042,2.7777,0.0,0.0,0.0,0.0,0.0,0.0,0.0,0.0,0.0,0.0,0.0,0.0,0.0,0.0,0.0,0.0,0.0,0.0,0.0,0.0,0.0,0.0,0.0,0.0,0.0,0.0,0.0,0.0,0.0,0.0,0.0,0.0,0.0,0.0,0.0,0.0,0.0,0.0,0.0,0.0,0.0,0.0,0.0,0.0,0.0,0.0,0.0,0.0,0.0,0.0,0.0,0.0,0.0,0.0,0.0,0.0,0.0,0.0,0.0,0.0,0.0,0.0,0.0,0.0,0.0,0.0,0.0,0.0,0.0,0.0,0.0,0.0,0.0,0.0,0.0,0.0,0.0,0.0,0.0,0.0,0.0,0.0,0.0,0.0,0.0,0.0,0.0,0.0,0.0,0.0,0.0,0.0,0.0,0.0,0.0,0.0,0.0,0.0,0.0,0.0,0.0,0.0,0.0,0.0,0.0,0.0,0.0,0.0,3.0509,2.9907,2.9845,3.0356,2.9771,2.9138,0.0,0.0,0.0,0.0,0.0,0.0,0.0,0.0,0.0,0.0,0.0,0.0,0.0,0.0,0.0,0.0,0.0,0.0,0.0,0.0,0.0,0.0,0.0,0.0,0.0,0.0,0.0,0.0,0.0,0.0,0.0,0.0,0.0,0.0,0.0,0.0,0.0,0.0,0.0,0.0,0.0,0.0,0.0,0.0,0.0,0.0,0.0,0.0,0.0,0.0,0.0,0.0,0.0,0.0,0.0,0.0,0.0,0.0,0.0,0.0,0.0,0.0,0.0,0.0,0.0,0.0,0.0,0.0,0.0,0.0,0.0,0.0,0.0,0.0,0.0,0.0,0.0,0.0,0.0,0.0,0.0,0.0,0.0,0.0,0.0,0.0,0.0,0.0,0.0,0.0,0.0,0.0,0.0,0.0,0.0,0.0,0.0,0.0,0.0,0.0,0.0,0.0,0.0,0.0,0.0,0.0,0.0,0.0,0.0,3.1784,3.1705,3.123,3.0448,3.0233,2.9833,0.0,0.0,0.0,0.0,0.0,0.0,0.0,0.0,0.0,0.0,0.0,0.0,0.0,0.0,0.0,0.0,0.0,0.0,0.0,0.0,0.0,0.0,0.0,0.0,0.0,0.0,0.0,0.0,0.0,0.0,0.0,0.0,0.0,0.0,0.0,0.0,0.0,0.0,0.0,0.0,0.0,0.0,0.0,0.0,0.0,0.0,0.0,0.0,0.0,0.0,0.0,0.0,0.0,0.0,0.0,0.0,0.0,0.0,0.0,0.0,0.0,0.0,0.0,0.0,0.0,0.0,0.0,0.0,0.0,0.0,0.0,0.0,0.0,0.0,0.0,0.0,0.0,0.0,0.0,0.0,0.0,0.0,0.0,0.0,0.0,0.0,0.0,0.0,0.0,0.0,0.0,0.0,0.0,0.0,0.0,0.0,0.0,0.0,0.0,0.0,0.0,0.0,0.0,0.0,0.0,0.0,0.0,0.0,3.1366,3.2782,3.3135,3.2906,3.2122,3.1538,3.0922,0.0,0.0,0.0,0.0,0.0,0.0,0.0,0.0,0.0,0.0,0.0,0.0,0.0,0.0,0.0,0.0,0.0,0.0,0.0,0.0,0.0,0.0,0.0,0.0,0.0,0.0,0.0,0.0,0.0,0.0,0.0,0.0,0.0,0.0,0.0,0.0,0.0,0.0,0.0,0.0,0.0,0.0,0.0,0.0,0.0,0.0,0.0,0.0,0.0,0.0,0.0,0.0,0.0,0.0,0.0,0.0,0.0,0.0,0.0,0.0,0.0,0.0,0.0,0.0,0.0,0.0,0.0,0.0,0.0,0.0,0.0,0.0,0.0,0.0,0.0,0.0,0.0,0.0,0.0,0.0,0.0,0.0,0.0,0.0,0.0,0.0,0.0,0.0,0.0,0.0,0.0,0.0,0.0,0.0,0.0,0.0,0.0,0.0,0.0,0.0,0.0,0.0,0.0,0.0,0.0,0.0,0.0,0.0,3.2752,3.349,3.4244,3.4597,3.4552,3.3258,3.218,0.0,0.0,0.0,0.0,0.0,0.0,0.0,0.0,0.0,0.0,0.0,0.0,0.0,0.0,0.0,0.0,0.0,0.0,0.0,0.0,0.0,0.0,0.0,0.0,0.0,0.0,0.0,0.0,0.0,0.0,0.0,0.0,0.0,0.0,0.0,0.0,0.0,0.0,0.0,0.0,0.0,0.0,0.0,0.0,0.0,0.0,0.0,0.0,0.0,0.0,0.0,0.0,0.0,0.0,0.0,0.0,0.0,0.0,0.0,0.0,0.0,0.0,0.0,0.0,0.0,0.0,0.0,0.0,0.0,0.0,0.0,0.0,0.0,0.0,0.0,0.0,0.0,0.0,0.0,0.0,0.0,0.0,0.0,0.0,0.0,0.0,0.0,0.0,0.0,0.0,0.0,0.0,0.0,0.0,0.0,0.0,0.0,0.0,0.0,0.0,0.0,0.0,0.0,0.0,0.0,0.0,0.0,0.0,3.3012,3.4258,3.4921,3.5291,3.5291,3.3921,3.2875,0.0,0.0,0.0,0.0,0.0,0.0,0.0,0.0,0.0,0.0,0.0,0.0,0.0,0.0,0.0,0.0,0.0,0.0,0.0,0.0,0.0,0.0,0.0,0.0,0.0,0.0,0.0,0.0,0.0,0.0,0.0,0.0,0.0,0.0,0.0,0.0,0.0,0.0,0.0,0.0,0.0,0.0,0.0,0.0,0.0,0.0,0.0,0.0,2.838,0.0,0.0,0.0,0.0,0.0,0.0,0.0,0.0,0.0,0.0,0.0,0.0,0.0,0.0,0.0,0.0,0.0,0.0,0.0,0.0,0.0,0.0,0.0,0.0,0.0,0.0,0.0,0.0,0.0,0.0,0.0,0.0,0.0,0.0,0.0,0.0,0.0,0.0,0.0,0.0,0.0,0.0,0.0,0.0,0.0,0.0,0.0,0.0,0.0,0.0,0.0,0.0,0.0,0.0,0.0,0.0,0.0,0.0,0.0,3.3905,3.4921,3.5629,3.5968,3.5937,3.4644,3.3597,0.0,0.0,0.0,0.0,0.0,0.0,0.0,0.0,0.0,0.0,0.0,0.0,0.0,0.0,0.0,0.0,0.0,0.0,0.0,0.0,0.0,0.0,0.0,0.0,0.0,0.0,0.0,0.0,0.0,0.0,0.0,0.0,0.0,0.0,0.0,0.0,0.0,0.0,0.0,0.0,0.0,0.0,0.0,0.0,0.0,0.0,0.0,0.0,0.0,0.0,0.0,0.0,0.0,0.0,0.0,0.0,0.0,0.0,0.0,0.0,0.0,0.0,0.0,0.0,0.0,0.0,0.0,0.0,0.0,0.0,0.0,0.0,0.0,0.0,0.0,0.0,0.0,0.0,0.0,0.0,0.0,0.0,0.0,0.0,0.0,0.0,0.0,0.0,0.0,0.0,0.0,0.0,0.0,0.0,0.0,0.0,0.0,0.0,0.0,0.0,0.0,0.0,0.0,0.0,0.0,0.0,0.0,3.3782,3.4829,3.5476,3.6153,3.6507,3.6492,3.5198,3.4227,3.3552,0.0,0.0,0.0,0.0,0.0,0.0,0.0,0.0,0.0,0.0,0.0,0.0,0.0,0.0,0.0,0.0,0.0,0.0,0.0,0.0,0.0,0.0,0.0,0.0,0.0,0.0,0.0,0.0,0.0,0.0,0.0,0.0,0.0,0.0,0.0,0.0,0.0,0.0,2.5143,2.7074,0.0,0.0,0.0,0.0,0.0,0.0,0.0,0.0,2.9705,0.0,0.0,0.0,0.0,0.0,0.0,0.0,0.0,0.0,0.0,0.0,0.0,0.0,0.0,0.0,0.0,0.0,0.0,0.0,0.0,0.0,0.0,0.0,0.0,0.0,0.0,0.0,0.0,0.0,0.0,0.0,0.0,0.0,0.0,0.0,0.0,0.0,0.0,0.0,0.0,0.0,0.0,0.0,0.0,0.0,0.0,0.0,0.0,0.0,0.0,0.0,0.0,0.0,0.0,0.0,0.0,3.2396,3.3796,3.4829,3.5476,3.6138,3.6507,3.6445,3.5213,3.4443,3.4213,0.0,0.0,0.0,0.0,0.0,0.0,0.0,0.0,0.0,0.0,0.0,0.0,0.0,0.0,0.0,0.0,0.0,0.0,0.0,0.0,0.0,0.0,0.0,0.0,0.0,0.0,0.0,0.0,0.0,0.0,0.0,0.0,0.0,0.0,0.0,0.0,0.0,0.0,0.0,2.8215,2.9504,0.0,0.0,0.0,0.0,0.0,0.0,0.0,0.0,2.9875,0.0,0.0,0.0,0.0,0.0,0.0,0.0,0.0,0.0,0.0,0.0,0.0,0.0,0.0,0.0,0.0,0.0,0.0,0.0,0.0,0.0,0.0,0.0,0.0,0.0,0.0,0.0,0.0,0.0,0.0,0.0,0.0,0.0,0.0,0.0,0.0,0.0,0.0,0.0,0.0,0.0,0.0,0.0,0.0,0.0,0.0,0.0,0.0,0.0,0.0,0.0,0.0,0.0,0.0,0.0,3.3381,3.4151,3.4998,3.5968,3.6338,3.6507,3.6476,3.5537,3.4874,0.0,0.0,0.0,0.0,0.0,0.0,0.0,0.0,0.0,0.0,0.0,0.0,0.0,0.0,0.0,0.0,0.0,0.0,0.0,0.0,0.0,0.0,0.0,0.0,0.0,0.0,0.0,0.0,0.0,0.0,0.0,0.0,0.0,0.0,0.0,0.0,0.0,0.0,0.0,0.0,2.9228,3.0418,3.1534,0.0,0.0,0.0,0.0,0.0,0.0,3.2011,3.1417,0.0,0.0,0.0,0.0,0.0,0.0,0.0,0.0,0.0,0.0,0.0,0.0,0.0,0.0,0.0,0.0,0.0,0.0,0.0,0.0,0.0,0.0,0.0,0.0,0.0,0.0,0.0,0.0,0.0,0.0,0.0,0.0,0.0,0.0,0.0,0.0,0.0,0.0,0.0,0.0,0.0,0.0,0.0,0.0,0.0,0.0,0.0,0.0,0.0,0.0,0.0,0.0,0.0,0.0,0.0,3.4412,3.4628,3.5352,3.6646,3.6707,3.6692,3.6692,3.6061,3.5322,0.0,0.0,0.0,0.0,0.0,0.0,0.0,0.0,0.0,0.0,0.0,0.0,0.0,0.0,0.0,0.0,0.0,0.0,0.0,0.0,0.0,0.0,0.0,0.0,0.0,0.0,0.0,0.0,0.0,0.0,0.0,0.0,0.0,0.0,0.0,0.0,0.0,0.0,0.0,0.0,0.0,3.1308,3.2613,3.3032,0.0,0.0,0.0,0.0,3.4074,3.3663,0.0,0.0,0.0,0.0,0.0,0.0,0.0,0.0,0.0,0.0,0.0,0.0,0.0,0.0,0.0,0.0,0.0,0.0,0.0,0.0,0.0,0.0,0.0,0.0,0.0,0.0,0.0,0.0,0.0,0.0,0.0,0.0,0.0,0.0,0.0,0.0,0.0,0.0,0.0,0.0,0.0,0.0,0.0,0.0,0.0,0.0,0.0,0.0,0.0,0.0,0.0,0.0,0.0,0.0,0.0,0.0,3.4443,3.5075,3.603,3.7307,3.7369,3.74,3.7369,3.6738,3.5783,0.0,0.0,0.0,0.0,0.0,0.0,0.0,0.0,0.0,0.0,0.0,0.0,0.0,0.0,0.0,0.0,0.0,0.0,0.0,0.0,0.0,0.0,0.0,0.0,0.0,0.0,0.0,0.0,0.0,0.0,0.0,0.0,0.0,0.0,0.0,0.0,0.0,0.0,0.0,0.0,0.0,3.1949,3.2688,3.3425,3.3938,0.0,0.0,3.4238,3.4417,3.4384,0.0,0.0,0.0,0.0,0.0,0.0,0.0,0.0,0.0,0.0,0.0,0.0,0.0,0.0,0.0,0.0,0.0,0.0,0.0,0.0,0.0,0.0,0.0,0.0,0.0,0.0,0.0,0.0,0.0,0.0,0.0,0.0,0.0,0.0,0.0,0.0,0.0,0.0,0.0,0.0,0.0,0.0,0.0,0.0,0.0,0.0,0.0,0.0,0.0,0.0,0.0,0.0,0.0,0.0,0.0,3.2796,3.4474,3.5537,3.6553,3.7461,3.7861,3.8077,3.8077,3.743,3.643,0.0,0.0,0.0,0.0,0.0,0.0,0.0,0.0,0.0,0.0,0.0,0.0,0.0,0.0,0.0,0.0,0.0,0.0,0.0,0.0,0.0,0.0,0.0,0.0,0.0,0.0,0.0,0.0,0.0,0.0,0.0,0.0,0.0,0.0,0.0,0.0,0.0,0.0,0.0,0.0,0.0,0.0,3.4,3.4897,0.0,0.0,0.0,3.6675,3.6753,0.0,0.0,0.0,0.0,0.0,0.0,0.0,0.0,0.0,0.0,0.0,0.0,0.0,0.0,0.0,0.0,0.0,0.0,0.0,0.0,0.0,0.0,0.0,0.0,0.0,0.0,0.0,0.0,0.0,0.0,0.0,0.0,0.0,0.0,0.0,0.0,0.0,0.0,0.0,0.0,0.0,0.0,0.0,0.0,0.0,0.0,0.0,0.0,0.0,0.0,0.0,0.0,0.0,0.0,0.0,0.0,0.0,3.4983,3.6153,3.7153,3.7984,3.8508,3.8738,3.8738,3.8108,0.0,0.0,0.0,0.0,0.0,0.0,0.0,0.0,0.0,0.0,0.0,0.0,0.0,0.0,0.0,0.0,0.0,0.0,0.0,0.0,0.0,0.0,0.0,0.0,0.0,0.0,0.0,2.5396,0.0,0.0,0.0,0.0,0.0,0.0,0.0,0.0,0.0,0.0,0.0,0.0,0.0,0.0,3.4211,3.534,3.6352,3.7184,0.0,0.0,3.8508,3.8508,3.7677,3.6999,0.0,0.0,0.0,0.0,0.0,0.0,0.0,0.0,0.0,0.0,0.0,0.0,0.0,0.0,0.0,0.0,0.0,0.0,0.0,0.0,0.0,0.0,0.0,0.0,0.0,0.0,0.0,0.0,0.0,0.0,0.0,0.0,0.0,0.0,0.0,0.0,0.0,0.0,0.0,0.0,0.0,0.0,0.0,0.0,0.0,0.0,0.0,0.0,0.0,0.0,0.0,0.0,0.0,0.0,3.4321,3.6292,3.7061,3.8077,3.9322,3.9414,3.9445,3.9414,3.8768,3.78,0.0,0.0,0.0,0.0,0.0,0.0,0.0,0.0,0.0,0.0,0.0,0.0,0.0,0.0,0.0,0.0,0.0,0.0,0.0,0.0,0.0,0.0,0.0,0.0,0.0,0.0,0.0,0.0,0.0,0.0,0.0,0.0,0.0,0.0,0.0,0.0,0.0,0.0,0.0,0.0,0.0,3.6089,3.6227,3.7457,3.8368,0.0,3.8461,3.8508,3.8539,3.8446,3.8338,3.8368,0.0,0.0,0.0,0.0,0.0,0.0,0.0,0.0,0.0,0.0,0.0,0.0,0.0,0.0,0.0,0.0,0.0,0.0,0.0,0.0,0.0,0.0,0.0,0.0,0.0,0.0,0.0,0.0,0.0,0.0,0.0,0.0,0.0,0.0,0.0,0.0,0.0,0.0,0.0,0.0,0.0,0.0,0.0,0.0,0.0,0.0,0.0,0.0,0.0,0.0,0.0,0.0,0.0,3.5291,3.6476,3.8368,3.9599,4.0122,4.0953,4.1199,4.0816,4.0091,3.8891,0.0,0.0,0.0,0.0,0.0,0.0,0.0,0.0,0.0,0.0,0.0,0.0,0.0,0.0,0.0,0.0,0.0,0.0,0.0,0.0,0.0,0.0,0.0,0.0,0.0,0.0,0.0,0.0,2.8667,2.9259,2.9309,0.0,0.0,0.0,0.0,0.0,0.0,0.0,0.0,0.0,0.0,3.6795,3.8086,3.9104,0.0,0.0,4.0755,4.1014,4.1014,4.041,3.9908,3.9908,3.8924,0.0,0.0,0.0,0.0,0.0,0.0,0.0,0.0,0.0,0.0,0.0,0.0,0.0,0.0,0.0,0.0,0.0,0.0,0.0,0.0,0.0,0.0,0.0,0.0,0.0,0.0,0.0,0.0,0.0,0.0,0.0,0.0,0.0,0.0,0.0,0.0,0.0,0.0,0.0,0.0,0.0,0.0,0.0,0.0,0.0,0.0,0.0,0.0,0.0,0.0,0.0,0.0,3.6322,3.74,3.9445,4.072,4.112,4.2091,4.2386,4.1894,4.0984,3.9845,0.0,0.0,0.0,0.0,0.0,0.0,0.0,0.0,0.0,0.0,0.0,0.0,0.0,0.0,0.0,0.0,0.0,0.0,0.0,0.0,0.0,0.0,0.0,0.0,0.0,0.0,0.0,0.0,2.9529,3.0104,3.0421,0.0,0.0,0.0,0.0,0.0,0.0,0.0,0.0,0.0,0.0,3.8198,3.9683,4.0691,4.1515,4.201,4.2474,4.2765,4.2783,4.2054,4.1538,4.1507,0.0,0.0,0.0,0.0,0.0,0.0,0.0,0.0,0.0,0.0,0.0,0.0,0.0,0.0,0.0,0.0,0.0,0.0,0.0,0.0,0.0,0.0,0.0,0.0,0.0,0.0,0.0,0.0,0.0,0.0,2.4768,0.0,0.0,0.0,0.0,0.0,0.0,0.0,0.0,0.0,0.0,0.0,0.0,0.0,0.0,0.0,0.0,0.0,0.0,0.0,0.0,0.0,0.0,3.7461,3.9414,4.0184,4.1199,4.2509,4.2602,4.2633,4.2571,4.1261,4.0522,4.0382,0.0,0.0,0.0,0.0,0.0,0.0,0.0,0.0,0.0,0.0,0.0,0.0,0.0,0.0,0.0,0.0,0.0,0.0,0.0,0.0,0.0,0.0,0.0,0.0,0.0,0.0,2.9608,3.0328,3.1099,0.0,0.0,0.0,0.0,0.0,0.0,0.0,0.0,0.0,0.0,3.8851,4.0721,4.0814,4.2118,4.3145,4.3256,4.3239,4.3256,4.3288,4.3225,4.3163,0.0,0.0,0.0,0.0,0.0,0.0,0.0,0.0,0.0,0.0,0.0,0.0,0.0,0.0,0.0,0.0,0.0,0.0,0.0,0.0,0.0,0.0,0.0,0.0,0.0,0.0,0.0,2.9188,2.9027,0.0,0.0,0.0,0.0,0.0,0.0,0.0,0.0,0.0,0.0,0.0,3.4911,3.5002,0.0,0.0,0.0,0.0,0.0,0.0,0.0,0.0,0.0,0.0,0.0,0.0,3.8584,4.0153,4.1771,4.2805,4.3267,4.3698,4.3698,4.3267,4.2805,4.1925,4.0553,0.0,0.0,0.0,0.0,0.0,0.0,0.0,0.0,0.0,0.0,0.0,0.0,0.0,0.0,0.0,0.0,0.0,0.0,0.0,0.0,0.0,0.0,0.0,0.0,0.0,3.0805,0.0,0.0,0.0,0.0,0.0,0.0,0.0,0.0,0.0,0.0,0.0,3.8299,3.9178,4.0679,4.2153,4.3541,4.4296,4.5068,0.0,0.0,0.0,0.0,0.0,0.0,0.0,0.0,0.0,0.0,0.0,0.0,0.0,0.0,4.3311,4.1183,4.061,4.0531,4.0833,0.0,0.0,0.0,0.0,0.0,0.0,0.0,0.0,0.0,0.0,0.0,0.0,0.0,0.0,3.2327,0.0,3.1545,0.0,0.0,0.0,0.0,0.0,0.0,0.0,0.0,3.5569,3.6336,3.7409,3.7751,3.7876,0.0,3.7876,3.6953,0.0,0.0,0.0,0.0,0.0,0.0,0.0,0.0,3.9876,4.123,4.2805,4.3821,4.4283,4.4498,4.4498,4.4302,4.384,4.2743,4.0922,3.937,3.8138,0.0,0.0,0.0,0.0,0.0,0.0,0.0,0.0,0.0,0.0,0.0,0.0,0.0,0.0,0.0,0.0,0.0,0.0,0.0,0.0,0.0,0.0,0.0,3.2334,0.0,0.0,0.0,0.0,0.0,0.0,0.0,0.0,0.0,3.7372,3.8614,4.0111,4.1462,4.2653,4.397,4.5588,0.0,0.0,0.0,0.0,0.0,0.0,0.0,4.7814,4.7814,4.7537,4.7369,4.744,4.7655,4.7864,4.7985,0.0,0.0,4.4396,4.3862,4.3862,4.3928,4.3944,4.3993,4.4188,4.4789,4.5487,0.0,0.0,0.0,0.0,0.0,0.0,0.0,0.0,3.5644,3.5381,0.0,3.4181,0.0,0.0,0.0,0.0,0.0,3.4927,0.0,0.0,3.8227,3.897,3.963,4.0245,4.0566,4.0584,4.0553,4.0505,4.0351,3.7923,0.0,0.0,0.0,0.0,0.0,0.0,4.1261,4.2614,4.3359,4.4314,4.5545,4.5022,4.496,4.5515,4.4314,4.302,4.174,4.0953,3.9937,3.8631,3.7338,0.0,0.0,0.0,0.0,0.0,0.0,0.0,0.0,0.0,0.0,0.0,0.0,0.0,0.0,0.0,0.0,0.0,0.0,0.0,0.0,3.3301,0.0,0.0,0.0,0.0,0.0,0.0,0.0,0.0,0.0,0.0,3.9577,4.0483,4.173,4.314,0.0,0.0,0.0,0.0,4.8638,4.8923,4.8927,4.9032,4.9264,4.9282,4.9282,4.9249,0.0,0.0,4.9565,4.9869,5.0095,5.008,5.0284,4.9702,4.7705,4.7194,4.7081,4.7185,4.7236,4.7385,4.7619,4.8145,4.8754,3.8009,0.0,0.0,0.0,0.0,3.803,3.8551,3.8672,3.8724,3.8637,3.8412,3.7276,0.0,0.0,0.0,0.0,0.0,0.0,3.8548,4.0334,4.0614,4.1063,4.1709,4.1907,4.1999,4.1999,4.1999,4.1999,4.1968,4.1247,4.0337,3.9367,0.0,0.0,0.0,0.0,4.2663,4.3956,4.4683,4.5453,4.6296,4.6111,4.5865,4.5588,4.4776,4.3913,4.3051,4.2355,4.1353,3.9982,3.9551,0.0,0.0,0.0,0.0,0.0,0.0,0.0,0.0,0.0,0.0,0.0,0.0,0.0,0.0,0.0,0.0,0.0,0.0,0.0,3.4195,3.5202,3.6061,0.0,0.0,0.0,0.0,0.0,0.0,0.0,0.0,0.0,4.4204,4.4376,4.48,0.0,0.0,4.8019,4.8853,4.9365,5.0112,5.1457,5.1819,0.0,5.2134,5.2503,5.2557,5.2032,5.2393,5.285,5.3198,5.3325,5.3451,5.3559,5.3663,5.3461,5.2835,5.0813,4.9436,4.9354,4.9751,5.0183,5.0421,5.0987,5.1703,4.2242,4.0643,3.9803,3.932,3.9195,4.0297,4.0842,4.0931,4.0985,4.1021,4.096,3.9908,3.9432,3.9371,3.8288,0.0,0.0,0.0,4.0539,4.2017,4.2558,4.3002,4.3402,4.3925,4.4202,4.4153,4.4172,4.4202,4.4172,4.4202,4.3771,4.2891,0.0,0.0,4.2756,4.3187,4.4067,4.5361,4.5772,4.6326,4.6973,4.6973,4.6665,4.6007,4.5361,4.4806,4.4375,4.3513,4.2602,4.1753,4.0953,3.9784,0.0,0.0,0.0,0.0,0.0,0.0,0.0,0.0,0.0,0.0,0.0,3.1022,3.1539,0.0,0.0,0.0,3.4195,3.5278,3.6522,3.734,0.0,0.0,0.0,0.0,0.0,0.0,0.0,4.3979,4.4794,4.5854,4.7497,4.7631,4.7613,4.788,4.8624,4.9415,5.0236,0.0,5.1735,5.292,5.3486,5.3868,5.405,5.4343,5.4383,5.3971,5.4236,5.4627,5.4956,5.5116,5.5223,5.5384,5.5542,5.5577,5.5595,5.3903,5.2486,5.2243,5.2473,5.2808,5.2964,5.342,5.3961,4.6234,4.5464,4.2639,4.1407,4.1456,4.2291,4.2671,4.264,4.2836,4.2922,4.2879,4.2202,4.1894,4.1801,4.1137,0.0,4.1925,4.1925,4.2294,4.2971,4.4221,4.4745,4.4837,4.5988,4.6603,4.6573,4.6603,4.6603,4.6573,4.6592,4.6623,4.6551,4.4178,4.3562,4.4714,4.4745,4.5391,4.6665,4.6665,4.7004,4.7681,4.7711,4.7373,4.6696,4.608,4.573,4.5557,4.4425,4.3716,4.3562,4.1771,4.0659,4.0461,0.0,0.0,0.0,0.0,0.0,0.0,0.0,0.0,0.0,0.0,0.0,0.0,0.0,0.0,0.0,3.689,0.0,3.8987,3.9686,0.0,0.0,0.0,4.1806,4.2935,4.3703,4.4762,4.6418,0.0,0.0,4.9747,5.0191,5.0237,4.9933,5.0126,5.0626,5.1377,5.2482,5.3386,5.3793,5.4456,5.5038,5.5288,5.5304,5.5353,5.5386,5.5353,5.551,5.5689,5.5867,5.6026,5.6233,5.6355,5.6491,5.6474,5.6389,5.6235,5.5465,5.5255,5.5255,5.5223,5.5467,5.5728,4.6511,4.6296,4.5571,4.498,4.455,4.5264,4.556,4.556,4.563,4.5649,4.5588,4.4941,4.4375,4.3882,4.3698,4.3987,4.4652,4.4633,4.5003,4.5649,4.5957,4.613,4.6161,4.6449,4.6603,4.6603,4.6603,4.6603,4.6603,4.6762,4.6841,4.681,4.6396,4.6164,4.613,4.6111,4.6542,4.7342,4.7373,4.7711,4.8327,4.8368,4.805,4.7373,4.7219,4.6634,4.5638,4.528,4.4652,4.3655,4.3113,4.214,4.0566,3.9907,0.0,0.0,0.0,0.0,0.0,0.0,0.0,0.0,0.0,3.4802,3.5124,0.0,3.695,0.0,3.9563,4.0924,4.1267,4.1987,0.0,0.0,4.3826,4.4552,4.6081,4.6578,4.7205,4.834,4.9195,5.0105,5.12,5.1972,5.2589,5.2988,5.2553,5.2613,5.3568,5.3948,5.463,5.5714,5.6145,5.6441,5.6741,5.6739,5.6803,5.7363,5.743,5.7536,5.7732,5.7803,5.7838,5.7925,5.7926,5.7995,5.8013,5.7961,5.7926,5.7698,5.7237,5.6846,5.688,5.7306,5.7767,4.8419,4.8419,4.844,4.8071,4.7393,4.6819,4.6603,4.6603,4.6603,4.6603,4.6573,4.6203,4.5853,4.5515,4.5484,4.5699,4.6018,4.6038,4.6234,4.6603,4.6911,4.7034,4.7065,4.7342,4.7496,4.7496,4.7628,4.7668,4.7688,4.7858,4.7978,4.7978,4.8128,4.8068,4.7818,4.7519,4.7645,4.8224,4.8091,4.8214,4.8553,4.8583,4.8399,4.803,4.7722,4.7127,4.608,4.5761,4.5114,4.4098,4.3728,4.3082,4.1955,4.1309,4.0368,0.0,0.0,0.0,0.0,0.0,0.0,0.0,0.0,0.0,0.0,0.0,3.929,4.0054,4.18,4.3002,4.3284,4.423,4.5164,4.5871,4.6333,4.7005,4.8045,4.8889,4.9639,5.0243,5.1357,5.2327,5.2957,5.3537,5.4232,5.4984,5.4678,5.4427,5.4642,5.5095,5.5861,5.6662,5.7215,5.7612,5.7858,5.7805,5.7871,5.8246,5.8348,5.8401,5.8596,5.8631,5.8751,5.9148,5.9268,5.9371,5.968,5.9749,5.9749,5.9714,5.944,5.8992,5.8509,5.9057,5.9624,5.0697,5.0697,5.0697,5.038,4.9703,4.7896,4.7034,4.685,4.685,4.685,4.685,4.6889,4.6889,4.6889,4.6929,4.6949,4.6949,4.6949,4.6929,4.696,4.7566,4.7824,4.7824,4.8409,4.8687,4.8687,4.8955,4.9037,4.9037,4.925,4.932,4.9351,4.9434,4.9517,4.9506,4.9017,4.8865,4.9037,4.8821,4.8687,4.8687,4.8718,4.8687,4.8635,4.8132,4.7484,4.6837,4.6158,4.5499,4.4821,4.4142,4.3741,4.3667,4.2569,4.1595,0.0,4.0283,0.0,0.0,0.0,0.0,0.0,0.0,0.0,0.0,4.0763,4.1728,4.2639,4.3877,4.484,4.5235,4.6416,4.7293,4.7718,4.8596,4.9248,4.9592,5.0931,5.195,5.2097,5.3437,5.4401,5.4667,5.4904,5.5354,5.6203,5.6392,5.6157,5.56,5.6277,5.6952,5.7025,5.7905,5.8476,5.8527,5.8647,5.8749,5.8749,5.8938,5.8905,5.9166,5.9201,5.9425,6.0098,6.0306,6.0512,6.1185,6.1254,6.1254,6.1168,6.1219,6.0957,6.0123,6.0365,6.1004,5.0697,5.0697,5.0697,5.0605,5.0482,5.0082,4.9281,4.8214,4.8214,4.8214,4.8235,4.845,4.8532,4.8552,4.8704,4.8784,4.8784,4.8784,4.8784,4.8784,4.8909,4.9002,4.8971,4.9096,4.9189,4.9158,4.923,4.925,4.925,4.9452,4.9553,4.9573,5.032,5.0684,5.0684,0.0,0.0,0.0,4.921,4.9158,4.9158,4.9158,4.9158,4.9189,4.9065,0.0,4.7986,4.7282,4.6586,4.5901,4.5248,0.0,0.0,0.0,0.0,0.0,0.0,0.0,0.0,0.0,0.0,0.0,4.3421,4.3292,4.1811,4.331,4.482,4.5908,4.6716,4.7339,4.7759,4.8153,4.8753,4.9535,5.0436,5.1289,5.2095,5.3216,5.3934,5.4004,5.4531,5.5184,5.5773,5.6039,5.6542,5.7382,5.7715,5.7825,5.7763,5.7688,5.7895,5.8338,5.8754,5.8927,5.8909,5.9443,5.9838,5.9908,6.039,6.0718,6.0735,6.0753,6.0787,6.1082,6.1116,6.1116,6.1323,6.1323,6.141,6.1323,6.1824,6.1995,6.1165,6.1096,6.1235,5.1682,0.0,5.1682,5.1498,0.0,5.119,5.067,4.9789,4.9693,4.9683,4.981,5.0071,5.0206,5.0175,4.9905,4.981,4.979,4.981,4.981,4.981,5.0185,5.0341,5.0341,5.0341,5.0341,5.0341,5.0433,5.0536,5.0638,5.0862,5.1055,5.1124,5.1593,5.1845,5.1845,5.2174,5.172,5.0495,5.0403,5.0341,5.0341,4.9998,4.981,4.9779,0.0,0.0,0.0,0.0,0.0,0.0,0.0,0.0,0.0,0.0,0.0,4.4773,4.4741,4.4622,4.4369,4.4777,4.5056,4.5128,4.6166,4.6324,4.5051,4.5945,4.6836,4.7625,4.8406,4.8957,4.9268,5.0071,5.0858,5.1466,5.2384,5.3198,5.3705,5.4667,5.5322,5.5425,5.6005,5.6645,5.6982,5.7304,5.7656,5.8137,5.8294,5.8573,5.8989,5.8695,5.861,5.9339,5.953,5.9737,6.0116,6.0427,6.0737,6.0806,6.1047,6.1289,6.1323,6.1323,6.1427,6.179,6.1912,6.2087,6.2502,6.2678,6.2714,6.2749,6.3061,6.3234,6.2818,6.2678,6.2588,5.2729,5.2729,5.2729,5.2413,5.1964,5.1933,5.1756,5.1384,0.0,0.0,0.0,5.136,5.1465,5.1403,5.0861,5.06,5.06,5.06,5.06,5.0632,5.1268,5.1591,5.1591,5.1612,5.1633,5.1654,5.181,5.1976,5.2109,5.2345,5.2528,5.2709,5.2805,5.2953,5.3122,5.3142,5.2919,5.2386,5.1874,5.1602,5.1623,5.0912,5.0515,5.0536,4.9878,4.9282,4.8749,4.8573,4.8279,4.7734,4.7577,4.7495,4.7495,4.7514,4.7263,4.6749,4.6686,4.6492,4.6092,4.675,4.7297,4.754,4.8299,4.8563,4.8225,4.8225,4.849,4.9101,4.9852,5.0426,5.0742,5.1992,5.2917,5.3152,5.415,5.4789,5.4874,5.5821,5.6478,5.66,5.7348,5.8058,5.8178,5.8465,5.8781,5.8919,5.9056,5.9213,5.9835,5.9664,5.9562,6.0202,6.0392,6.0599,6.1116,6.148,6.1515,6.1567,6.1723,6.181,6.181,6.1792,6.2086,6.271,6.2886,6.3218,6.3773,6.3951,6.425,6.4354,6.4389,6.4459,6.4563,6.4508,6.433,5.2729,5.2729,5.2729,5.2779,5.2909,5.2909,5.298,5.2959,5.1816,5.1317,5.1329,5.156,5.1664,5.1664,5.1705,5.1756,5.1756,5.1756,5.1756,0.0,5.2109,5.2275,5.2275,5.2426,5.2528,5.2528,5.2568,5.2588,5.2629,5.2669,5.2657,5.2825,5.3265,5.3955,5.4718,5.4935,5.4976,5.4841,5.3338,5.2528,5.2496,5.1806,5.1423,5.1391,5.0765,5.0402,5.0255,4.9668,4.9285,4.9209,4.8647,4.8328,4.8328,4.836,4.8283,4.8219,4.8188,4.8174,4.8065,4.8198,4.861,4.9322,4.9539,4.9529,4.9303,4.9435,5.0156,5.1596,5.1948,5.2462,5.3272,5.386,5.4235,5.4357,5.527,5.5959,5.601,5.6964,5.764,5.7692,5.8085,5.8726,5.9238,5.9395,5.976,6.0381,6.0504,6.0747,6.0993,6.1012,6.0977,6.1116,6.1151,6.1185,6.1549,6.2036,6.2436,6.2523,6.315,6.3586,6.3534,6.3534,6.3638,6.3882,6.3935,6.404,6.4214,6.4197,6.4564,6.5052,6.5191,6.5365,6.5924,6.6153,6.6066,5.3456,5.3425,5.3188,5.3144,5.3277,5.3387,5.3518,5.3596,5.3098,5.2794,5.274,5.2922,5.2997,5.2997,5.2827,5.2752,5.2752,5.2897,5.2906,5.2959,5.3455,5.3708,5.3697,5.38,5.3841,5.3841,5.3964,5.4034,5.4156,5.4277,5.4418,5.455,5.4875,5.5239,5.5612,5.5713,5.5754,5.5754,5.4701,5.4156,5.4156,5.3499,5.2919,5.2532,5.1739,5.1135,5.0762,5.0346,5.0096,5.0096,4.9808,4.9648,4.9616,4.9648,4.9705,4.9799,4.9799,4.9823,4.9903,5.037,5.0927,5.1438,5.1828,5.2042,5.2048,5.1558,5.1818,5.3035,5.3437,5.3743,5.4199,5.4951,5.5425,5.5425,5.6444,5.7101,5.7257,5.8108,5.8819,5.8871,5.9447,5.9985,6.0293,6.0451,6.0644,6.113,6.1546,6.1947,6.207,6.254,6.2662,6.2192,6.207,6.2331,6.2767,6.3203,6.3499,6.3499,6.3883,6.418,6.4233,6.4233,6.4233,6.4233,6.4583,6.4933,6.4968,6.5406,6.5809,6.6054,6.6229,6.6457,6.6755,6.7194,6.7194,5.4417,5.4377,5.4028,5.389,5.3925,5.405,5.4118,5.4183,5.4166,5.4124,5.4049,5.4124,5.4157,5.4147,5.385,5.3711,5.3732,5.3866,5.3949,5.4013,5.4608,5.4906,5.4927,5.501,5.5104,5.5125,5.529,5.5421,5.5552,5.5713,5.5914,5.6165,5.6225,5.6264,5.629,5.633,5.6382,5.6362,5.6013,5.5733,5.5552,5.489,5.424,5.3688,5.2819,5.2126,5.1622,5.1404,5.1328,5.1328,5.1347,5.1328,5.1328,5.1347,5.1404,5.1571,5.159,5.1634,5.1842,5.2468,5.3002,5.3311,5.3823,5.426,5.4528,5.3875,5.3592,5.4251,5.4669,5.4941,5.5262,5.5992,5.6581,5.6633,5.7621,5.8264,5.8368,5.9252,5.9895,5.9981,6.0605,6.1074,6.1298,6.1475,6.1668,6.2016,6.2557,6.2993,6.3115,6.3761,6.3796,6.3343,6.3064,6.329,6.4093,6.4181,6.4182,6.4251,6.4287,6.434,6.4375,6.4427,6.4601,6.4741,6.5354,6.581,6.5986,6.6425,6.6917,6.7145,6.7215,6.7338,6.7619,6.8075,6.8164,5.5382,5.5382,5.5303,5.5416,5.5485,5.515,5.5116,5.5248,5.4656,5.4528,5.473,5.4507,5.4391,5.4412,5.457,5.4643,5.4664,5.4696,5.4685,5.4768,5.5131,5.536,5.5401,5.5766,5.5986,5.5966,5.5986,5.6006,5.6046,5.6086,5.6185,5.6349,5.6544,5.6738,5.6911,5.7082,5.7176,5.7195,5.7158,5.6776,5.6053,5.5326,5.4933,5.4835,5.4128,5.3716,5.3553,5.3632,5.358,5.3599,5.3547,5.3547,5.3547,5.358,5.3599,5.3586,5.3586,5.3713,5.387,5.4006,5.4194,5.4597,5.4715,5.5122,5.5907,5.5888,5.5762,5.5858,5.5951,5.6296,5.6969,5.7471,5.7777,5.7897,5.8801,5.9445,5.9565,6.0275,6.0881,6.0881,6.1215,6.1547,6.2202,6.2394,6.2725,6.3319,6.3655,6.3884,6.3937,6.4059,6.4287,6.4165,6.4147,6.4076,6.4234,6.4305,6.4393,6.4411,6.4568,6.469,6.483,6.5268,6.5707,6.5689,6.632,6.6829,6.6864,6.7023,6.7339,6.7936,6.8147,6.8287,6.8937,6.9148,6.8884,5.6267,5.6236,5.6041,5.6001,5.616,5.5995,5.6076,5.6283,5.6028,5.5932,5.605,5.6188,5.5676,5.4655,5.4864,5.5031,5.5155,5.5331,5.5442,5.5564,5.5746,5.5794,5.5846,5.6006,5.6165,5.6303,5.6402,5.6538,5.6622,5.6757,5.6853,5.693,5.7025,5.7101,5.7176,5.7271,5.7308,5.7308,5.7308,5.7139,5.682,5.6516,5.6132,5.5714,5.5289,5.4835,5.4471,5.4344,5.427,5.427,5.427,5.427,5.427,5.427,5.4293,5.4438,5.4549,5.4642,5.4734,5.5133,5.5455,5.5606,5.604,5.6556,5.7135,5.7205,5.7395,5.7931,5.7551,5.7527,5.8238,5.8653,5.9094,5.9573,6.0098,6.0414,6.0448,6.1315,6.187,6.1923,6.2356,6.2792,6.3246,6.3442,6.3671,6.4038,6.4234,6.4305,6.4323,6.4428,6.4533,6.455,6.4515,6.4516,6.4498,6.4533,6.4568,6.4672,6.5075,6.5373,6.5514,6.604,6.6532,6.6532,6.7234,6.7672,6.7707,6.8147,6.8586,6.8849,6.8919,6.9024,6.9359,6.9394,6.9218,5.7233,5.7284,5.706,5.7039,5.7162,5.6971,5.7039,5.7257,5.713,5.7098,5.7206,5.7621,5.7071,5.5894,5.5707,5.5754,5.5885,5.5884,5.5986,5.6185,5.6244,5.6303,5.633,5.6388,5.6519,5.6641,5.6796,5.6949,5.7082,5.7214,5.7327,5.7364,5.7383,5.7439,5.7532,5.7551,5.7569,5.7625,5.7625,5.7625,5.7625,5.7625,5.7278,5.6571,5.6356,5.6033,5.5499,5.5351,5.5244,5.5244,5.5277,5.5277,5.5277,5.5277,5.5351,5.5447,5.5627,5.577,5.5879,5.6383,5.6722,5.6847,5.7524,5.8057,5.8329,5.8572,5.9039,5.9682,5.9214,5.9018,5.9408,5.98,6.0255,6.0786,6.1121,6.1402,6.1436,6.2251,6.2825,6.2914,6.3277,6.3747,6.3929,6.4092,6.4217,6.4252,6.4375,6.4463,6.455,6.4778,6.5075,6.504,6.518,6.525,6.5075,6.5075,6.504,6.5391,6.59,6.6181,6.6268,6.6848,6.7339,6.7445,6.8058,6.8463,6.8533,6.9043,6.9324,6.9394,6.9394,6.9359,6.9394,6.9394,6.9394,5.8349,5.8523,5.8773,5.879,5.8812,5.814,5.7985,5.8247,5.7829,5.7717,5.7972,5.8243,5.8228,5.8088,5.7474,5.7114,5.7016,5.6479,5.6356,5.6573,5.6715,5.681,5.6968,5.7158,5.7285,5.7434,5.7471,5.7442,5.7394,5.736,5.7402,5.7588,5.7625,5.779,5.8063,5.8099,5.8259,5.8348,5.8366,5.8419,5.8419,5.8419,5.8027,5.7338,5.7241,5.7212,5.7159,5.7156,5.7122,5.7156,5.7107,5.7122,5.7156,5.7122,5.7126,5.7159,5.7159,5.7361,5.7673,5.7796,5.8009,5.8416,5.9014,5.9495,5.9529,6.0043,6.0524,6.0766,6.0756,6.0738,6.08,6.0893,6.1002,6.1174,6.1921,6.2374,6.2427,6.3032,6.3588,6.3769,6.3858,6.4052,6.4179,6.4287,6.4515,6.4586,6.4673,6.4812,6.497,6.5443,6.5777,6.597,6.6286,6.6637,6.604,6.5829,6.6145,6.6426,6.6602,6.6935,6.7234,6.755,6.7883,6.8269,6.8744,6.9113,6.9289,6.9359,6.9394,6.9394,6.9394,6.9394,6.9394,6.9394,6.9394,5.8801,5.886,5.8982,5.9184,5.9419,5.9151,5.9252,5.9621,5.9446,5.9455,5.9549,5.9897,6.0097,6.0064,5.961,5.8973,5.8302,5.7985,5.8085,5.8366,5.8464,5.8541,5.8599,5.8676,5.8868,5.9077,5.9096,5.8991,5.8791,5.8776,5.8574,5.8221,5.8153,5.8277,5.8384,5.8401,5.8437,5.849,5.849,5.849,5.8542,5.849,5.8348,5.8081,5.8063,5.8063,5.8063,5.8063,5.8063,5.8045,5.8063,5.8063,5.8063,5.8097,5.8063,5.8063,5.8063,5.8321,5.8889,5.8976,5.9286,5.9891,6.02,6.0392,6.0498,6.0774,6.1172,6.1727,6.1903,6.2093,6.2419,6.2231,6.2164,6.2612,6.2977,6.3224,6.3401,6.3645,6.3856,6.4037,6.418,6.4426,6.5004,6.5268,6.5549,6.5987,6.6093,6.6093,6.6163,6.6461,6.6602,6.6637,6.6795,6.7076,6.748,6.6883,6.6742,6.7023,6.7269,6.7637,6.7918,6.8392,6.8779,6.8779,6.9289,6.9359,6.9359,6.9394,6.9394,6.9412,6.9412,6.9466,6.9394,6.9643,6.9555,5.9229,5.9274,5.9375,5.9618,5.9913,5.9935,6.0109,6.0399,6.0581,6.0645,6.0729,6.1086,6.1293,6.1268,6.1086,6.0665,5.9984,5.9432,5.9264,5.9597,5.9641,5.9718,5.9775,5.9886,6.0024,6.0284,6.0321,6.0198,6.0027,5.9995,5.9722,5.9294,5.926,5.9261,5.9297,5.9315,5.9332,5.9386,5.9403,5.9403,5.9403,5.9403,5.9403,5.9403,5.9403,5.9093,5.8576,5.8713,5.8849,5.8884,5.9089,5.9243,5.926,5.9225,5.9225,5.9225,5.926,5.9466,5.9965,6.0033,6.0309,6.0895,6.1204,6.138,6.147,6.1695,6.2162,6.2685,6.2948,6.3208,6.3468,6.3263,6.3246,6.3625,6.3692,6.3765,6.3981,6.4208,6.4559,6.5018,6.5267,6.5548,6.5934,6.6145,6.6444,6.6953,6.6988,6.6988,6.7023,6.7251,6.7391,6.7427,6.769,6.8078,6.8413,6.8203,6.792,6.8113,6.8096,6.8429,6.8604,6.9131,6.9377,6.9412,6.9394,6.9394,6.9394,6.9394,6.9431,6.9468,6.9558,6.9594,6.9753,7.0036,7.0213,5.9716,5.976,6.0217,6.0335,6.0378,6.041,6.0432,6.0581,6.0919,6.1119,6.1148,6.1506,6.1689,6.1709,6.1689,6.1903,6.1818,6.0525,5.9929,6.0088,6.0207,6.0378,6.0563,6.0799,6.0944,6.0984,6.0884,6.085,6.0871,6.0837,6.0802,6.075,6.0631,6.0619,6.0933,6.078,6.0955,6.1028,6.1029,6.1115,6.1289,6.1081,6.1029,6.1115,6.1115,6.0336,5.8748,5.9295,5.9655,5.974,6.0305,6.0766,6.0665,6.0665,6.0716,6.0665,6.0716,6.0823,6.0984,6.102,6.1127,6.1544,6.2064,6.246,6.2565,6.3013,6.3411,6.3519,6.3698,6.3874,6.398,6.4088,6.4108,6.3963,6.4031,6.4138,6.444,6.4911,6.568,6.6438,6.6635,6.6917,6.7005,6.7005,6.7129,6.7269,6.7304,6.7339,6.7445,6.7884,6.8147,6.834,6.8624,6.9049,6.935,6.9562,6.9453,6.9345,6.9223,6.9258,6.9224,6.9524,6.9542,6.9524,6.9577,6.9559,6.9577,6.9577,6.956,6.9597,6.9703,6.9951,7.0323,7.0731,7.1281,6.0163,6.0184,6.0313,6.0602,6.0856,6.0877,6.1011,6.1301,6.1478,6.1506,6.1547,6.1777,6.201,6.2203,6.2322,6.2537,6.2721,6.2149,6.196,6.1949,6.2006,6.2063,6.2154,6.2264,6.2376,6.2541,6.2655,6.2435,6.2023,6.1954,6.1731,6.1266,6.1197,6.1146,6.1251,6.12,6.1235,6.1323,6.1323,6.1323,6.1323,6.1323,6.1323,6.1323,6.1323,6.0942,6.0509,6.0663,6.0784,6.0766,6.1025,6.1163,6.1145,6.1163,6.1128,6.1128,6.1128,6.1456,6.1957,6.2026,6.2269,6.2772,6.3135,6.3293,6.3437,6.3663,6.3891,6.3965,6.409,6.4265,6.4751,6.4926,6.4963,6.489,6.489,6.5206,6.5805,6.6264,6.6564,6.6846,6.6987,6.7216,6.7672,6.7813,6.8006,6.8446,6.8551,6.8551,6.8675,6.8819,6.9155,6.9225,6.9616,6.9723,6.9795,6.9813,6.9795,6.9723,6.9687,6.9633,6.9651,6.9669,6.9687,6.9687,6.9687,6.9687,6.9705,6.9829,6.9882,7.006,7.0326,7.0663,7.1053,7.1568,7.2189,6.0729,6.076,6.0844,6.1032,6.1314,6.1314,6.1478,6.1689,6.179,6.187,6.1971,6.2169,6.2386,6.2615,6.2751,6.2923,6.3095,6.3114,6.3152,6.3208,6.3133,6.3114,6.3133,6.3208,6.3283,6.3396,6.3544,6.3358,6.2928,6.2875,6.2634,6.222,6.2151,6.2186,6.2151,6.2151,6.2151,6.2151,6.2186,6.2151,6.2151,6.2151,6.2151,6.2151,6.2151,6.2151,6.2151,6.2151,6.2013,6.1875,6.1979,6.2151,6.2151,6.2186,6.2151,6.2151,6.2186,6.2427,6.2859,6.291,6.3137,6.3588,6.371,6.3801,6.3947,6.4036,6.4159,6.4527,6.4704,6.5019,6.5681,6.5928,6.6051,6.6383,6.6066,6.633,6.7088,6.739,6.7637,6.7813,6.7971,6.8147,6.8463,6.8673,6.885,6.9362,6.9504,6.9559,6.956,6.9599,6.967,6.9706,6.9795,6.9884,6.9991,7.0044,7.0062,7.0009,6.9973,6.9884,6.9796,6.9796,6.9796,6.9796,6.9796,6.9813,6.9831,7.0291,7.0486,7.0735,7.1108,7.1765,7.2316,7.2636,7.3206,6.1351,6.1558,6.1742,6.1903,6.1944,6.1897,6.1937,6.1931,6.203,6.2229,6.244,6.2596,6.2808,6.2981,6.3019,6.3133,6.3283,6.3321,6.3414,6.3507,6.3433,6.334,6.334,6.3452,6.3544,6.3581,6.36,6.3565,6.3462,6.3496,6.3618,6.3393,6.3358,6.3531,6.3358,6.3549,6.3427,6.3358,6.3427,6.3427,6.3427,6.3496,6.3462,6.3462,6.3427,6.3393,6.3358,6.3358,6.317,6.2756,6.3082,6.3358,6.3531,6.3565,6.3427,6.3358,6.3531,6.348,6.3549,6.3517,6.3659,6.3874,6.4049,6.4087,6.4336,6.4581,6.4895,6.5384,6.558,6.6019,6.6685,6.6932,6.7356,6.7952,6.7509,6.7509,6.8092,6.8269,6.8498,6.9061,6.9377,6.9396,6.9327,6.9362,6.947,6.9561,6.9651,6.9723,6.9813,6.9831,6.9885,6.992,6.9991,7.0097,7.0202,7.0219,7.0237,7.0237,7.0202,7.0132,7.0026,7.0009,7.0044,6.9991,7.0026,6.9973,7.0204,7.0736,7.1179,7.1535,7.2157,7.3012,7.3457,7.3653,7.3974,6.2724,6.3321,6.3383,6.3487,6.3571,6.3209,6.3099,6.3204,6.2858,6.2853,6.29,6.2904,6.314,6.3208,6.3261,6.3321,6.3523,6.3526,6.3618,6.3818,6.3799,6.3637,6.3563,6.3581,6.3618,6.3618,6.3637,6.36,6.36,6.3637,6.3618,6.36,6.3618,6.3618,6.36,6.3618,6.36,6.36,6.36,6.36,6.36,6.36,6.36,6.36,6.36,6.36,6.36,6.36,6.3549,6.3377,6.3462,6.36,6.36,6.36,6.36,6.3618,6.3653,6.3673,6.3818,6.3889,6.3962,6.4142,6.47,6.5015,6.5248,6.579,6.6211,6.6511,6.66,6.6934,6.7653,6.7865,6.8287,6.8884,6.8725,6.8725,6.8954,6.9113,6.922,6.9489,6.9525,6.9615,6.9705,6.9741,6.9759,6.9831,6.9813,6.9831,6.9956,7.0044,7.0132,7.0184,7.0237,7.0359,7.0428,7.0428,7.0445,7.0463,7.0393,7.0375,7.0324,7.0324,7.0341,7.0376,7.0485,7.0486,7.093,7.1462,7.1871,7.2371,7.3066,7.3832,7.4064,7.4278,7.4599,6.3868,6.4375,6.4491,6.4613,6.4667,6.4381,6.433,6.4346,6.4123,6.4034,6.4091,6.4091,6.4206,6.4343,6.4052,6.4027,6.4159,6.3848,6.3838,6.3983,6.4001,6.3947,6.3874,6.3856,6.3856,6.3856,6.3838,6.3856,6.3856,6.3856,6.3856,6.3838,6.3765,6.3728,6.371,6.3637,6.36,6.36,6.36,6.36,6.36,6.36,6.36,6.36,6.36,6.36,6.36,6.36,6.36,6.36,6.36,6.36,6.36,6.36,6.3637,6.3745,6.4005,6.4304,6.452,6.4748,6.5082,6.5315,6.5734,6.5964,6.6213,6.6652,6.6986,6.7444,6.7497,6.7936,6.8498,6.8728,6.9048,6.9456,6.9597,6.956,6.9522,6.9525,6.9633,6.9688,6.9724,6.9742,6.9867,6.9885,6.9973,7.0009,7.0026,7.0097,7.0167,7.0254,7.0306,7.0341,7.0358,7.0445,7.0463,7.048,7.048,7.0497,7.0514,7.0514,7.0514,7.0514,7.0533,7.0604,7.0835,7.1156,7.1656,7.2227,7.287,7.3422,7.4065,7.4421,7.4635,7.4635,7.5028,6.4938,6.5167,6.5434,6.5533,6.5548,6.5485,6.5416,6.5436,6.5304,6.5333,6.545,6.5572,6.5516,6.588,6.5139,6.4972,6.5124,6.4657,6.4384,6.4371,6.4338,6.4251,6.4234,6.4144,6.4161,6.4127,6.418,6.4162,6.4127,6.4144,6.418,6.4109,6.3965,6.3963,6.3874,6.3747,6.3655,6.3655,6.3618,6.36,6.36,6.36,6.36,6.36,6.36,6.36,6.3653,6.374,6.3828,6.3775,6.3687,6.3687,6.3687,6.3775,6.3989,6.4325,6.4883,6.5269,6.5485,6.601,6.6467,6.6631,6.6772,6.6966,6.7127,6.7338,6.7725,6.8342,6.834,6.8711,6.9206,6.9508,6.9635,6.9831,6.9867,6.9831,6.9742,6.9796,6.9885,6.9956,6.9938,6.9956,6.9973,6.9991,7.0044,7.0202,7.0219,7.0272,7.0324,7.0375,7.041,7.0463,7.048,7.0497,7.0497,7.0497,7.0497,7.0514,7.0514,7.0514,7.0514,7.0514,7.0621,7.0764,7.1121,7.1656,7.2263,7.2941,7.3672,7.4172,7.46,7.4921,7.5135,7.5028,7.5206,6.6384,6.6936,6.6997,6.7017,6.6969,6.6562,6.6401,6.6387,6.5959,6.5899,6.5853,6.5853,6.6002,6.6157,6.6003,6.5977,6.6144,6.5902,6.5731,6.5231,6.4761,6.4638,6.4568,6.4445,6.4285,6.4251,6.4198,6.4233,6.4233,6.4234,6.4233,6.4198,6.4162,6.4161,6.4091,6.3929,6.3854,6.3836,6.3692,6.3637,6.3618,6.3618,6.3618,6.3653,6.3687,6.3653,6.3775,6.43,6.4669,6.4528,6.4143,6.409,6.4581,6.4703,6.5056,6.5655,6.5988,6.627,6.6452,6.6681,6.6823,6.7126,6.7618,6.7917,6.797,6.8516,6.8905,6.9242,6.9332,6.9386,6.9689,6.9796,6.9867,6.9938,7.0062,7.0132,7.0079,6.9956,7.0009,7.0097,7.0149,7.0184,7.0324,7.0306,7.0358,7.041,7.041,7.0463,7.048,7.0514,7.0514,7.0514,7.0514,7.0514,7.0599,7.0616,7.0615,7.0758,7.0776,7.0831,7.0831,7.0905,7.1137,7.1334,7.1513,7.2156,7.2941,7.3476,7.4172,7.4635,7.4992,7.5099,7.5206,7.5206,7.5206,6.7295,6.7638,6.7739,6.7779,6.7731,6.7487,6.7374,6.7325,6.7079,6.693,6.6949,6.7027,6.7123,6.7203,6.7005,6.6981,6.7043,6.6839,6.658,6.6249,6.5917,6.5812,6.5759,6.5513,6.5249,6.462,6.4446,6.4446,6.4446,6.4463,6.4463,6.4428,6.4358,6.4287,6.4252,6.4161,6.4037,6.4019,6.3929,6.3838,6.3765,6.3728,6.397,6.4233,6.4373,6.4532,6.502,6.5405,6.5669,6.5581,6.523,6.5142,6.5581,6.5722,6.6058,6.6518,6.7027,6.7258,6.7421,6.7791,6.8091,6.8076,6.8606,6.8766,6.8907,6.9384,6.958,6.9706,6.9742,6.9813,7.0026,7.0044,7.0079,7.0184,7.0272,7.0394,7.0445,7.0306,7.0219,7.0306,7.0324,7.0411,7.048,7.0548,7.0496,7.0478,7.0461,7.0514,7.0497,7.0514,7.0514,7.0514,7.0514,7.0548,7.065,7.0735,7.08,7.0996,7.1299,7.1426,7.1534,7.1647,7.1813,7.1976,7.2226,7.2941,7.3637,7.4172,7.4528,7.4885,7.5135,7.5171,7.5206,7.5206,7.5206,6.7688,6.7688,6.797,6.8083,6.8083,6.8049,6.8029,6.8083,6.8123,6.7955,6.8182,6.8358,6.8266,6.8378,6.8025,6.7969,6.7926,6.7494,6.718,6.7128,6.6865,6.6725,6.676,6.6637,6.6215,6.5145,6.518,6.518,6.518,6.5075,6.5303,6.511,6.4971,6.5075,6.4848,6.4724,6.4791,6.4843,6.4789,6.4682,6.452,6.4502,6.4779,6.5128,6.5375,6.5657,6.6146,6.6514,6.6725,6.6725,6.6848,6.6936,6.6902,6.6744,6.6904,6.7191,6.7839,6.8158,6.8408,6.8902,6.929,6.9449,6.9543,6.9599,6.9635,6.9724,6.9849,6.9956,7.0009,7.0079,7.0254,7.0306,7.0393,7.0513,7.0564,7.0667,7.0752,7.0684,7.0581,7.0564,7.0598,7.0649,7.0632,7.0665,7.0598,7.0564,7.0547,7.0547,7.0547,7.0547,7.0598,7.0649,7.0682,7.1057,7.1213,7.1371,7.1364,7.1737,7.2022,7.2166,7.2401,7.2766,7.2935,7.2778,7.3065,7.3726,7.4225,7.4635,7.4921,7.5171,7.5206,7.5206,7.5206,7.5206,7.5206,6.7148,6.7182,6.7842,6.8083,6.8083,6.8083,6.8103,6.8123,6.828,6.8358,6.8377,6.8571,6.8797,6.8841,6.8898,6.8943,6.8846,6.8339,6.7988,6.7883,6.7497,6.7234,6.7269,6.7304,6.6953,6.6725,6.6584,6.6584,6.6479,6.6619,6.6356,6.6514,6.6461,6.6391,6.6302,6.6405,6.614,6.6052,6.5962,6.5853,6.5851,6.5867,6.5953,6.6215,6.6324,6.6481,6.6744,6.7289,6.7677,6.7731,6.8473,6.8774,6.8615,6.8049,6.8086,6.8563,6.8882,6.9024,6.915,6.9365,6.956,6.9598,6.9724,6.9831,6.9849,6.9902,7.0079,7.0202,7.0324,7.0461,7.0667,7.0667,7.0733,7.0867,7.0864,7.0897,7.0913,7.0913,7.088,7.0933,7.0933,7.09,7.085,7.0817,7.0781,7.0764,7.0764,7.0781,7.0781,7.0814,7.0864,7.0897,7.093,7.1433,7.1881,7.2041,7.2216,7.277,7.3075,7.3183,7.3473,7.3981,7.4112,7.3954,7.3904,7.428,7.4744,7.5101,7.5154,7.5244,7.5225,7.5225,7.5206,7.5206,7.5206,6.6447,6.6516,6.7241,6.7532,6.762,6.8063,6.8241,6.828,6.8455,6.8551,6.8628,6.8816,6.8967,6.9096,6.9209,6.9302,6.9217,6.906,6.8814,6.8673,6.8428,6.8252,6.8182,6.8182,6.8252,6.8252,6.8217,6.769,6.7076,6.6953,6.7058,6.6988,6.6988,6.6988,6.697,6.6846,6.695,6.6914,6.6825,6.6769,6.6696,6.6678,6.6817,6.7168,6.7381,6.7558,6.8049,6.8331,6.8685,6.8774,6.9128,6.934,6.9253,6.9131,6.8937,6.9307,6.9451,6.9506,6.9524,6.9669,6.9742,6.9795,6.992,7.0026,7.0132,7.0237,7.041,7.0545,7.0682,7.08,7.0883,7.0936,7.0933,7.0963,7.1012,7.1061,7.1146,7.1162,7.1211,7.1207,7.1094,7.1012,7.0963,7.0946,7.0979,7.0996,7.1012,7.1012,7.1029,7.1061,7.111,7.1395,7.1572,7.2326,7.2811,7.3061,7.331,7.3832,7.4157,7.4249,7.4485,7.4954,7.516,7.5184,7.5189,7.5066,7.5156,7.5442,7.5406,7.5316,7.5262,7.5261,7.5225,7.5206,7.5206,6.5654,6.5723,6.652,6.6831,6.6973,6.7858,6.8212,6.832,6.8651,6.8781,6.88,6.9024,6.9153,6.9209,6.9302,6.9394,6.9394,6.9359,6.9324,6.9324,6.9253,6.9324,6.9414,6.9449,6.9327,6.9169,6.9221,6.8745,6.7936,6.769,6.755,6.7655,6.755,6.748,6.7567,6.7742,6.748,6.748,6.748,6.7425,6.7334,6.7368,6.7578,6.8156,6.839,6.8725,6.9093,6.9217,6.9252,6.9305,6.9396,6.9449,6.9451,6.9561,6.958,6.9524,6.958,6.9634,6.9706,6.9867,6.9973,6.9991,7.0202,7.0289,7.0393,7.0581,7.0833,7.0963,7.0979,7.0996,7.1029,7.1045,7.1078,7.111,7.1143,7.1159,7.134,7.1436,7.1479,7.1431,7.1272,7.1207,7.1207,7.1175,7.1207,7.1207,7.1223,7.1207,7.1223,7.1272,7.1428,7.1894,7.2376,7.3273,7.3829,7.4183,7.4522,7.5006,7.5317,7.5466,7.5631,7.5904,7.6005,7.5976,7.5946,7.5826,7.5849,7.571,7.5621,7.5514,7.5352,7.528,7.5298,7.5261,7.5206,6.4841,6.4929,6.5805,6.6208,6.6349,6.7285,6.7708,6.7816,6.8546,6.9059,6.8973,6.9211,6.9268,6.9357,6.9357,6.9394,6.9394,6.9412,6.9431,6.9431,6.9449,6.9487,6.9578,6.9597,6.9597,6.9597,6.9597,6.947,6.8975,6.8904,6.9008,6.8937,6.8832,6.9043,6.8744,6.8727,6.9113,6.9078,6.9043,6.8989,6.8953,6.8917,6.9023,6.9111,6.9165,6.9237,6.9396,6.9431,6.9431,6.9449,6.9542,6.9561,6.9598,6.9742,6.9831,6.9867,6.9867,6.9849,6.992,7.0079,7.0202,7.0272,7.0478,7.0667,7.0769,7.085,7.1015,7.0979,7.1029,7.1143,7.1256,7.1292,7.134,7.1384,7.1447,7.1546,7.1656,7.1656,7.1749,7.1759,7.1651,7.1557,7.151,7.1463,7.1467,7.1431,7.1431,7.1431,7.1519,7.1691,7.2153,7.2708,7.3393,7.424,7.4821,7.5192,7.5507,7.6061,7.6211,7.6361,7.6417,7.6458,7.6563,7.6574,7.6515,7.6331,7.6091,7.5919,7.5815,7.5692,7.555,7.5496,7.546,7.5352,7.5261,6.4359,6.4318,6.5264,6.5669,6.5757,6.6672,6.7078,6.7185,6.7683,6.8159,6.8563,6.8654,6.8954,6.9289,6.9394,6.9394,6.9412,6.9504,6.9506,6.9542,6.9615,6.9705,6.9742,6.976,6.976,6.976,6.9795,6.9777,6.9633,6.9504,6.9394,6.9394,6.9394,6.9324,6.9394,6.9394,6.9394,6.9359,6.9359,6.9394,6.9394,6.9394,6.9394,6.9394,6.9394,6.9449,6.9487,6.9506,6.9578,6.9651,6.9777,6.976,6.9796,6.9956,7.0079,7.0079,7.0184,7.0184,7.0132,7.0358,7.0497,7.0564,7.075,7.0933,7.1068,7.113,7.1292,7.1452,7.1452,7.1531,7.162,7.1682,7.1749,7.178,7.1713,7.1826,7.1888,7.1903,7.1948,7.1957,7.2003,7.1897,7.1821,7.1805,7.1759,7.1713,7.1765,7.178,7.205,7.2351,7.2979,7.3718,7.4499,7.5279,7.581,7.6227,7.625,7.6605,7.6526,7.6708,7.6808,7.6897,7.6882,7.6834,7.6725,7.6528,7.6328,7.6142,7.5971,7.5867,7.5762,7.5674,7.5585,7.5478,7.5352,6.4162,6.4106,6.4772,6.507,6.5175,6.6088,6.6475,6.6546,6.6899,6.7356,6.7848,6.8129,6.8568,6.9043,6.929,6.9486,6.9451,6.958,6.9652,6.9724,6.9796,6.9938,6.9973,6.9991,6.9956,6.9991,6.9956,6.9938,6.9813,6.9669,6.9524,6.9432,6.9451,6.9431,6.9394,6.9394,6.9394,6.9394,6.9394,6.9412,6.9468,6.9432,6.9504,6.9522,6.9506,6.956,6.9669,6.967,6.976,6.9867,6.9956,6.9991,7.0009,7.0167,7.0306,7.0358,7.0497,7.0513,7.0496,7.0615,7.0785,7.0902,7.1032,7.1243,7.1388,7.1436,7.1531,7.1796,7.1796,7.1888,7.1957,7.1973,7.1942,7.1948,7.1964,7.2024,7.2084,7.2084,7.2144,7.2218,7.2248,7.2182,7.2122,7.2122,7.2078,7.2003,7.2039,7.2106,7.2559,7.3012,7.3861,7.4659,7.553,7.6204,7.6517,7.692,7.7056,7.7124,7.7045,7.7061,7.7171,7.7087,7.7024,7.6945,7.6897,7.6817,7.6708,7.6429,7.6123,7.6125,7.6039,7.5832,7.5709,7.5585,7.5424,6.4376,6.4358,6.4446,6.4515,6.4568,6.5531,6.5952,6.597,6.6619,6.6935,6.7181,6.7778,6.8147,6.8499,6.9118,6.9491,6.958,6.9778,6.9884,6.9902,6.992,7.0062,7.0132,7.0184,7.0184,7.0184,7.0184,7.0097,6.9973,6.9973,6.9742,6.9598,6.9598,6.9506,6.9486,6.9486,6.9486,6.9486,6.9486,6.9541,6.9578,6.9598,6.9687,6.9778,6.9831,6.9849,6.9902,6.9902,6.9902,6.9991,7.0149,7.0219,7.0254,7.041,7.0582,7.0684,7.0718,7.0766,7.0867,7.085,7.0867,7.1048,7.1256,7.1531,7.1687,7.1888,7.1957,7.1957,7.2009,7.2003,7.2018,7.2003,7.2063,7.2114,7.2144,7.2189,7.2218,7.2248,7.2307,7.246,7.2423,7.2365,7.2351,7.2336,7.2277,7.2152,7.221,7.2262,7.3214,7.3829,7.4784,7.5672,7.6524,7.7053,7.7142,7.732,7.7417,7.7448,7.7402,7.7433,7.7508,7.7402,7.7258,7.7181,7.715,7.7139,7.7045,7.6757,7.6545,7.6462,7.6311,7.6074,7.5814,7.5621,7.5442,6.455,6.4585,6.4585,6.4585,6.4637,6.5022,6.5162,6.5198,6.5461,6.59,6.6374,6.7129,6.7814,6.8344,6.8698,6.9282,6.9742,7.0009,7.0026,7.0132,7.0202,7.0289,7.0358,7.0358,7.0358,7.0358,7.0358,7.0394,7.0289,7.0219,7.0149,7.0009,6.9849,6.976,6.9723,6.9669,6.9687,6.9687,6.9687,6.9741,6.9777,6.9778,6.9813,6.9867,6.9885,6.9991,7.0062,7.0097,7.0167,7.0272,7.0463,7.0531,7.053,7.0699,7.0817,7.0916,7.0916,7.1032,7.1162,7.1146,7.1211,7.1452,7.1625,7.1765,7.1918,7.1973,7.2063,7.2129,7.2174,7.2204,7.2307,7.2321,7.2336,7.2321,7.2321,7.2336,7.2351,7.2402,7.2431,7.2504,7.2518,7.2467,7.2467,7.2467,7.2409,7.2351,7.2409,7.2629,7.3604,7.4463,7.5345,7.6228,7.7067,7.7443,7.7532,7.7607,7.7718,7.7718,7.7718,7.7718,7.7732,7.7718,7.7577,7.7539,7.7417,7.7326,7.7202,7.7045,7.6854,7.6627,7.6445,7.6261,7.5988,7.5691,7.5478,6.4689,6.4689,6.4689,6.4689,6.4689,6.4689,6.4689,6.4689,6.4724,6.5021,6.5671,6.6409,6.713,6.7764,6.8258,6.8805,6.9424,6.9794,7.0041,7.0252,7.0393,7.0497,7.0514,7.0497,7.048,7.0514,7.0514,7.0497,7.048,7.0497,7.0411,7.0254,7.0149,7.0062,6.9867,6.9885,6.9885,6.9885,6.9885,6.9938,6.9973,7.0009,7.0062,7.0061,7.0096,7.0167,7.0289,7.0341,7.0463,7.0599,7.0735,7.0836,7.0883,7.0949,7.1048,7.1097,7.1143,7.1223,7.1388,7.1504,7.1562,7.1765,7.1903,7.1994,7.2069,7.2144,7.2263,7.2307,7.2336,7.2416,7.2532,7.2452,7.2452,7.2409,7.2423,7.2438,7.2438,7.2489,7.2504,7.2532,7.2532,7.2496,7.2524,7.2539,7.2524,7.2496,7.251,7.3024,7.4184,7.5007,7.5698,7.6567,7.7386,7.7651,7.7769,7.7813,7.7842,7.7856,7.7856,7.7842,7.7842,7.7842,7.7776,7.7599,7.7493,7.7478,7.7356,7.7171,7.695,7.6725,7.6528,7.6311,7.6074,7.5779,7.5603,6.4689,6.4689,6.4689,6.4689,6.4689,6.4689,6.4689,6.4706,6.4723,6.4879,6.5209,6.5896,6.6369,6.6788,6.7544,6.8268,6.8958,6.9289,6.9678,7.0159,7.0409,7.0478,7.0514,7.0514,7.0514,7.0514,7.0514,7.0514,7.0514,7.0514,7.048,7.048,7.0358,7.0254,6.992,6.9902,6.9885,6.9902,6.992,7.0062,7.0167,7.0202,7.0272,7.0341,7.041,7.0444,7.0514,7.0615,7.0735,7.0802,7.0916,7.1015,7.1032,7.1065,7.1162,7.1292,7.1399,7.1542,7.1749,7.1801,7.1872,7.1994,7.2099,7.224,7.2314,7.2402,7.2438,7.2438,7.2452,7.2504,7.2532,7.2532,7.2532,7.2532,7.2532,7.2532,7.2532,7.2532,7.2532,7.2532,7.2532,7.251,7.2553,7.2596,7.261,7.2624,7.2653,7.3394,7.4615,7.5328,7.5959,7.6926,7.7708,7.7826,7.7943,7.7986,7.8,7.8014,7.8014,7.8014,7.7986,7.7957,7.785,7.7695,7.7599,7.7584,7.7463,7.731,7.7045,7.679,7.6528,7.6311,7.6074,7.5867,7.5674,6.4689,6.4689,6.4689,6.4689,6.4689,6.4689,6.4689,6.4723,6.4826,6.5031,6.5218,6.5517,6.6043,6.6566,6.6934,6.7603,6.8344,6.9109,6.9605,6.9712,7.0193,7.0443,7.0478,7.0478,7.0514,7.0514,7.0514,7.0514,7.0514,7.0514,7.0514,7.0514,7.0497,7.0445,7.0324,7.0289,7.0289,7.0289,7.0306,7.0324,7.0411,7.0375,7.041,7.0514,7.0633,7.0684,7.0701,7.0833,7.0916,7.0949,7.1114,7.1195,7.1227,7.1276,7.1436,7.1562,7.1703,7.1826,7.2009,7.2151,7.2166,7.2204,7.2248,7.2373,7.2446,7.2452,7.2481,7.2532,7.2532,7.2532,7.2532,7.2532,7.2532,7.2532,7.2532,7.2532,7.2532,7.2532,7.2532,7.2532,7.2532,7.2582,7.2638,7.2765,7.2793,7.2821,7.2863,7.3748,7.4943,7.5462,7.6055,7.7208,7.7991,7.8085,7.815,7.815,7.8165,7.8165,7.8193,7.8207,7.8179,7.8108,7.8008,7.7864,7.7776,7.7688,7.7493,7.7295,7.7056,7.6817,7.6574,7.6326,7.6089,7.5901,7.5727,6.4689,6.4706,6.4758,6.4792,6.4792,6.4792,6.4861,6.4894,6.5065,6.5216,6.5349,6.5382,6.5729,6.6235,6.6462,6.6851,6.7731,6.8195,6.8785,6.8927,6.9676,6.9926,7.0069,7.0354,7.0478,7.0514,7.0514,7.0514,7.0514,7.0514,7.0514,7.0514,7.0514,7.0497,7.0444,7.048,7.048,7.0427,7.0463,7.048,7.0514,7.0548,7.0599,7.0667,7.0769,7.0886,7.09,7.0999,7.1078,7.1126,7.126,7.1404,7.1467,7.1562,7.1703,7.1811,7.1948,7.2084,7.2263,7.2336,7.2336,7.2351,7.2351,7.2394,7.2467,7.2481,7.2496,7.2532,7.2532,7.2532,7.2532,7.2532,7.2532,7.2532,7.2532,7.2532,7.2496,7.2496,7.251,7.251,7.2596,7.2667,7.2765,7.2941,7.3037,7.3077,7.3142,7.415,7.5135,7.5579,7.6217,7.7446,7.8179,7.8207,7.8235,7.8248,7.8262,7.829,7.829,7.829,7.8276,7.8207,7.8136,7.8,7.7864,7.7688,7.7493,7.7279,7.704,7.6886,7.6676,7.6429,7.614,7.5936,7.5745,6.4706,6.4723,6.4946,6.5031,6.4979,6.5048,6.5149,6.5299,6.5299,6.5398,6.551,6.551,6.5698,6.5791,6.5823,6.6251,6.691,6.714,6.7604,6.823,6.9087,6.9284,6.9712,7.014,7.0407,7.0514,7.0514,7.0514,7.0514,7.0514,7.0514,7.0514,7.0514,7.0514,7.0514,7.0548,7.0531,7.0531,7.0565,7.0565,7.0599,7.0718,7.0769,7.0852,7.0916,7.1015,7.1081,7.1195,7.1292,7.1372,7.1467,7.1609,7.1718,7.1816,7.1903,7.2024,7.2174,7.2321,7.2423,7.2452,7.2467,7.2452,7.2467,7.2496,7.2496,7.2532,7.2532,7.2532,7.2532,7.2532,7.2532,7.2532,7.2532,7.2532,7.2532,7.2496,7.2496,7.251,7.2524,7.2582,7.2695,7.2807,7.2931,7.3105,7.3199,7.3225,7.3437,7.4216,7.5092,7.5554,7.6364,7.7752,7.8262,7.8276,7.829,7.829,7.829,7.829,7.829,7.829,7.829,7.8262,7.8099,7.7971,7.7864,7.7688,7.7448,7.7212,7.7061,7.687,7.6692,7.6495,7.6225,7.5953,7.5763,6.5014,6.5132,6.5199,6.5232,6.5232,6.5297,6.5379,6.5464,6.5428,6.5526,6.5724,6.5724,6.574,6.5804,6.5804,6.5946,6.6268,6.6712,6.7069,6.7711,6.848,6.907,6.9569,6.9998,7.0371,7.0514,7.0514,7.0514,7.0514,7.0514,7.0514,7.0514,7.0531,7.0531,7.0565,7.0633,7.0616,7.0599,7.0667,7.0684,7.0752,7.0886,7.0916,7.0999,7.1114,7.1195,7.126,7.1372,7.1483,7.164,7.1672,7.178,7.1912,7.1964,7.2003,7.2189,7.2336,7.2452,7.2481,7.2532,7.2532,7.2532,7.2532,7.2532,7.2496,7.2532,7.2532,7.2532,7.2532,7.2532,7.2532,7.2532,7.2532,7.2532,7.2532,7.2496,7.251,7.2567,7.2596,7.2737,7.2849,7.2972,7.3131,7.3239,7.3318,7.3357,7.3667,7.441,7.5078,7.5551,7.6493,7.7881,7.829,7.829,7.829,7.829,7.829,7.829,7.8276,7.8262,7.8248,7.8193,7.8057,7.7914,7.7725,7.7547,7.735,7.715,7.6982,7.6854,7.6676,7.6512,7.6311,7.6024,7.5763,6.5199,6.5299,6.5365,6.5431,6.5513,6.5594,6.5607,6.5591,6.5607,6.5672,6.5788,6.5804,6.5804,6.5804,6.5804,6.5839,6.5875,6.6232,6.6482,6.6803,6.7873,6.8373,6.8944,6.9641,7.014,7.0336,7.0514,7.0514,7.0514,7.0514,7.0514,7.0514,7.0565,7.0616,7.0667,7.0785,7.08,7.0783,7.08,7.0833,7.0933,7.1032,7.1114,7.1143,7.1308,7.1404,7.1467,7.1593,7.1703,7.1842,7.1872,7.1964,7.2114,7.2189,7.2233,7.2402,7.2423,7.2481,7.2532,7.2532,7.2532,7.2532,7.2532,7.2532,7.2532,7.2532,7.2532,7.2532,7.2532,7.2532,7.2532,7.2532,7.2532,7.2532,7.2532,7.2532,7.2553,7.2624,7.2751,7.289,7.305,7.3172,7.3292,7.3333,7.3385,7.3372,7.3707,7.4325,7.5031,7.5639,7.6679,7.7993,7.8253,7.829,7.829,7.8276,7.8276,7.8248,7.8193,7.8179,7.8179,7.808,7.79,7.7754,7.7592,7.7411,7.7212,7.7092,7.6918,7.6773,7.661,7.6395,7.6193,7.6007,7.578,6.5332,6.5365,6.5445,6.5607,6.5788,6.5788,6.5788,6.5804,6.5788,6.5804,6.5804,6.5804,6.5804,6.5804,6.5804,6.5804,6.5804,6.5946,6.6018,6.5875,6.691,6.7624,6.8373,6.8927,6.9819,7.03,7.0514,7.0514,7.0478,7.0548,7.0582,7.0548,7.0718,7.0802,7.0836,7.0949,7.1015,7.1032,7.1081,7.1146,7.1114,7.1211,7.1376,7.1372,7.1499,7.164,7.1749,7.1826,7.1872,7.1957,7.2033,7.2129,7.2277,7.238,7.2452,7.2504,7.2481,7.2496,7.2532,7.2532,7.2532,7.2532,7.2532,7.2532,7.2532,7.2532,7.2532,7.2532,7.2532,7.2532,7.2532,7.2532,7.2532,7.2532,7.2532,7.2524,7.2596,7.2737,7.2931,7.3105,7.3199,7.3305,7.3344,7.3385,7.3385,7.3385,7.3571,7.4166,7.5044,7.5713,7.6777,7.7979,7.8216,7.8276,7.8276,7.8262,7.8248,7.8207,7.8071,7.8014,7.7986,7.7893,7.7747,7.7584,7.7402,7.7279,7.7108,7.6934,7.6773,7.6643,7.6462,7.6244,7.6039,7.5885,7.5745,6.5562,6.5691,6.5724,6.5756,6.5804,6.5804,6.5804,6.5804,6.5804,6.5804,6.5804,6.5804,6.5804,6.5804,6.5804,6.5804,6.5804,6.5804,6.5804,6.6018,6.6553,6.7228,6.8104,6.8799,6.9675,7.0264,7.0514,7.0548,7.0547,7.065,7.0754,7.0735,7.0902,7.0966,7.0982,7.1146,7.1243,7.1276,7.1436,7.142,7.1324,7.1515,7.1708,7.1703,7.1796,7.1851,7.1964,7.1979,7.2069,7.2189,7.2204,7.2307,7.2438,7.2467,7.2481,7.2532,7.2532,7.2532,7.2532,7.2532,7.2532,7.2532,7.2532,7.2532,7.2532,7.2532,7.2532,7.2532,7.2532,7.2532,7.2532,7.2532,7.2532,7.2532,7.2496,7.2567,7.2638,7.2876,7.3145,7.3252,7.3331,7.3346,7.3372,7.3385,7.3385,7.3385,7.3385,7.3906,7.5068,7.5922,7.6773,7.7775,7.8151,7.8276,7.8235,7.8179,7.8122,7.8066,7.7928,7.7871,7.7827,7.7703,7.7524,7.7326,7.7155,7.7061,7.6934,7.6757,7.6647,7.6478,7.6295,7.6057,7.5884,7.5727,7.5603,6.5707,6.5804,6.5804,6.5804,6.5804,6.5804,6.5804,6.5804,6.5804,6.5804,6.5804,6.5804,6.5804,6.5804,6.5804,6.5804,6.5804,6.5804,6.5804,6.5982,6.63,6.6903,6.7705,6.856,6.9358,7.0002,7.0573,7.075,7.0716,7.08,7.0919,7.0936,7.1048,7.1162,7.1195,7.1356,7.1499,7.1515,7.1765,7.1765,7.1609,7.1796,7.1888,7.1897,7.1979,7.2033,7.2129,7.2144,7.2233,7.2321,7.2402,7.2394,7.2467,7.2481,7.2496,7.2532,7.2532,7.2532,7.2532,7.2532,7.2532,7.2532,7.2532,7.2532,7.2532,7.2532,7.2532,7.2532,7.2532,7.2532,7.2532,7.2532,7.2532,7.2532,7.2561,7.2582,7.2765,7.3023,7.3212,7.3307,7.3359,7.3359,7.3385,7.3385,7.3423,7.3534,7.3534,7.4161,7.5237,7.6013,7.6926,7.7566,7.7988,7.8108,7.8023,7.798,7.7914,7.7842,7.7806,7.7666,7.7562,7.7463,7.7295,7.7139,7.6998,7.6886,7.6757,7.6561,7.6412,7.6261,7.6074,7.5867,7.5727,7.5603,7.5478,6.5804,6.5804,6.5804,6.5804,6.5804,6.5804,6.5804,6.5804,6.5804,6.5804,6.5804,6.5804,6.5804,6.5804,6.5804,6.582,6.5852,6.5883,6.5867,6.5899,6.5951,6.6674,6.7418,6.8147,6.9164,7.0019,7.0662,7.0858,7.093,7.1032,7.1065,7.1097,7.1227,7.1392,7.1452,7.1609,7.178,7.1826,7.1948,7.2018,7.2018,7.2033,7.2033,7.2033,7.2063,7.2137,7.2263,7.2358,7.2416,7.246,7.2504,7.2481,7.2481,7.2532,7.2532,7.2532,7.2532,7.2532,7.2532,7.2532,7.2532,7.2532,7.2532,7.2532,7.2532,7.2532,7.2532,7.2532,7.2532,7.2532,7.2532,7.2532,7.2532,7.251,7.2553,7.2596,7.2872,7.3077,7.3225,7.332,7.332,7.332,7.332,7.3333,7.3482,7.363,7.4124,7.4873,7.5583,7.6157,7.6907,7.7419,7.7797,7.7864,7.7835,7.7791,7.774,7.7732,7.7643,7.7478,7.7326,7.7217,7.7108,7.6998,7.687,7.6708,7.6545,7.6362,7.621,7.6021,7.5867,7.5691,7.5603,7.546,7.5352,6.5804,6.5804,6.5804,6.5804,6.5804,6.5804,6.5804,6.5804,6.5804,6.5804,6.582,6.5804,6.5804,6.5804,6.5804,6.5867,6.5974,6.5974,6.6083,6.6213,6.6115,6.67,6.7445,6.8247,6.9453,7.0329,7.0937,7.0976,7.1143,7.1243,7.126,7.1292,7.1562,7.1708,7.1718,7.1872,7.1994,7.2039,7.2129,7.2233,7.2233,7.2218,7.2233,7.2263,7.2351,7.2394,7.2452,7.2489,7.2467,7.2481,7.2532,7.2532,7.2532,7.2532,7.2532,7.2532,7.2532,7.2532,7.2532,7.2532,7.2532,7.2532,7.2532,7.2532,7.2532,7.2532,7.2532,7.2532,7.2532,7.2532,7.2532,7.2532,7.2496,7.2539,7.2582,7.2638,7.2779,7.2955,7.3077,7.3131,7.3131,7.3131,7.3118,7.328,7.3562,7.3835,7.4316,7.5061,7.6008,7.6505,7.6956,7.7253,7.7636,7.7747,7.7791,7.7658,7.7614,7.7569,7.7478,7.7295,7.7139,7.6998,7.6886,7.6806,7.666,7.6495,7.6328,7.6142,7.5988,7.5832,7.5674,7.5514,7.5442,7.537,7.528]}]]